[[[{"header":{"parameterUnit":"kt","parameterCategory":2,"dx":1,"dy":1,"la1":29.587661999999998,"la2":31.0,"lo1":-88.76705300000003,"lo2":-86.6583820000003,"nx":115,"ny":88,"refTime":"2022-09-29T12:00:00:Z","depth":0,"parameterNumber":1,"parameterNumberName":"U-component_of_WINDS"},"data":[6.9493,6.8652,6.8175,6.8015,6.8015,6.7855,6.7855,6.7855,6.7695,6.7849,6.8458,6.9907,7.0826,7.0563,7.1479,7.2133,7.2494,7.2494,7.2314,7.2133,7.2494,7.2314,7.1951,7.1951,7.1951,7.177,7.177,7.177,7.1588,7.177,7.177,7.177,7.177,7.177,7.1819,7.234,7.2626,7.3689,7.4653,7.5741,7.6462,7.6903,7.7092,7.7165,7.7165,7.7165,7.7165,7.7165,7.7165,7.7165,7.7165,7.7165,7.7165,7.7165,7.7165,7.7165,7.7165,7.7165,7.7165,7.7165,7.7165,7.7238,7.8483,7.9166,7.9825,8.0777,8.1857,8.3244,8.3123,8.3123,8.2905,8.2687,8.2224,8.2004,8.1784,8.1319,8.0432,7.9785,7.936,7.8662,7.796,7.7733,7.7301,7.7073,7.6616,7.6386,7.5927,7.5466,7.5235,7.4772,7.4562,7.4329,7.4096,7.3396,7.2906,7.2671,7.2435,7.1749,7.1275,7.08,7.0064,6.9326,6.9086,6.9326,6.9347,6.8866,6.8866,6.8866,6.8866,6.8866,6.8866,6.8866,6.8866,6.8866,6.8866,6.8652,6.8175,6.7669,6.7348,6.7025,6.6726,6.6564,6.6401,6.6074,6.6386,6.7488,6.7806,6.8792,6.9877,7.0888,7.1572,7.177,7.1588,7.177,7.1951,7.1951,7.1588,7.1406,7.1406,7.104,7.104,7.0857,7.0857,7.0882,7.0857,7.0857,7.0857,7.0857,7.0882,7.1151,7.1738,7.3003,7.4058,7.4941,7.5946,7.6705,7.7092,7.7141,7.7165,7.7165,7.7165,7.7165,7.7165,7.7165,7.7165,7.7165,7.7165,7.7165,7.7165,7.7165,7.7165,7.7165,7.7165,7.7165,7.7165,7.7165,7.7629,7.9215,8.0142,8.0396,8.1157,8.2179,8.2492,8.2272,8.2052,8.2052,8.1832,8.1564,8.1121,8.0876,8.0432,7.9314,7.8413,7.7529,7.6844,7.6157,7.5697,7.5488,7.5279,7.5069,7.5047,7.4583,7.4351,7.4096,7.3863,7.363,7.363,7.363,7.314,7.2906,7.2435,7.2221,7.1533,7.1296,7.08,7.0562,7.0064,6.9586,6.9586,6.9326,6.9086,6.8846,6.8846,6.8866,6.8866,6.8866,6.8866,6.8866,6.8866,6.8866,6.7509,6.6701,6.586,6.5532,6.5368,6.5227,6.5062,6.5037,6.4872,6.5496,6.6546,6.6427,6.7511,6.9491,6.9879,7.033,7.0305,7.049,7.0674,7.049,7.033,7.0305,7.0305,7.0121,7.0145,6.996,6.9984,6.9984,6.9775,6.996,7.0145,7.033,7.0402,7.083,7.1674,7.2089,7.3065,7.47,7.5384,7.6067,7.697,7.7141,7.7165,7.7165,7.7165,7.7165,7.7165,7.7165,7.7165,7.7165,7.7165,7.7165,7.7165,7.7165,7.7165,7.7165,7.7165,7.7165,7.7165,7.694,7.6739,7.6876,7.8063,7.9112,7.9692,8.0903,8.1712,8.1808,8.1366,8.1145,8.1145,8.0701,8.0455,7.9762,7.9291,7.8841,7.796,7.705,7.6135,7.5466,7.5026,7.4562,7.4351,7.414,7.4118,7.4118,7.363,7.3374,7.314,7.314,7.2906,7.2884,7.2884,7.2884,7.2649,7.2435,7.1985,7.1749,7.1533,7.1275,7.1038,7.0562,7.0324,6.9825,6.9566,6.9326,6.8846,6.8846,6.8866,6.8866,6.8866,6.8866,6.8866,6.8866,6.8866,6.6351,6.5203,6.4398,6.3921,6.3896,6.3896,6.3896,6.3921,6.3633,6.4145,6.5159,6.5342,6.6536,6.8371,6.8608,6.8843,6.8843,6.903,6.8843,6.903,6.9217,6.9403,6.9217,6.9427,6.9427,6.9264,6.9264,6.9427,6.9427,6.9427,6.9427,6.9823,7.028,7.0757,7.1926,7.3021,7.3727,7.5237,7.565,7.5932,7.6489,7.6763,7.6739,7.6739,7.6739,7.6537,7.6537,7.6739,7.6739,7.6739,7.6739,7.6739,7.6739,7.6714,7.6739,7.6739,7.6537,7.6537,7.6537,7.6335,7.6109,7.6267,7.7204,7.7956,7.88,8.0102,8.0852,8.09,8.0678,8.0232,8.0009,7.9562,7.9112,7.8187,7.7506,7.705,7.6386,7.5675,7.475,7.4307,7.3885,7.3885,7.3651,7.3651,7.3396,7.314,7.2906,7.2649,7.2884,7.2884,7.2649,7.2649,7.2649,7.2649,7.2649,7.2414,7.2435,7.22,7.1964,7.1749,7.1275,7.1275,7.1254,7.0541,7.0064,6.9586,6.9326,6.9107,6.8866,6.8866,6.8866,6.8866,6.8866,6.8846,6.8846,6.5037,6.4206,6.3729,6.3271,6.315,6.2957,6.2957,6.3052,6.2304,6.2507,6.3541,6.4321,6.5659,6.715,6.7336,6.7502,6.7714,6.7903,6.7903,6.8445,6.828,6.8468,6.8679,6.9078,6.8679,6.9054,6.9078,6.8703,6.9078,6.8891,6.8727,6.9312,7.0077,7.1056,7.2158,7.3268,7.4406,7.5278,7.5411,7.5416,7.5656,7.5704,7.55,7.5704,7.5704,7.5704,7.5704,7.55,7.55,7.55,7.55,7.5704,7.5704,7.5704,7.5704,7.5704,7.5907,7.5931,7.5728,7.5524,7.55,7.6241,7.7364,7.7921,7.825,7.9027,7.9129,7.9089,7.9089,7.8864,7.8413,7.796,7.7278,7.6364,7.5652,7.5191,7.4518,7.3842,7.314,7.2671,7.2692,7.2948,7.2948,7.3161,7.314,7.2884,7.2649,7.2649,7.2649,7.2649,7.2649,7.2649,7.2649,7.2649,7.2649,7.2649,7.2649,7.2649,7.2414,7.2179,7.1964,7.1964,7.2179,7.1491,7.08,7.0303,6.9825,6.9586,6.9347,6.9107,6.8846,6.8866,6.8846,6.8846,6.8846,6.3729,6.2716,6.2399,6.1887,6.1418,6.1269,6.1269,6.1259,6.1279,6.2036,6.3221,6.3877,6.5066,6.6291,6.6406,6.6574,6.6788,6.6788,6.6979,6.7169,6.7169,6.7359,6.7359,6.7359,6.7548,6.7359,6.7359,6.7761,6.7382,6.7405,6.8325,6.9058,6.9482,7.1077,7.2442,7.35,7.4386,7.4712,7.4963,7.4998,7.4889,7.5093,7.5093,7.5297,7.55,7.55,7.55,7.55,7.55,7.55,7.55,7.5297,7.5297,7.5297,7.5297,7.5297,7.5297,7.5093,7.5093,7.4684,7.488,7.5402,7.6082,7.6919,7.7287,7.772,7.7821,7.7529,7.7506,7.7278,7.6593,7.6135,7.5213,7.454,7.4053,7.3331,7.2884,7.22,7.1728,7.1254,7.1512,7.1749,7.2221,7.2435,7.2649,7.2649,7.2649,7.2649,7.2649,7.2649,7.2884,7.2884,7.2884,7.2884,7.2649,7.2649,7.2649,7.2649,7.2884,7.2884,7.2649,7.2649,7.2414,7.22,7.1749,7.1038,7.0562,7.0303,6.9825,6.9566,6.9086,6.9086,6.9107,6.9086,6.8846,6.2399,6.1372,6.1199,6.09,6.0228,5.9856,5.9856,6.0038,6.0928,6.1741,6.2877,6.3774,6.479,6.583,6.5853,6.5853,6.5853,6.5853,6.5853,6.6045,6.6214,6.6237,6.6237,6.6406,6.6406,6.6429,6.6429,6.662,6.6429,6.6429,6.7249,6.8258,6.8614,7.0341,7.1792,7.2959,7.3075,7.3365,7.3581,7.3768,7.3838,7.3838,7.3838,7.4044,7.4044,7.4044,7.4044,7.425,7.425,7.425,7.4455,7.4455,7.4479,7.4455,7.4455,7.4455,7.4479,7.4479,7.4274,7.3838,7.3797,7.4609,7.5182,7.5553,7.6306,7.6804,7.696,7.6616,7.6179,7.5444,7.4728,7.4286,7.382,7.314,7.2435,7.1943,7.147,7.1017,7.0779,7.0541,7.0562,7.1038,7.1985,7.2435,7.2649,7.2649,7.2649,7.2649,7.2649,7.2884,7.314,7.314,7.3374,7.363,7.3374,7.314,7.314,7.2906,7.314,7.314,7.2884,7.2649,7.2649,7.2414,7.22,7.1728,7.1038,7.08,7.0562,7.0064,6.9566,6.9586,6.9586,6.9326,6.9326,6.1372,6.0854,6.0379,6.0228,6.0054,5.9285,5.8933,5.8913,6.0788,6.168,6.1881,6.3969,6.4753,6.4865,6.4887,6.4887,6.4887,6.4887,6.5274,6.5468,6.5468,6.5853,6.6045,6.6045,6.6022,6.6022,6.6045,6.5853,6.6237,6.6045,6.6045,6.6557,6.7483,6.8989,7.0066,7.0854,7.0894,7.1492,7.1997,7.2365,7.2572,7.2387,7.2595,7.2803,7.2803,7.2803,7.2803,7.2803,7.2595,7.2595,7.2364,7.2387,7.2387,7.2178,7.2178,7.2387,7.2387,7.2595,7.2618,7.2802,7.312,7.3814,7.4461,7.5114,7.5483,7.5772,7.5466,7.5257,7.4794,7.3842,7.3119,7.2649,7.2435,7.1728,7.1017,7.0541,7.0064,7.0064,7.0064,7.0085,7.0324,7.1038,7.1964,7.2435,7.2649,7.2649,7.2884,7.2884,7.3119,7.3374,7.363,7.363,7.3863,7.4373,7.4373,7.4118,7.3885,7.363,7.363,7.3396,7.314,7.2906,7.2884,7.2649,7.2649,7.2414,7.1749,7.1512,7.1275,7.08,7.0303,7.0303,7.0324,7.0064,6.9326,6.0356,5.9985,5.9811,5.9636,5.9285,5.8933,5.8735,5.9114,6.0832,6.2127,6.2841,6.4024,6.4693,6.4693,6.4693,6.4693,6.4693,6.4693,6.4887,6.4887,6.5103,6.5103,6.5274,6.5274,6.5445,6.5252,6.5274,6.5274,6.5468,6.5297,6.5297,6.5693,6.6612,6.7572,6.7913,6.8528,6.8809,7.0214,7.0439,7.096,7.1436,7.1549,7.1759,7.1969,7.2178,7.2178,7.2178,7.2178,7.2178,7.2178,7.2178,7.2178,7.2178,7.2178,7.2178,7.2178,7.2178,7.2178,7.2219,7.2236,7.2615,7.3102,7.3932,7.4452,7.4785,7.4772,7.4329,7.363,7.3396,7.2671,7.1707,7.1491,7.1017,7.0521,7.0064,6.9805,6.9566,6.9825,6.9825,7.0303,7.0562,7.1491,7.2435,7.2414,7.2649,7.2884,7.314,7.314,7.3374,7.3863,7.4351,7.4351,7.4373,7.4605,7.4583,7.4837,7.4583,7.4351,7.4118,7.4118,7.363,7.3161,7.2906,7.2906,7.2649,7.2649,7.22,7.1985,7.1749,7.1275,7.1038,7.1038,7.1058,7.0562,6.9825,5.9833,5.9438,5.924,5.8911,5.8204,5.8227,5.8426,5.8912,6.0084,6.1389,6.2583,6.3838,6.4282,6.4282,6.4282,6.4521,6.4499,6.4499,6.4693,6.4693,6.4693,6.4693,6.4693,6.4887,6.4693,6.4693,6.4693,6.4887,6.4693,6.491,6.4715,6.4782,6.562,6.6198,6.6265,6.6738,6.7436,6.8945,6.9643,7.016,7.1016,7.1151,7.1151,7.1572,7.1549,7.1549,7.1549,7.1549,7.1549,7.1527,7.1549,7.1549,7.1549,7.1549,7.1549,7.1549,7.1549,7.1549,7.161,7.2027,7.2467,7.3019,7.3558,7.4182,7.3945,7.4096,7.3161,7.2435,7.1964,7.1491,7.0821,7.0603,7.0167,6.9668,6.9668,6.9428,6.9326,6.9586,7.0064,7.0562,7.1038,7.1749,7.2435,7.2649,7.2649,7.2884,7.2906,7.314,7.3374,7.3885,7.4373,7.4605,7.4605,7.4816,7.5047,7.551,7.551,7.5026,7.4794,7.4583,7.4118,7.3651,7.3396,7.3161,7.2906,7.2649,7.2435,7.2435,7.2221,7.1985,7.1964,7.1964,7.1533,7.1038,7.0303,5.9438,5.9415,5.8911,5.8204,5.7315,5.7315,5.7838,5.8417,5.897,6.0081,6.1823,6.265,6.3064,6.326,6.3696,6.3914,6.3914,6.4304,6.4715,6.4499,6.4499,6.4715,6.4715,6.4499,6.4499,6.4693,6.4693,6.4693,6.4693,6.4693,6.4693,6.4782,6.4632,6.4699,6.4827,6.5608,6.659,6.7639,6.8554,6.9446,7.046,7.0707,7.0707,7.0707,7.0918,7.0918,7.0918,7.0918,7.0918,7.0918,7.0918,7.0918,7.0918,7.0707,7.0707,7.0707,7.0495,7.0495,7.0629,7.1301,7.2041,7.2776,7.3439,7.3626,7.3076,7.2671,7.22,7.1275,7.0965,7.0727,7.0208,6.9989,6.959,6.9389,6.9389,6.9349,6.9647,7.0064,7.0562,7.1296,7.1533,7.1985,7.2435,7.2649,7.2649,7.2649,7.2649,7.2906,7.314,7.363,7.4118,7.4351,7.4583,7.4816,7.5047,7.5719,7.5949,7.5675,7.5213,7.5004,7.4794,7.4329,7.4096,7.363,7.3374,7.3119,7.2906,7.2671,7.2435,7.2435,7.2414,7.2435,7.1985,7.1533,7.1038,5.8005,5.8027,5.7849,5.7115,5.6397,5.6196,5.6751,5.7649,5.8354,5.9721,6.1452,6.1687,6.2056,6.2451,6.267,6.2867,6.35,6.3914,6.4109,6.4109,6.4109,6.4131,6.4109,6.3914,6.3891,6.4131,6.4109,6.4499,6.4499,6.4693,6.4693,6.4499,6.4087,6.3869,6.3762,6.431,6.5568,6.7237,6.8107,6.8777,7.0339,7.0495,7.0495,7.0495,7.0495,7.0495,7.0495,7.0495,7.0495,7.0495,7.0495,7.0495,7.0495,7.0495,7.0283,7.0093,6.9903,6.969,6.974,7.0119,7.116,7.2245,7.3092,7.282,7.22,7.1491,7.11,7.0406,7.0699,7.0805,7.0339,7.0439,7.058,7.0035,6.9995,7.0135,7.0433,7.0583,7.1296,7.177,7.1985,7.2435,7.2649,7.2649,7.2649,7.2435,7.2671,7.314,7.314,7.3374,7.3885,7.4096,7.4562,7.4794,7.4794,7.5279,7.5279,7.5235,7.5213,7.5235,7.5213,7.5213,7.4982,7.4329,7.3863,7.3608,7.314,7.2906,7.2649,7.2649,7.2649,7.2649,7.22,7.1985,7.1512,5.6778,5.6577,5.5856,5.5313,5.4585,5.4959,5.5623,5.6536,5.749,5.8931,6.0443,6.0685,6.1084,6.1283,6.1461,6.1858,6.2473,6.3086,6.35,6.3522,6.3696,6.3718,6.3522,6.35,6.3304,6.35,6.3718,6.3914,6.4087,6.4087,6.4087,6.4087,6.3478,6.326,6.326,6.3653,6.4905,6.6497,6.7161,6.7979,6.9438,6.9881,6.9881,7.0093,7.0093,7.0305,7.0517,7.0495,7.0495,7.0495,7.0495,7.0495,7.0495,7.0305,6.9903,6.969,6.9476,6.9482,6.9488,6.9963,7.0576,7.1393,7.163,7.1749,7.1017,7.0541,7.0187,7.0155,7.038,7.0846,7.0576,7.116,7.1711,7.1372,7.1111,7.1149,7.1242,7.1245,7.1832,7.2221,7.2414,7.2649,7.2649,7.2649,7.2435,7.2435,7.2906,7.3374,7.314,7.3374,7.3374,7.3608,7.3863,7.4096,7.4351,7.4583,7.4816,7.5026,7.5213,7.5213,7.5444,7.5422,7.5213,7.5004,7.4562,7.3863,7.3374,7.314,7.2884,7.2649,7.2649,7.2649,7.2649,7.2435,7.1985,5.5473,5.5292,5.367,5.2973,5.2948,5.373,5.4612,5.5769,5.6336,5.7579,5.8812,5.9298,5.952,5.9722,6.0083,6.0685,6.1283,6.1858,6.2254,6.267,6.3086,6.2889,6.267,6.2692,6.267,6.2867,6.2692,6.2889,6.3086,6.2889,6.2867,6.2867,6.267,6.2867,6.2867,6.2911,6.4022,6.4937,6.6056,6.7127,6.8284,6.8983,6.9241,6.9476,6.969,6.9903,7.0495,7.0495,7.0495,7.0495,7.0495,7.0495,7.0283,6.9881,6.9454,6.9263,6.8835,6.9184,6.9657,7.0159,7.0213,7.0408,7.0734,7.0779,7.0303,6.9825,7.0054,7.0197,7.058,7.0778,7.159,7.1953,7.2507,7.2559,7.2501,7.2454,7.2316,7.2273,7.2326,7.2457,7.2649,7.2435,7.2435,7.22,7.1964,7.1749,7.22,7.22,7.2435,7.2435,7.2435,7.2671,7.314,7.3396,7.3651,7.3885,7.4118,7.4329,7.454,7.4982,7.5213,7.5213,7.5235,7.4794,7.4329,7.4096,7.3863,7.3374,7.314,7.2884,7.2649,7.2435,7.2435,7.22,7.1985,5.3117,5.2602,5.2045,5.2233,5.2823,5.304,5.4025,5.5364,5.5699,5.625,5.7065,5.7448,5.7652,5.806,5.8467,5.8873,5.9681,6.0263,6.0664,6.1084,6.1283,6.1283,6.1283,6.0906,6.0906,6.1283,6.1305,6.1681,6.1681,6.1504,6.0906,6.0727,6.1305,6.1504,6.1482,6.1944,6.2646,6.3573,6.4834,6.6319,6.7724,6.8486,6.8769,6.9049,6.9263,6.9668,6.9881,7.0305,7.0495,7.0495,7.0495,7.0093,6.9881,6.9476,6.9263,6.8642,6.8556,6.8791,6.9764,7.0335,7.066,7.0906,7.0996,7.0541,6.9825,6.9367,6.9229,7.0479,7.0964,7.2021,7.2872,7.3855,7.422,7.3918,7.3716,7.3398,7.3153,7.2917,7.2647,7.2756,7.2435,7.2457,7.1964,7.1512,7.1275,7.1038,7.1038,7.1275,7.1275,7.1275,7.1275,7.1491,7.1985,7.2221,7.2478,7.2692,7.3396,7.363,7.3863,7.4096,7.4562,7.4794,7.5026,7.4562,7.4118,7.3863,7.3396,7.3396,7.3374,7.2671,7.22,7.22,7.2221,7.1985,7.177,5.1298,5.0793,5.1178,5.1602,5.2084,5.2836,5.3703,5.4733,5.5159,5.5584,5.6177,5.6235,5.6628,5.7038,5.7038,5.7652,5.8264,5.865,5.9075,5.9479,5.9702,5.9702,5.95,5.9318,5.9318,5.9702,5.9903,6.0263,5.9862,5.95,5.9318,5.9722,6.0125,6.0305,6.0906,6.1283,6.166,6.2286,6.3514,6.52,6.6636,6.7415,6.8211,6.8448,6.8856,6.9071,6.9263,6.969,6.9881,6.9881,6.9881,6.969,6.9263,6.9071,6.8642,6.8039,6.8123,6.9038,7.0208,7.07,7.1018,7.1476,7.1275,7.08,7.0303,6.9887,7.0295,7.1334,7.1965,7.311,7.4465,7.5397,7.5549,7.5664,7.5147,7.4787,7.4372,7.3642,7.2774,7.2605,7.2221,7.1512,7.0779,7.08,7.08,7.0562,7.0541,7.0541,7.0562,7.0562,7.0562,7.0562,7.1038,7.1296,7.1512,7.177,7.2457,7.2692,7.2927,7.363,7.4118,7.4351,7.4583,7.4605,7.3885,7.3417,7.2948,7.2692,7.2221,7.2221,7.1964,7.1728,7.1512,7.1275,7.1038,4.9849,4.9887,5.0931,5.1367,5.169,5.3057,5.3797,5.421,5.4858,5.5201,5.5635,5.5635,5.5822,5.6235,5.6422,5.6628,5.7243,5.7448,5.7672,5.808,5.81,5.808,5.808,5.81,5.808,5.8284,5.8487,5.8284,5.7876,5.808,5.8284,5.869,5.9298,5.9722,6.0104,6.0505,6.0906,6.1432,6.231,6.3648,6.5515,6.6514,6.7456,6.778,6.8017,6.8427,6.8642,6.8835,6.9049,6.8835,6.8835,6.8856,6.8642,6.8233,6.8039,6.8165,6.8653,6.9401,7.0887,7.1272,7.1567,7.1602,7.1533,7.1296,7.08,7.0644,7.1201,7.3178,7.3447,7.415,7.537,7.6073,7.675,7.6608,7.6484,7.5849,7.5208,7.4044,7.2917,7.2384,7.1554,7.08,6.9825,7.0064,7.0324,7.0064,6.9805,7.0064,7.0085,7.0064,7.0064,7.0064,7.0324,7.0562,7.08,7.1275,7.1533,7.177,7.2478,7.3161,7.3396,7.3651,7.3906,7.4118,7.3651,7.3183,7.2242,7.177,7.1296,7.1275,7.1275,7.1038,7.0562,7.0541,7.0303,4.9243,4.9508,5.0738,5.1671,5.2374,5.3361,5.4101,5.4689,5.4898,5.4955,5.522,5.5201,5.522,5.5408,5.5408,5.5615,5.6048,5.6235,5.6441,5.6853,5.6833,5.6833,5.6833,5.6833,5.6833,5.7058,5.7038,5.6647,5.6461,5.6853,5.7038,5.7448,5.8284,5.8711,5.9116,5.9722,6.0326,6.0747,6.1179,6.235,6.454,6.6153,6.713,6.7325,6.7801,6.7996,6.8211,6.8427,6.8642,6.8642,6.8642,6.8642,6.8211,6.8017,6.8123,6.839,6.9327,7.0123,7.1227,7.1674,7.1691,7.1728,7.1275,7.1038,7.08,7.1141,7.1255,7.2268,7.3012,7.4295,7.5856,7.6566,7.7197,7.76,7.7197,7.6287,7.5462,7.433,7.2943,7.1816,7.0686,6.9825,6.9086,6.9107,6.9107,6.8846,6.9086,6.9347,6.9347,6.9347,6.9586,6.9586,6.9586,6.9825,7.0064,7.0562,7.08,7.1058,7.1749,7.2221,7.2457,7.2692,7.2927,7.2927,7.2692,7.2242,7.1533,7.0821,7.0562,7.0562,7.08,7.0562,6.9825,6.9347,6.9086,4.9053,4.9337,5.0352,5.1343,5.2032,5.281,5.3418,5.3835,5.4234,5.4405,5.4519,5.4822,5.5012,5.5012,5.5012,5.522,5.5427,5.5427,5.5615,5.5803,5.5803,5.5803,5.5803,5.5822,5.5822,5.5822,5.5822,5.5615,5.5408,5.6029,5.6235,5.6441,5.7058,5.7692,5.8304,5.8913,5.95,6.0125,6.061,6.1831,6.3868,6.507,6.6344,6.679,6.7347,6.7563,6.7563,6.7996,6.7996,6.7996,6.7996,6.7758,6.7542,6.7691,6.7922,6.8934,6.9614,7.0463,7.1821,7.2097,7.22,7.2221,7.1985,7.1728,7.1728,7.1749,7.1937,7.265,7.3509,7.485,7.625,7.6736,7.7197,7.743,7.7115,7.6149,7.529,7.4102,7.276,7.1489,7.0535,6.9488,6.8445,6.8183,6.8144,6.8124,6.8124,6.8385,6.8626,6.8866,6.9107,6.9107,6.9107,6.9347,6.9347,6.9825,7.0324,7.0324,7.08,7.1275,7.1533,7.1512,7.1728,7.1728,7.1491,7.1038,7.0562,7.0085,6.9846,6.9586,6.9347,6.9107,6.8626,6.8144,6.7882,4.8482,4.8937,4.9947,5.069,5.123,5.1986,5.2384,5.2658,5.3513,5.3778,5.3949,5.4614,5.5012,5.5012,5.5012,5.5012,5.5012,5.5012,5.4993,5.5201,5.5201,5.5201,5.5201,5.5201,5.5201,5.5012,5.4993,5.5201,5.522,5.5427,5.5635,5.5842,5.6235,5.6833,5.7488,5.81,5.869,5.952,5.9944,6.1221,6.3011,6.3975,6.4881,6.6743,6.7108,6.7108,6.7108,6.7108,6.7108,6.7108,6.7108,6.7108,6.7108,6.7108,6.7915,6.9083,6.9698,7.0548,7.1906,7.248,7.2628,7.2649,7.2649,7.2649,7.2649,7.2671,7.2478,7.2922,7.3853,7.5144,7.6513,7.6883,7.7155,7.7005,7.6583,7.6017,7.4915,7.39,7.2684,7.1865,7.036,6.8947,6.8665,6.8402,6.8001,6.764,6.7882,6.8124,6.8385,6.8385,6.8626,6.8606,6.8626,6.8626,6.8606,6.9086,6.9347,6.9586,7.0064,7.0324,7.0562,7.0562,7.0562,7.0303,7.0064,6.9846,6.9586,6.9326,6.8846,6.8385,6.7882,6.764,6.7398,6.7398,6.6913,4.7087,4.7369,4.9152,5.0106,5.0822,5.1497,5.1996,5.2582,5.3418,5.3683,5.3949,5.4633,5.5012,5.5012,5.5012,5.5012,5.5012,5.5012,5.5012,5.5012,5.5012,5.5012,5.5012,5.5012,5.5012,5.5012,5.5012,5.5012,5.4993,5.4993,5.522,5.522,5.5635,5.6048,5.6461,5.7058,5.7876,5.8507,5.9116,6.0567,6.249,6.2884,6.4202,6.6098,6.6695,6.6891,6.7108,6.7108,6.7108,6.7108,6.7108,6.7108,6.7108,6.7151,6.766,6.8573,6.9529,7.0463,7.1524,7.2246,7.2649,7.2649,7.2649,7.2649,7.2649,7.2649,7.2649,7.284,7.3095,7.3769,7.4844,7.6128,7.6796,7.6494,7.6238,7.5804,7.4848,7.3783,7.2993,7.2296,7.0939,6.9849,6.9324,6.8721,6.7878,6.7378,6.764,6.7882,6.8144,6.8144,6.8365,6.8365,6.8124,6.7882,6.7882,6.8124,6.8365,6.8606,6.9086,6.9586,6.9846,7.0064,7.0064,6.9586,6.9107,6.8626,6.8385,6.8323,6.81,6.7398,6.6932,6.703,6.6767,6.6426,6.5939,4.6334,4.6948,4.7886,4.8647,4.9301,4.9827,5.0189,5.084,5.2109,5.2894,5.3361,5.4481,5.4993,5.5012,5.5012,5.5012,5.5012,5.5012,5.5012,5.5012,5.5012,5.5012,5.5012,5.5012,5.5012,5.5012,5.5012,5.5012,5.5012,5.4993,5.5012,5.5012,5.522,5.5427,5.5842,5.6255,5.7078,5.7876,5.8528,5.9767,6.1903,6.2442,6.3714,6.5426,6.6259,6.6912,6.7108,6.7108,6.7108,6.7108,6.7108,6.7108,6.7108,6.713,6.7554,6.8403,6.9359,7.0314,7.1248,7.2119,7.2649,7.2649,7.2649,7.2649,7.2649,7.2649,7.2649,7.2649,7.2798,7.3176,7.4284,7.5564,7.5934,7.552,7.5489,7.5088,7.4303,7.2709,7.1781,7.1961,7.1202,7.0622,7.0123,6.9378,6.8755,6.8457,6.8681,6.8465,6.8465,6.8124,6.8124,6.7882,6.764,6.7398,6.7136,6.7136,6.764,6.7882,6.8606,6.8866,6.9347,6.9347,6.9566,6.9107,6.8626,6.8144,6.7917,6.7725,6.7617,6.7254,6.6647,6.6511,6.6266,6.6097,6.5832,4.5753,4.6334,4.6527,4.7105,4.789,4.8081,4.8482,4.9258,5.1019,5.1985,5.2705,5.4272,5.4955,5.5012,5.5012,5.5012,5.5012,5.5012,5.5012,5.5012,5.5012,5.5012,5.5012,5.5012,5.5012,5.5012,5.5012,5.5012,5.5012,5.5012,5.5012,5.5012,5.5012,5.522,5.5635,5.5842,5.6255,5.7038,5.7876,5.9109,6.0737,6.1625,6.2971,6.4606,6.5696,6.6217,6.6891,6.7108,6.7108,6.7108,6.7108,6.7108,6.7108,6.7108,6.7406,6.817,6.9168,7.0229,7.1036,7.1949,7.2649,7.2649,7.2649,7.2649,7.2649,7.2649,7.2649,7.2649,7.2671,7.3134,7.4108,7.4481,7.4477,7.4211,7.369,7.3474,7.3413,7.2041,7.1294,7.1512,7.1215,7.0798,7.1262,7.0005,6.9676,6.9869,6.9448,6.9148,6.8726,6.8385,6.8124,6.7882,6.764,6.7398,6.7156,6.6913,6.7156,6.7398,6.7882,6.8124,6.8626,6.8866,6.9086,6.8866,6.8144,6.82,6.7969,6.7773,6.744,6.7133,6.6788,6.6616,6.6616,6.6119,6.5851,4.4799,4.4993,4.5382,4.614,4.6912,4.7105,4.7489,4.8758,5.0607,5.1692,5.2267,5.4048,5.4955,5.5012,5.5012,5.5012,5.5012,5.5012,5.5012,5.5012,5.5012,5.5012,5.5012,5.5012,5.5012,5.5012,5.5012,5.5012,5.5012,5.5012,5.5012,5.5012,5.5012,5.5012,5.5201,5.5635,5.5842,5.6255,5.7058,5.823,5.9335,6.0618,6.2125,6.3637,6.4709,6.5998,6.6674,6.7108,6.7108,6.7108,6.7108,6.7108,6.7108,6.7108,6.7257,6.7639,6.8977,6.9996,7.0357,7.18,7.2649,7.2649,7.2649,7.2649,7.2649,7.2649,7.2649,7.2649,7.2649,7.3159,7.3917,7.3809,7.322,7.2507,7.1362,7.1322,7.1653,7.1588,7.1711,7.177,7.1259,7.0904,7.0688,7.0684,7.0104,7.0183,6.9889,6.951,6.8786,6.8425,6.8144,6.7902,6.764,6.7398,6.7156,6.6913,6.6913,6.7156,6.7398,6.764,6.8124,6.8626,6.8626,6.8365,6.764,6.7635,6.7656,6.7708,6.7094,6.6977,6.7262,6.7358,6.7047,6.6611,6.5975,4.4425,4.4799,4.4993,4.5382,4.5964,4.6158,4.6527,4.7813,4.9582,5.0911,5.2066,5.3637,5.4766,5.5012,5.5012,5.5012,5.5012,5.5012,5.5012,5.5012,5.5012,5.5012,5.5012,5.5012,5.5012,5.5012,5.5012,5.5012,5.5012,5.5012,5.5012,5.5012,5.5012,5.5012,5.4993,5.5201,5.5427,5.5842,5.6461,5.7452,5.8717,6.0286,6.1617,6.3135,6.4647,6.5581,6.6456,6.6891,6.7108,6.7108,6.7108,6.7108,6.7108,6.7108,6.7363,6.7915,6.9125,7.0187,7.0824,7.1885,7.2607,7.2649,7.2649,7.2649,7.2649,7.2649,7.2649,7.2649,7.2649,7.2862,7.3091,7.289,7.2398,7.1489,7.0083,6.9211,7.0223,7.0791,7.1195,7.179,7.1969,7.2325,7.2822,7.181,7.1209,7.0682,7.039,6.9852,6.9128,6.8485,6.8144,6.7882,6.7398,6.7398,6.7156,6.7156,6.7156,6.6913,6.7156,6.7378,6.7882,6.8365,6.8365,6.8124,6.7398,6.6904,6.7188,6.7345,6.7339,6.7617,6.7958,6.7996,6.7522,6.7085,6.638,4.423,4.4408,4.4425,4.4816,4.5205,4.5188,4.5771,4.6721,4.8623,5.0126,5.1243,5.3206,5.435,5.4785,5.4993,5.5012,5.5012,5.5012,5.5012,5.5012,5.5012,5.5012,5.5012,5.5012,5.5012,5.5012,5.5012,5.5012,5.5012,5.5012,5.5012,5.522,5.522,5.5201,5.5408,5.5408,5.5635,5.6048,5.6628,5.7373,5.846,6.0105,6.1516,6.2869,6.4326,6.556,6.6259,6.6695,6.7108,6.7108,6.7108,6.7108,6.7108,6.7108,6.7491,6.834,6.9359,7.0314,7.1227,7.2161,7.2607,7.2649,7.2649,7.2671,7.2906,7.2884,7.314,7.314,7.314,7.2927,7.2777,7.2377,7.1778,7.1294,6.9752,6.8744,6.9324,6.9628,7.0382,7.1096,7.1811,7.2266,7.2603,7.2286,7.183,7.1461,7.0911,7.0315,6.9591,6.8987,6.8385,6.7882,6.7882,6.7398,6.7398,6.7398,6.7398,6.7156,6.7398,6.7621,6.8124,6.8365,6.8124,6.7882,6.7398,6.7293,6.7307,6.74,6.7967,6.8357,6.8718,6.8984,6.8395,6.7777,6.7097,4.4017,4.4034,4.4034,4.4213,4.4799,4.4799,4.5188,4.6014,4.8224,4.9318,5.0249,5.2812,5.4141,5.435,5.4785,5.5012,5.5012,5.5012,5.5012,5.5012,5.5012,5.5012,5.5012,5.5012,5.5012,5.5012,5.5012,5.4993,5.5012,5.5201,5.522,5.5635,5.5842,5.6048,5.6216,5.6422,5.6441,5.6422,5.7038,5.7468,5.7666,5.9865,6.1273,6.2013,6.4215,6.5581,6.6259,6.6912,6.7108,6.7108,6.7108,6.7325,6.7108,6.713,6.7533,6.8752,6.938,7.0563,7.1291,7.2458,7.2906,7.2884,7.2884,7.2884,7.3396,7.363,7.3885,7.4118,7.3885,7.363,7.3396,7.2626,7.1483,7.1007,7.0249,6.9407,6.9027,6.9304,6.9676,6.9787,7.0313,7.11,7.1357,7.2246,7.2286,7.1926,7.1653,7.1019,7.0214,6.947,6.8766,6.8606,6.8606,6.8365,6.8365,6.8365,6.8365,6.8124,6.8124,6.8365,6.8606,6.8365,6.8124,6.7882,6.7516,6.7644,6.7885,6.7844,6.7986,6.868,6.9344,6.9781,6.946,6.8914,6.835,4.4034,4.4034,4.4034,4.4017,4.4213,4.423,4.4408,4.5216,4.7003,4.849,4.9825,5.1982,5.3514,5.4141,5.4785,5.4993,5.5012,5.5012,5.5012,5.5012,5.5012,5.5012,5.5012,5.5012,5.5012,5.5012,5.5012,5.5201,5.5427,5.5635,5.5842,5.6235,5.6216,5.6422,5.6628,5.6628,5.6628,5.6628,5.7243,5.7652,5.8011,5.9845,6.1405,6.2478,6.4194,6.5738,6.6695,6.7347,6.7563,6.778,6.7974,6.819,6.819,6.8233,6.8902,7.0153,7.0929,7.1749,7.3173,7.3669,7.3863,7.3885,7.3885,7.4118,7.4118,7.4351,7.4373,7.4605,7.4118,7.363,7.363,7.2457,7.177,7.1275,7.1058,7.08,7.0208,7.0641,7.0867,7.0641,7.124,7.1593,7.1681,7.2241,7.244,7.1821,7.1934,7.1965,7.0576,6.9933,6.9389,6.9007,6.9248,6.9448,6.9387,6.9347,6.9347,6.9107,6.9086,6.9086,6.9086,6.8606,6.8365,6.8365,6.7882,6.7941,6.8426,6.8347,6.8433,6.9149,7.0101,6.999,6.9744,6.9498,6.8682,4.4034,4.4034,4.4034,4.4034,4.4034,4.4034,4.4167,4.4897,4.6264,4.7796,4.9479,5.1257,5.2866,5.3932,5.4558,5.4785,5.5012,5.5012,5.5012,5.5012,5.5012,5.5012,5.5012,5.5012,5.5012,5.5012,5.5012,5.522,5.5635,5.5842,5.6235,5.6853,5.6833,5.7038,5.7243,5.7058,5.7058,5.7263,5.7652,5.8036,5.8416,6.0215,6.1972,6.3191,6.4751,6.6238,6.7325,6.778,6.8211,6.8211,6.8642,6.8856,6.8856,6.8856,6.9749,7.1426,7.1731,7.258,7.4257,7.4605,7.4605,7.4605,7.4605,7.4605,7.4794,7.4794,7.5026,7.5047,7.4351,7.3863,7.3885,7.2713,7.1985,7.1985,7.177,7.1275,7.0862,7.1118,7.1469,7.1129,7.1825,7.2069,7.2026,7.2426,7.2981,7.2493,7.2758,7.2778,7.168,7.1375,7.0969,6.9934,7.0274,7.0515,7.0228,7.0064,7.0324,7.0324,7.0064,6.9825,6.9586,6.9326,6.9086,6.8846,6.8124,6.8293,6.8888,6.926,6.9388,6.9975,7.0346,7.0273,7.0028,6.9498,6.8682,4.4084,4.4084,4.4034,4.4034,4.4034,4.4101,4.4287,4.512,4.6331,4.7487,4.8935,5.0822,5.2252,5.3304,5.3932,5.4558,5.4993,5.5012,5.5012,5.5031,5.5069,5.5088,5.5012,5.5088,5.5126,5.5012,5.5012,5.522,5.5842,5.6048,5.6461,5.7243,5.7468,5.7652,5.8304,5.81,5.81,5.81,5.81,5.8706,5.9612,6.0878,6.2389,6.3894,6.5518,6.6912,6.7996,6.8017,6.8448,6.8856,6.8835,6.8856,6.9071,6.9071,6.9684,7.1474,7.1709,7.2645,7.4257,7.4772,7.4837,7.4837,7.4837,7.5047,7.5466,7.5444,7.5675,7.5949,7.5279,7.4583,7.4351,7.3396,7.2671,7.2671,7.2457,7.177,7.1275,7.0821,7.0841,7.1266,7.1868,7.2165,7.2371,7.2746,7.322,7.3159,7.3303,7.322,7.2891,7.2808,7.293,7.2268,7.1834,7.1565,7.1172,7.0779,7.1296,7.1296,7.1038,7.0562,7.0303,7.0064,6.9825,6.9586,6.9107,6.8886,6.9489,6.9668,6.9943,7.037,7.0116,7.0273,6.9744,6.9213,6.8415,4.5019,4.4537,4.4054,4.4034,4.4084,4.4354,4.472,4.5053,4.6424,4.7512,4.8497,5.0224,5.1618,5.2674,5.3723,5.4558,5.4993,5.5012,5.5012,5.505,5.5563,5.5525,5.5164,5.5563,5.5525,5.5069,5.5012,5.5389,5.6235,5.6647,5.7263,5.81,5.808,5.81,5.8304,5.8304,5.8304,5.8304,5.8304,5.8727,5.9632,6.115,6.245,6.3976,6.621,6.778,6.8427,6.8856,6.9285,6.9476,6.969,7.0093,7.0115,7.0115,7.0456,7.1694,7.2424,7.3397,7.4613,7.5387,7.5697,7.5719,7.5719,7.5949,7.5927,7.6157,7.6157,7.6157,7.5697,7.5235,7.5004,7.4562,7.4118,7.3885,7.3885,7.3651,7.3417,7.3396,7.3396,7.3226,7.3268,7.2901,7.2769,7.3027,7.3204,7.3308,7.3424,7.3199,7.2744,7.2599,7.2413,7.2165,7.2586,7.264,7.241,7.2363,7.2647,7.2048,7.1512,7.1038,7.08,7.0562,7.0324,7.0324,7.0187,6.9932,6.9812,6.9787,7.0609,7.1385,7.1026,7.0518,6.9725,6.9213,6.8948,4.5735,4.5302,4.482,4.462,4.4687,4.5119,4.5469,4.5785,4.6717,4.7461,4.8415,4.9921,5.1194,5.2445,5.3514,5.4369,5.4993,5.5012,5.5012,5.5069,5.5525,5.5506,5.5069,5.5525,5.5468,5.505,5.4993,5.5596,5.6628,5.7243,5.7856,5.8304,5.8304,5.8304,5.8304,5.8304,5.8304,5.8304,5.8304,5.9113,6.0493,6.1523,6.2875,6.462,6.6835,6.8427,6.9071,6.9476,6.9668,6.9903,7.0305,7.0495,7.0495,7.0495,7.0941,7.1901,7.257,7.3374,7.4333,7.5025,7.5494,7.5829,7.5895,7.5985,7.6319,7.6409,7.6409,7.6179,7.5675,7.5675,7.5675,7.5235,7.5026,7.4816,7.4816,7.4605,7.4605,7.4605,7.4605,7.4605,7.4351,7.3863,7.3567,7.3417,7.3562,7.3668,7.4128,7.414,7.3541,7.3446,7.3551,7.3215,7.309,7.3592,7.4051,7.3931,7.3717,7.3097,7.2457,7.2221,7.1749,7.1749,7.1275,7.1038,7.08,7.0508,7.0335,7.0641,7.1369,7.1987,7.1512,7.0743,7.0499,6.9479,6.9213,4.6101,4.6118,4.6068,4.5951,4.5985,4.5968,4.6334,4.6717,4.705,4.7678,4.8855,4.9667,5.0981,5.2463,5.3112,5.3951,5.4785,5.5012,5.5012,5.5012,5.5107,5.5069,5.5012,5.5031,5.505,5.5012,5.5012,5.5615,5.6628,5.7263,5.7876,5.8304,5.8304,5.8304,5.8304,5.8304,5.8304,5.8304,5.8304,5.9315,6.1442,6.2319,6.3638,6.5665,6.7222,6.8555,6.9476,6.969,6.9881,7.0495,7.0495,7.0495,7.0495,7.0495,7.0919,7.1745,7.1968,7.2437,7.3262,7.3552,7.3954,7.4757,7.4936,7.5315,7.6096,7.6208,7.6275,7.6409,7.5816,7.5564,7.6135,7.5905,7.5444,7.5444,7.5026,7.4837,7.4837,7.4837,7.4837,7.4837,7.4837,7.4816,7.4816,7.4837,7.4692,7.4867,7.5367,7.5395,7.492,7.5586,7.5432,7.4482,7.429,7.4529,7.5653,7.5241,7.4959,7.4443,7.3651,7.363,7.3161,7.2927,7.2221,7.177,7.1512,7.1379,7.1151,7.1456,7.2365,7.2181,7.1434,7.0747,7.0255,6.9686,6.9347,4.7333,4.6867,4.68,4.6201,4.5319,4.5785,4.5818,4.5668,4.665,4.7427,4.8313,4.9479,5.0769,5.2463,5.3514,5.435,5.4993,5.5012,5.5012,5.5069,5.562,5.5582,5.5107,5.5582,5.5582,5.5069,5.4993,5.5596,5.6628,5.7672,5.808,5.8304,5.8304,5.8304,5.8304,5.8304,5.8304,5.8304,5.8304,5.9032,6.0854,6.2281,6.428,6.6804,6.7869,6.8751,7.0261,7.0305,7.0305,7.0495,7.0495,7.0495,7.0495,7.0495,7.0607,7.0941,7.1566,7.2124,7.2347,7.3061,7.3575,7.382,7.3887,7.4311,7.5137,7.5405,7.5695,7.6163,7.5534,7.5467,7.6253,7.6157,7.6157,7.6157,7.5927,7.5949,7.5949,7.5949,7.5971,7.5949,7.5719,7.5949,7.5949,7.5466,7.5235,7.5235,7.5034,7.4975,7.4828,7.5002,7.5371,7.546,7.5481,7.5458,7.5106,7.5296,7.4954,7.4627,7.4605,7.4351,7.4351,7.4118,7.3906,7.2713,7.2948,7.2777,7.1937,7.2066,7.2888,7.2026,7.1262,7.0707,7.0393,6.9726,6.9214,4.7083,4.6667,4.665,4.6151,4.5469,4.5818,4.5752,4.5435,4.6508,4.7252,4.8201,4.9142,5.0642,5.2409,5.3222,5.4257,5.4993,5.5012,5.5012,5.505,5.5487,5.5468,5.5069,5.5525,5.5487,5.5031,5.5201,5.5822,5.6628,5.7448,5.81,5.8284,5.8487,5.869,5.869,5.8913,5.8913,5.8934,5.8913,5.9564,6.0689,6.2125,6.4071,6.6134,6.7235,6.8288,6.9781,6.9893,7.0093,7.0473,7.0707,7.0729,7.0495,7.0707,7.0729,7.054,7.1075,7.1388,7.1388,7.1923,7.2414,7.2816,7.2838,7.3285,7.4266,7.4378,7.4579,7.5025,7.4713,7.478,7.565,7.5851,7.5985,7.6342,7.6409,7.6409,7.6409,7.6409,7.6409,7.6409,7.6409,7.6409,7.6409,7.6157,7.5905,7.5697,7.5719,7.5323,7.5047,7.5026,7.5056,7.5493,7.5858,7.5828,7.5455,7.5279,7.5279,7.5279,7.5026,7.5026,7.4794,7.4816,7.4373,7.3651,7.363,7.3161,7.2221,7.2721,7.2932,7.2475,7.166,7.1542,7.0501,6.9727,6.9565,4.6051,4.6001,4.6035,4.6001,4.5968,4.5901,4.5802,4.594,4.6483,4.7128,4.8001,4.8869,5.0249,5.196,5.2591,5.3654,5.4822,5.4879,5.4917,5.4993,5.5012,5.5012,5.5012,5.5012,5.4993,5.5201,5.5427,5.6048,5.6628,5.7243,5.7876,5.8284,5.8893,5.9075,5.9298,5.952,5.9924,5.9944,6.0125,6.0326,6.0948,6.2374,6.3652,6.4702,6.6004,6.7498,6.9073,6.914,6.952,7.0348,7.0813,7.0836,7.0603,7.0858,7.0858,7.0393,7.0528,7.0572,7.0595,7.0662,7.0941,7.1722,7.1856,7.228,7.3195,7.3218,7.3415,7.3572,7.3549,7.3997,7.4915,7.5094,7.5385,7.6011,7.6302,7.6275,7.623,7.6364,7.6409,7.6409,7.6409,7.6409,7.6409,7.6409,7.6409,7.6409,7.6179,7.5949,7.5675,7.5444,7.5532,7.5323,7.5763,7.6201,7.6201,7.6409,7.6179,7.6157,7.5905,7.5675,7.5444,7.5257,7.4583,7.4329,7.4075,7.3608,7.3097,7.2833,7.3204,7.2702,7.2677,7.2686,7.1757,7.0353,7.0063,4.6018,4.6001,4.6001,4.6001,4.5951,4.5402,4.5037,4.5179,4.5738,4.6664,4.7971,4.9256,5.0396,5.1735,5.2392,5.3064,5.3968,5.4044,5.4405,5.4955,5.5012,5.5012,5.5012,5.5012,5.5201,5.5635,5.5635,5.6255,5.7243,5.7448,5.806,5.8893,5.95,5.9722,5.9722,5.9743,5.9924,5.9924,6.1482,6.2495,6.2692,6.3303,6.4399,6.5635,6.6499,6.7526,6.9079,6.917,6.9283,6.9488,6.9713,6.951,6.951,6.9713,6.9713,6.9578,7.0237,7.0669,7.0691,7.091,7.103,7.083,7.0852,7.1254,7.2102,7.2277,7.2736,7.344,7.3599,7.4008,7.4939,7.5166,7.5037,7.4776,7.5452,7.57,7.5382,7.5962,7.6409,7.6409,7.6409,7.6386,7.6409,7.6409,7.6409,7.6409,7.6409,7.6409,7.6157,7.6157,7.6157,7.6179,7.6179,7.6409,7.6409,7.6409,7.6409,7.6409,7.6157,7.6157,7.6157,7.6179,7.5719,7.5235,7.4982,7.4518,7.363,7.3396,7.3032,7.2426,7.2398,7.2024,7.1104,7.0601,7.0734,4.5003,4.5003,4.5003,4.5019,4.4986,4.4587,4.4582,4.4867,4.5813,4.6772,4.7908,4.8914,5.017,5.1131,5.176,5.2412,5.3228,5.3607,5.4025,5.4462,5.5029,5.5427,5.5408,5.5615,5.5822,5.6235,5.6667,5.7283,5.7876,5.8507,5.9096,5.9681,6.0125,6.0505,6.0884,6.1305,6.1283,6.1504,6.3064,6.3847,6.3847,6.426,6.4916,6.5799,6.6213,6.7298,6.8872,6.8918,6.9125,6.9761,7.0205,7.0205,6.9784,7.0205,7.0205,6.9807,7.0314,7.0614,7.0233,7.051,7.0601,7.0684,7.1091,7.1798,7.2766,7.2917,7.3219,7.3774,7.3843,7.4259,7.5062,7.4962,7.493,7.493,7.5257,7.54,7.5291,7.5698,7.6149,7.6578,7.6646,7.6827,7.7256,7.7073,7.6889,7.6889,7.6638,7.6409,7.6409,7.6409,7.6409,7.6409,7.6409,7.6409,7.6409,7.6409,7.6409,7.6409,7.6409,7.6409,7.6409,7.6409,7.6157,7.5675,7.5422,7.4982,7.3842,7.363,7.3161,7.2457,7.2221,7.1985,7.1275,7.1275,7.1749,4.405,4.4034,4.4034,4.4017,4.4034,4.4017,4.4408,4.4993,4.6334,4.7297,4.7872,4.8863,4.9654,5.0503,5.0909,5.1576,5.2374,5.3295,5.3696,0.0,5.5059,5.5668,5.5874,5.6363,5.6833,5.7038,5.808,5.8507,5.8711,5.952,6.0326,6.0906,6.0884,6.1482,6.2451,6.3064,6.3456,6.3652,6.4432,6.482,6.5014,6.54,6.5593,6.5785,6.6429,6.7203,6.8397,6.8637,6.9009,7.0215,7.092,7.092,7.0482,7.0873,7.092,7.0482,7.0599,7.0322,6.9973,7.0112,7.0199,7.0894,7.163,7.278,7.4039,7.4015,7.4086,7.4227,7.4502,7.4626,7.5216,7.5171,7.5052,7.5629,7.5546,7.5251,7.5034,7.5239,7.5674,7.645,7.6542,7.6907,7.7482,7.7506,7.7098,7.7324,7.6889,7.6638,7.6638,7.6638,7.6409,7.6409,7.6409,7.6409,7.6409,7.6409,7.6409,7.6409,7.6409,7.6409,7.6409,7.6409,7.6179,7.5675,7.5675,7.5213,7.4307,7.3863,7.363,7.314,7.314,7.2927,7.2457,7.2242,7.2713,4.4034,4.4034,4.4034,4.423,4.4603,4.4603,4.4799,4.5365,0.0,0.0,0.0,4.9053,4.9527,5.0058,5.0058,5.0703,5.15,5.2004,5.2601,5.3312,5.4799,5.5793,5.6196,5.6907,5.7856,5.867,5.9257,5.9862,6.0305,6.0884,6.1461,6.1858,6.243,6.2824,6.3456,6.4065,6.5014,6.6169,6.636,6.6742,6.7123,6.7123,6.7502,6.7903,6.7903,6.8374,6.9104,6.9128,6.92,6.939,6.9602,6.9602,6.939,6.9602,6.9602,6.9437,7.0198,7.0673,7.0504,7.0896,7.1241,7.143,7.1992,7.3159,7.4959,7.476,7.5122,7.6465,7.6537,7.6384,7.6171,7.6195,7.5859,7.4974,7.5566,7.5662,7.486,7.5292,7.5845,7.5468,7.5514,7.5902,7.6862,7.6999,7.7049,7.7778,7.7483,7.714,7.714,7.7095,7.7028,7.6548,7.6386,7.6409,7.6409,7.6409,7.6409,7.6409,7.6409,7.6409,7.6409,7.6409,7.6409,7.6179,7.6179,7.5927,7.5213,7.4982,7.5004,7.4351,7.4373,7.4351,7.4118,7.4118,7.4096,4.4816,0.0,4.4799,4.4799,0.0,4.5365,4.5947,4.7122,4.7698,4.8463,4.9243,4.9433,4.9812,5.0378,5.0397,5.0797,5.1771,5.2389,5.2991,5.3808,5.5439,5.6428,5.6644,5.7484,5.83,5.8889,5.9671,6.006,6.0491,6.1696,6.2517,6.3142,6.3777,6.4432,6.5036,6.5252,6.6191,6.8092,6.8092,6.828,6.8468,6.8468,6.8468,6.8867,0.0,0.0,0.0,0.0,0.0,0.0,0.0,0.0,0.0,0.0,0.0,6.8776,6.9394,6.9686,6.9528,7.0105,7.0762,7.1102,7.1678,7.281,7.4411,7.519,7.6256,7.7762,7.7861,7.7914,7.804,7.7716,7.7341,7.6537,7.6567,7.647,7.5694,7.5889,7.6223,7.6036,7.6176,7.6573,7.7578,7.7237,7.7217,7.7919,7.7479,7.7234,7.7642,7.7619,7.73,7.6578,7.6735,7.6889,7.6889,7.666,7.6409,7.6409,7.6409,7.6409,7.6409,7.6409,7.6409,7.6409,7.6409,7.6157,7.5675,7.5422,7.5213,7.4816,7.4605,7.4597,7.4209,7.4452,7.4805,4.5771,4.5771,4.5771,4.5771,4.5964,4.672,4.768,4.8844,4.8844,4.9224,4.9622,5.0209,5.0566,5.1091,5.1278,5.1652,5.2602,5.3361,5.4059,5.4436,5.6239,5.7245,5.7245,5.8384,5.9016,5.9227,6.0002,6.0586,6.0608,6.2506,6.3638,6.4104,6.4854,6.562,6.6023,0.0,0.0,0.0,6.9121,6.9427,6.9427,6.9403,6.9427,6.9403,6.9403,0.0,7.0169,7.0169,7.0441,7.0746,7.0746,0.0,0.0,0.0,0.0,0.0,0.0,0.0,0.0,0.0,0.0,0.0,7.1554,7.2688,7.357,7.5457,7.7193,7.8469,7.8623,7.8651,7.9128,7.8867,7.8381,7.8138,7.7595,7.732,7.6891,7.6739,7.6828,7.6878,7.6767,7.7173,7.7942,7.7473,7.7232,7.8193,7.7529,7.7435,7.8127,7.7993,7.7356,7.6938,7.7044,7.7008,7.728,7.696,7.68,7.6369,7.6347,7.6235,7.5806,7.5784,7.5806,7.5762,7.5829,7.5556,7.5077,7.5122,7.4783,7.45,7.4478,7.4268,7.3598,7.4155,7.4713,4.672,4.672,4.672,4.6912,4.7489,4.9395,5.0359,5.0547,5.0923,5.113,5.1337,5.1858,5.2025,5.2211,5.2932,5.3261,5.3445,5.4547,5.4997,5.5242,5.7003,5.7983,5.8602,5.9754,6.0707,6.1309,6.1865,6.2235,6.2625,6.329,6.3907,6.4477,6.4956,6.5389,6.5412,6.5954,6.6766,6.7855,6.9157,7.0169,7.0514,7.049,7.049,7.0514,7.0514,7.0674,7.1199,7.1174,7.0962,7.061,7.0535,7.0038,6.8995,6.9242,6.934,0.0,6.9755,0.0,0.0,0.0,0.0,0.0,0.0,0.0,0.0,7.5318,7.6938,7.8769,7.861,7.8293,7.7865,7.7678,7.7899,7.846,7.8395,7.8414,7.8411,7.8337,7.7989,7.6707,7.6529,7.6711,7.7101,7.706,7.7232,7.8182,7.7945,7.7922,7.8728,7.8254,7.7755,7.7755,7.6819,7.6525,7.677,7.7368,7.737,7.6172,7.5991,7.5474,7.4288,7.3932,7.3887,7.3887,7.3976,7.3932,7.3842,7.3665,7.3643,7.3732,7.3687,7.3487,7.3418,7.3485,7.3664,4.7933,4.7782,4.8432,4.8814,4.9434,5.0362,5.0819,5.111,5.1477,5.1939,5.2727,5.2429,5.249,5.2757,5.3926,5.4672,5.527,5.6319,5.6936,5.718,5.8267,5.8824,5.9226,6.0165,6.0927,6.1307,6.1994,6.2325,6.2571,6.3684,6.4321,6.4521,6.5267,6.5666,6.5377,6.6108,6.647,6.6955,6.8606,6.9905,7.1016,7.1016,7.1199,7.1406,7.1613,7.1588,7.1745,7.1175,7.0809,7.0514,7.0091,6.944,6.8364,6.8551,6.8412,0.0,0.0,0.0,0.0,0.0,0.0,0.0,0.0,0.0,0.0,0.0,7.6343,0.0,7.8469,7.9146,7.9184,7.9081,7.9108,7.926,7.9127,7.8963,7.8561,7.8397,7.8077,7.7321,7.7199,7.7422,7.7879,7.7597,7.8011,7.8851,7.8692,7.8303,7.8532,7.8632,7.8557,7.798,7.7778,7.7708,7.7268,7.7102,7.68,7.5948,7.5659,7.5325,7.4675,7.4365,7.4343,7.4101,7.3881,7.3904,7.3463,7.3463,7.3463,7.3307,7.2593,7.1901,7.1812,7.2236,7.2637,4.9097,4.9155,5.0527,5.1444,5.1784,5.1784,5.185,5.2311,5.2154,5.288,5.3838,5.3175,5.319,5.3887,5.5309,5.6347,5.712,5.8211,5.8857,5.9077,6.0,6.0288,6.0114,6.1004,6.1372,6.1544,6.2205,6.2692,6.2885,6.4064,6.4669,6.484,6.5693,6.5985,6.556,6.6254,6.6615,6.6863,6.8001,6.9502,7.1143,7.144,7.1745,7.2133,7.2158,7.2214,7.2094,7.1495,7.0967,7.0613,6.9951,6.92,6.7993,6.8067,0.0,0.0,0.0,0.0,0.0,0.0,0.0,0.0,0.0,7.271,7.4207,0.0,7.5425,0.0,7.7712,7.8712,7.9692,7.9624,0.0,0.0,7.9973,7.9721,7.9263,7.9107,7.8713,7.8066,7.8004,7.8052,7.8406,7.8138,7.8238,7.9381,7.9253,7.8802,7.8658,7.9231,7.9301,7.854,7.8717,7.8958,7.8153,7.7166,7.6336,7.6098,7.5715,7.5238,7.4985,7.4962,7.4747,7.4076,7.4076,7.3837,7.3118,7.2945,7.3163,7.3313,7.1995,7.0918,7.094,7.1311,7.1848,5.0241,5.0863,5.3353,5.4632,5.5007,5.4692,5.4419,5.4484,5.4187,5.4252,5.4785,5.4719,5.5285,5.6487,5.778,0.0,5.8692,6.0291,6.0763,6.0286,6.1925,6.2522,6.2011,6.2593,6.2957,6.3247,6.3416,6.3921,6.4755,6.4829,6.502,6.5492,6.6025,6.6098,6.5706,6.6431,6.7171,6.7705,6.7594,6.8349,7.0588,7.1635,7.2133,7.2133,7.2519,7.258,7.1947,7.2118,7.1834,7.0678,7.047,6.9699,6.8276,0.0,0.0,0.0,0.0,0.0,0.0,0.0,0.0,0.0,0.0,0.0,0.0,0.0,0.0,0.0,7.568,0.0,7.7233,7.704,0.0,0.0,0.0,8.095,8.1481,8.1058,8.0371,7.9003,0.0,0.0,7.7835,0.0,7.837,7.9779,7.9564,7.9681,8.0705,8.0471,7.9963,7.94,7.913,7.8957,7.9265,7.8389,7.7333,7.6548,7.6129,7.5613,7.4399,7.4189,7.3751,7.3427,7.3149,7.294,7.2429,7.2054,7.1798,7.2894,7.2501,7.1923,7.1923,7.185,7.1542,5.2846,5.4309,5.4854,5.5226,5.5311,5.4421,5.4205,5.4624,5.4467,5.4811,5.5769,5.5302,5.5799,5.6721,5.6852,0.0,0.0,0.0,6.1645,6.2758,6.3313,6.3713,6.4182,6.4755,6.5087,6.5252,6.5417,6.5721,6.6049,6.5533,6.5808,6.6641,0.0,0.0,6.7441,6.7011,6.7366,6.8013,6.8044,6.8797,7.031,7.162,7.2579,7.278,7.3254,7.3087,7.2123,7.2068,7.1436,7.0232,7.0092,6.9557,0.0,0.0,0.0,0.0,0.0,0.0,0.0,0.0,0.0,0.0,0.0,7.196,0.0,0.0,0.0,0.0,7.525,7.576,7.7458,7.7468,0.0,0.0,0.0,0.0,0.0,0.0,0.0,7.8953,7.9182,7.9225,7.8869,7.8638,7.8665,7.9341,7.9076,7.8885,7.9349,0.0,8.0,7.9452,7.9845,8.0038,8.0024,7.9306,7.8507,7.7726,7.7142,7.6567,7.5979,7.5907,7.5477,7.4841,7.4432,7.425,7.3402,7.2787,7.237,7.2817,7.3065,7.2857,7.2676,7.2984,7.3011,5.5152,0.0,0.0,0.0,0.0,5.5404,5.5076,5.5472,5.5302,5.5861,5.6837,5.6344,0.0,0.0,0.0,0.0,0.0,0.0,6.2413,6.3713,6.4192,6.4585,6.5232,6.5603,6.5923,6.6057,6.6375,6.6667,6.6721,6.5784,6.5754,6.6664,0.0,0.0,0.0,0.0,6.7915,6.834,6.8609,6.9227,7.0356,7.1515,7.2473,7.315,7.3631,7.3388,7.2257,7.2061,7.1356,7.0328,7.0214,0.0,0.0,0.0,0.0,0.0,0.0,0.0,0.0,0.0,0.0,0.0,0.0,0.0,0.0,0.0,0.0,0.0,0.0,0.0,7.6171,7.6966,7.7675,0.0,0.0,0.0,0.0,0.0,0.0,0.0,0.0,0.0,7.9744,7.898,7.8688,0.0,0.0,7.8612,7.8743,7.9655,7.9991,7.9485,0.0,0.0,0.0,7.9478,7.8901,7.8758,7.7957,7.715,7.715,7.715,7.6732,7.552,7.5321,7.5297,7.5025,7.4627,7.4111,7.4062,7.402,7.4138,7.3619,7.3971,7.4142,0.0,0.0,0.0,0.0,0.0,0.0,0.0,0.0,5.7495,5.7521,0.0,5.8005,0.0,0.0,0.0,0.0,0.0,6.2525,0.0,0.0,6.4584,6.521,6.4683,6.4709,6.4986,6.5713,6.5766,6.6161,6.6661,6.5052,0.0,0.0,0.0,0.0,0.0,0.0,6.9512,6.887,6.925,6.9889,7.102,7.1287,7.1652,7.273,7.3578,7.3504,7.2325,7.223,7.2137,7.1621,7.0819,0.0,0.0,0.0,0.0,0.0,0.0,0.0,0.0,0.0,0.0,0.0,0.0,0.0,0.0,0.0,0.0,0.0,0.0,0.0,0.0,7.4459,0.0,0.0,0.0,0.0,0.0,0.0,0.0,0.0,0.0,0.0,7.9672,7.8557,7.8244,7.9394,0.0,0.0,0.0,0.0,8.0244,7.9963,7.9835,7.9861,7.929,7.8322,7.7794,7.8374,0.0,0.0,7.7481,7.7455,7.6974,7.5495,7.5405,7.5848,7.7455,7.7174,7.6753,7.6407,7.5848,7.5673,7.5231,7.447,7.3992,0.0,0.0,0.0,0.0,0.0,0.0,0.0,0.0,0.0,5.8704,0.0,5.8328,0.0,0.0,0.0,0.0,0.0,0.0,0.0,0.0,6.4153,6.5102,6.6336,6.6336,6.6912,0.0,6.7144,6.6397,0.0,0.0,0.0,0.0,0.0,0.0,0.0,0.0,6.9496,7.0318,7.08,7.1686,7.2664,7.2718,7.3311,7.4471,7.4061,7.3045,7.1662,7.252,7.1832,0.0,0.0,0.0,0.0,0.0,0.0,0.0,0.0,0.0,0.0,0.0,0.0,0.0,0.0,0.0,0.0,0.0,0.0,0.0,0.0,0.0,0.0,0.0,7.5153,0.0,0.0,0.0,0.0,0.0,0.0,0.0,0.0,0.0,7.8532,7.8773,7.8829,7.838,7.8529,7.8497,7.8408,0.0,0.0,0.0,0.0,0.0,0.0,0.0,7.9625,8.0012,7.9572,7.9365,7.9779,7.9572,7.9003,7.8116,0.0,0.0,7.5915,7.536,7.4967,7.4823,7.5281,7.5866,7.612,7.6282,7.6274,0.0,0.0,0.0,0.0,0.0,0.0,0.0,0.0,0.0,5.9285,5.8827,0.0,0.0,0.0,0.0,0.0,0.0,0.0,0.0,0.0,0.0,0.0,6.6359,6.6387,0.0,0.0,0.0,0.0,0.0,0.0,0.0,0.0,0.0,0.0,0.0,0.0,6.966,7.1011,7.2073,7.2869,7.3515,7.357,7.3955,7.4752,7.4108,7.3154,7.1969,0.0,0.0,0.0,0.0,0.0,0.0,0.0,0.0,0.0,0.0,0.0,0.0,0.0,0.0,0.0,0.0,0.0,0.0,0.0,0.0,0.0,0.0,0.0,0.0,0.0,7.4171,0.0,0.0,0.0,0.0,0.0,0.0,0.0,0.0,0.0,0.0,0.0,7.8843,7.7857,7.8159,7.8242,7.7631,7.8658,7.9585,0.0,0.0,0.0,0.0,0.0,0.0,0.0,0.0,0.0,0.0,0.0,0.0,0.0,0.0,7.8252,7.6082,7.548,7.5321,7.5003,0.0,0.0,0.0,0.0,0.0,0.0,0.0,0.0,0.0,0.0,0.0,0.0,0.0,0.0,0.0,0.0,0.0,0.0,5.852,0.0,0.0,0.0,0.0,0.0,0.0,0.0,0.0,0.0,0.0,0.0,0.0,0.0,0.0,0.0,0.0,0.0,0.0,0.0,0.0,0.0,0.0,0.0,7.1058,7.2818,7.3525,7.3164,7.3136,7.3461,7.3729,7.3792,7.3638,7.3552,0.0,0.0,0.0,0.0,0.0,0.0,0.0,0.0,0.0,0.0,0.0,0.0,0.0,0.0,0.0,0.0,0.0,0.0,0.0,0.0,0.0,0.0,0.0,0.0,0.0,0.0,7.3709,7.4702,7.5421,0.0,0.0,0.0,0.0,0.0,0.0,0.0,0.0,0.0,0.0,7.8218,7.8203,7.7423,7.8737,7.9534,7.9311,7.9145,7.9005,7.8779,7.8448,7.8648,0.0,0.0,0.0,0.0,0.0,0.0,0.0,0.0,0.0,0.0,0.0,0.0,0.0,0.0,0.0,0.0,0.0,0.0,0.0,0.0,0.0,0.0,0.0,0.0,0.0,0.0,0.0,0.0,0.0,0.0,0.0,0.0,0.0,0.0,0.0,0.0,0.0,0.0,0.0,0.0,0.0,0.0,0.0,0.0,0.0,0.0,0.0,0.0,0.0,0.0,0.0,0.0,0.0,0.0,7.0556,7.2144,7.3956,7.484,7.4667,7.4667,7.484,7.4956,7.5128,7.5096,0.0,0.0,0.0,0.0,0.0,0.0,0.0,0.0,0.0,0.0,0.0,0.0,0.0,0.0,0.0,0.0,0.0,0.0,0.0,0.0,0.0,0.0,0.0,0.0,0.0,0.0,0.0,0.0,7.3343,7.4924,7.5647,0.0,0.0,0.0,0.0,0.0,0.0,0.0,0.0,0.0,0.0,7.8984,7.9362,7.9467,7.9867,8.0435,8.0411,8.0439,7.9974,7.9392,7.9106,7.9775,0.0,0.0,0.0,0.0,0.0,0.0,0.0,0.0,0.0,0.0,0.0,0.0,0.0,0.0,0.0,0.0,0.0,0.0,0.0,0.0,0.0,0.0,0.0,0.0,0.0,0.0,0.0,0.0,0.0,0.0,0.0,0.0,0.0,0.0,0.0,0.0,0.0,0.0,0.0,0.0,0.0,0.0,0.0,0.0,0.0,0.0,0.0,0.0,0.0,0.0,0.0,0.0,0.0,7.104,7.3106,7.4991,7.57,7.5386,7.5558,7.5729,7.5871,7.5943,7.5621,0.0,0.0,0.0,0.0,0.0,0.0,0.0,0.0,0.0,0.0,0.0,0.0,0.0,0.0,0.0,0.0,0.0,0.0,0.0,0.0,0.0,0.0,0.0,0.0,0.0,0.0,0.0,0.0,7.247,7.3777,7.477,0.0,0.0,0.0,0.0,0.0,0.0,0.0,0.0,0.0,0.0,7.9333,7.9483,7.9724,0.0,0.0,8.0579,8.028,8.0118,7.9485,7.914,7.9759,7.9713,0.0,0.0,0.0,0.0,0.0,0.0,0.0,0.0,0.0,0.0,0.0,0.0,0.0,0.0,0.0,0.0,0.0,0.0,0.0,0.0,0.0,0.0,0.0,0.0,0.0,0.0,0.0,0.0,0.0,0.0,0.0,0.0,0.0,0.0,0.0,0.0,0.0,0.0,0.0,0.0,0.0,0.0,0.0,0.0,0.0,0.0,0.0,0.0,0.0,0.0,0.0,0.0,0.0,7.3762,7.5709,7.6324,7.57,7.6013,7.6324,7.6746,7.6128,7.5736,0.0,0.0,0.0,0.0,0.0,0.0,0.0,0.0,0.0,0.0,0.0,0.0,0.0,0.0,0.0,0.0,0.0,0.0,0.0,0.0,0.0,0.0,0.0,0.0,0.0,0.0,0.0,0.0,0.0,0.0,0.0,0.0,0.0,0.0,0.0,0.0,0.0,0.0,0.0,0.0,0.0,7.9116,7.8552,7.9514,8.0439,0.0,0.0,7.9324,7.9663,7.9122,7.8753,7.9502,0.0,0.0,0.0,0.0,0.0,0.0,0.0,0.0,0.0,0.0,0.0,0.0,0.0,0.0,0.0,0.0,0.0,0.0,0.0,0.0,0.0,0.0,0.0,0.0,0.0,0.0,0.0,0.0,0.0,0.0,0.0,0.0,0.0,0.0,0.0,0.0,0.0,0.0,0.0,0.0,0.0,0.0,0.0,0.0,0.0,0.0,0.0,0.0,0.0,0.0,0.0,0.0,0.0,0.0,7.4597,7.6418,7.7332,7.7164,7.7302,7.744,7.7794,7.8145,0.0,0.0,0.0,0.0,0.0,0.0,0.0,0.0,0.0,0.0,0.0,0.0,0.0,0.0,0.0,0.0,0.0,0.0,0.0,0.0,0.0,0.0,0.0,0.0,0.0,0.0,0.0,6.9862,0.0,0.0,0.0,0.0,0.0,0.0,0.0,0.0,0.0,0.0,0.0,0.0,0.0,0.0,7.81,7.9896,7.9929,8.0178,0.0,0.0,8.0355,8.0228,7.9336,7.8932,0.0,0.0,0.0,0.0,0.0,0.0,0.0,0.0,0.0,0.0,0.0,0.0,0.0,0.0,0.0,0.0,0.0,0.0,0.0,0.0,0.0,0.0,0.0,0.0,0.0,0.0,0.0,0.0,0.0,0.0,0.0,0.0,0.0,0.0,0.0,0.0,0.0,0.0,0.0,0.0,0.0,0.0,0.0,0.0,0.0,0.0,0.0,0.0,0.0,0.0,0.0,0.0,0.0,0.0,7.459,7.5234,7.7191,7.8126,7.796,7.8126,7.8368,7.8578,7.8997,7.8591,0.0,0.0,0.0,0.0,0.0,0.0,0.0,0.0,0.0,0.0,0.0,0.0,0.0,0.0,0.0,0.0,0.0,0.0,0.0,0.0,0.0,0.0,0.0,0.0,0.0,0.0,0.0,0.0,0.0,0.0,0.0,0.0,0.0,0.0,0.0,0.0,0.0,0.0,0.0,0.0,0.0,0.0,8.0045,8.0075,0.0,0.0,0.0,7.9964,7.9949,0.0,0.0,0.0,0.0,0.0,0.0,0.0,0.0,0.0,0.0,0.0,0.0,0.0,0.0,0.0,0.0,0.0,0.0,0.0,0.0,0.0,0.0,0.0,0.0,0.0,0.0,0.0,0.0,0.0,0.0,0.0,0.0,0.0,0.0,0.0,0.0,0.0,0.0,0.0,0.0,0.0,0.0,0.0,0.0,0.0,0.0,0.0,0.0,0.0,0.0,0.0,0.0,0.0,0.0,0.0,0.0,0.0,7.5832,7.779,7.8742,7.8338,7.8638,7.904,7.9409,7.9355,7.8878,0.0,0.0,0.0,0.0,0.0,0.0,0.0,0.0,0.0,0.0,0.0,0.0,0.0,0.0,0.0,0.0,0.0,0.0,0.0,0.0,0.0,0.0,0.0,0.0,0.0,0.0,0.0,0.0,0.0,0.0,0.0,0.0,0.0,0.0,0.0,0.0,0.0,0.0,0.0,0.0,0.0,7.89,7.9814,7.9895,8.0055,0.0,0.0,7.9086,7.9698,7.8789,0.0,0.0,0.0,0.0,0.0,0.0,0.0,0.0,0.0,0.0,0.0,0.0,0.0,0.0,0.0,0.0,0.0,0.0,0.0,0.0,0.0,0.0,0.0,0.0,0.0,0.0,0.0,0.0,0.0,0.0,0.0,0.0,0.0,0.0,0.0,0.0,0.0,0.0,0.0,0.0,0.0,0.0,0.0,0.0,0.0,0.0,0.0,0.0,0.0,0.0,0.0,0.0,0.0,0.0,0.0,0.0,7.697,7.8952,7.9834,7.9601,7.9632,7.9996,8.0584,8.0977,8.0634,0.0,0.0,0.0,0.0,0.0,0.0,0.0,0.0,0.0,0.0,0.0,0.0,0.0,0.0,0.0,0.0,0.0,0.0,0.0,0.0,0.0,0.0,0.0,0.0,0.0,0.0,0.0,0.0,0.0,0.0,0.0,0.0,0.0,0.0,0.0,0.0,0.0,0.0,0.0,0.0,0.0,7.8014,8.0278,8.0257,0.0,0.0,0.0,0.0,7.9892,7.971,0.0,0.0,0.0,0.0,0.0,0.0,0.0,0.0,0.0,0.0,0.0,0.0,0.0,0.0,0.0,0.0,0.0,0.0,0.0,0.0,0.0,0.0,0.0,0.0,0.0,0.0,0.0,0.0,0.0,0.0,0.0,0.0,0.0,0.0,0.0,0.0,0.0,0.0,0.0,0.0,0.0,0.0,0.0,0.0,0.0,0.0,0.0,0.0,0.0,0.0,0.0,0.0,0.0,0.0,0.0,0.0,7.7873,7.9741,8.0774,8.0707,8.0707,8.0903,8.1603,8.2104,8.152,0.0,0.0,0.0,0.0,0.0,0.0,0.0,0.0,0.0,0.0,0.0,0.0,0.0,0.0,0.0,0.0,0.0,0.0,0.0,0.0,0.0,0.0,0.0,0.0,0.0,0.0,0.0,0.0,0.0,0.0,0.0,0.0,0.0,0.0,0.0,0.0,0.0,0.0,0.0,0.0,7.8252,7.8717,8.1231,0.0,0.0,0.0,0.0,0.0,0.0,8.0127,8.0127,0.0,0.0,0.0,0.0,0.0,0.0,0.0,0.0,0.0,0.0,0.0,0.0,0.0,0.0,0.0,0.0,0.0,0.0,0.0,0.0,0.0,0.0,0.0,0.0,0.0,0.0,0.0,0.0,0.0,0.0,0.0,0.0,0.0,0.0,0.0,0.0,0.0,0.0,0.0,0.0,0.0,0.0,0.0,0.0,0.0,0.0,0.0,0.0,0.0,0.0,0.0,0.0,0.0,0.0,0.0,7.8455,8.064,8.1696,8.1696,8.1696,8.2041,8.2597,8.2995,8.235,8.1013,0.0,0.0,0.0,0.0,0.0,0.0,0.0,0.0,0.0,0.0,0.0,0.0,0.0,0.0,0.0,0.0,0.0,0.0,0.0,0.0,0.0,0.0,0.0,0.0,0.0,0.0,0.0,0.0,0.0,0.0,0.0,0.0,0.0,0.0,0.0,0.0,0.0,0.0,0.0,7.9008,7.9906,0.0,0.0,0.0,0.0,0.0,0.0,0.0,0.0,8.0811,0.0,0.0,0.0,0.0,0.0,0.0,0.0,0.0,0.0,0.0,0.0,0.0,0.0,0.0,0.0,0.0,0.0,0.0,0.0,0.0,0.0,0.0,0.0,0.0,0.0,0.0,0.0,0.0,0.0,0.0,0.0,0.0,0.0,0.0,0.0,0.0,0.0,0.0,0.0,0.0,0.0,0.0,0.0,0.0,0.0,0.0,0.0,0.0,0.0,0.0,0.0,0.0,0.0,0.0,0.0,0.0,8.1965,8.2995,8.2688,8.2873,8.3238,8.3566,8.4127,8.3729,0.0,0.0,0.0,0.0,0.0,0.0,0.0,0.0,0.0,0.0,0.0,0.0,0.0,0.0,0.0,0.0,0.0,0.0,0.0,0.0,0.0,0.0,0.0,0.0,0.0,0.0,0.0,0.0,0.0,0.0,0.0,0.0,0.0,0.0,0.0,0.0,0.0,0.0,0.0,7.7578,7.8935,0.0,0.0,0.0,0.0,0.0,0.0,0.0,0.0,8.2135,0.0,0.0,0.0,0.0,0.0,0.0,0.0,0.0,0.0,0.0,0.0,0.0,0.0,0.0,0.0,0.0,0.0,0.0,0.0,0.0,0.0,0.0,0.0,0.0,0.0,0.0,0.0,0.0,0.0,0.0,0.0,0.0,0.0,0.0,0.0,0.0,0.0,0.0,0.0,0.0,0.0,0.0,0.0,0.0,0.0,0.0,0.0,0.0,0.0,0.0,0.0,0.0,0.0,0.0,0.0,0.0,0.0,0.0,8.4041,8.3859,8.4127,8.451,8.4857,8.5015,8.4401,0.0,0.0,0.0,0.0,0.0,0.0,0.0,0.0,0.0,0.0,0.0,0.0,0.0,0.0,0.0,0.0,0.0,0.0,0.0,0.0,0.0,0.0,0.0,0.0,0.0,0.0,0.0,0.0,0.0,0.0,0.0,0.0,0.0,0.0,0.0,0.0,0.0,0.0,0.0,0.0,0.0,0.0,0.0,0.0,0.0,0.0,0.0,0.0,0.0,0.0,0.0,0.0,0.0,0.0,0.0,0.0,0.0,0.0,0.0,0.0,0.0,0.0,0.0,0.0,0.0,0.0,0.0,0.0,0.0,0.0,0.0,0.0,0.0,0.0,0.0,0.0,0.0,0.0,0.0,0.0,0.0,0.0,0.0,0.0,0.0,0.0,0.0,0.0,0.0,0.0,0.0,0.0,0.0,0.0,0.0,0.0,0.0,0.0,0.0,0.0,0.0,0.0,0.0,0.0,0.0,0.0,0.0,0.0,8.4877,8.5136,8.5428,8.5653,8.6053,8.5755,8.5014,0.0,0.0,0.0,0.0,0.0,0.0,0.0,0.0,0.0,0.0,0.0,0.0,0.0,0.0,0.0,0.0,0.0,0.0,0.0,0.0,0.0,0.0,0.0,0.0,0.0,0.0,0.0,0.0,0.0,0.0,0.0,0.0,0.0,0.0,0.0,0.0,0.0,0.0,0.0,0.0,0.0,0.0,0.0,0.0,0.0,0.0,0.0,0.0,8.3547,0.0,0.0,0.0,0.0,0.0,0.0,0.0,0.0,0.0,0.0,0.0,0.0,0.0,0.0,0.0,0.0,0.0,0.0,0.0,0.0,0.0,0.0,0.0,0.0,0.0,0.0,0.0,0.0,0.0,0.0,0.0,0.0,0.0,0.0,0.0,0.0,0.0,0.0,0.0,0.0,0.0,0.0,0.0,0.0,0.0,0.0,0.0,0.0,0.0,0.0,0.0,0.0,0.0,0.0,0.0,0.0,0.0,0.0,0.0,8.5007,8.6221,8.668,8.6962,8.6896,8.6584,8.5806,0.0,0.0,0.0,0.0,0.0,0.0,0.0,0.0,0.0,0.0,0.0,0.0,0.0,0.0,0.0,0.0,0.0,0.0,0.0,0.0,0.0,0.0,0.0,0.0,0.0,0.0,0.0,0.0,0.0,0.0,0.0,0.0,0.0,0.0,0.0,0.0,0.0,0.0,0.0,0.0,0.0,0.0,0.0,0.0,0.0,0.0,0.0,0.0,0.0,0.0,0.0,0.0,0.0,0.0,0.0,0.0,0.0,0.0,0.0,0.0,0.0,0.0,0.0,0.0,0.0,0.0,0.0,0.0,0.0,0.0,0.0,0.0,0.0,0.0,0.0,0.0,0.0,0.0,0.0,0.0,0.0,0.0,0.0,0.0,0.0,0.0,0.0,0.0,0.0,0.0,0.0,0.0,0.0,0.0,0.0,0.0,0.0,0.0,0.0,0.0,0.0,0.0,0.0,0.0,0.0,0.0,0.0,0.0,8.5622,8.7045,8.743,8.7745,8.816,8.6412,8.5184,0.0,0.0,0.0,0.0,0.0,0.0,0.0,0.0,0.0,0.0,0.0,0.0,0.0,0.0,0.0,0.0,0.0,0.0,0.0,0.0,0.0,0.0,0.0,0.0,0.0,0.0,0.0,0.0,0.0,0.0,0.0,0.0,0.0,0.0,0.0,0.0,0.0,0.0,0.0,0.0,0.0,0.0,0.0,0.0,0.0,0.0,0.0,0.0,0.0,0.0,0.0,0.0,0.0,0.0,0.0,0.0,0.0,0.0,0.0,0.0,0.0,0.0,0.0,0.0,0.0,0.0,0.0,0.0,0.0,0.0,0.0,0.0,0.0,0.0,0.0,0.0,0.0,0.0,0.0,0.0,0.0,0.0,0.0,0.0,0.0,0.0,0.0,0.0,0.0,0.0,0.0,0.0,0.0,0.0,0.0,0.0,0.0,0.0,0.0,0.0,0.0,0.0,0.0,0.0,0.0,0.0,0.0,0.0,0.0,8.7216,8.7856,8.8265,8.8459,8.6085,8.4621,0.0,0.0,0.0,0.0,0.0,0.0,0.0,0.0,0.0,0.0,0.0,0.0,0.0,0.0,0.0,0.0,0.0,0.0,0.0,0.0,0.0,0.0,0.0,0.0,0.0,0.0,0.0,0.0,0.0,0.0,0.0,0.0,0.0,0.0,0.0,0.0,0.0,0.0,0.0,0.0,0.0,0.0,0.0,0.0,0.0,0.0,0.0,0.0,0.0,0.0,0.0,0.0,0.0,0.0,0.0,0.0,0.0,0.0,0.0,0.0,0.0,0.0,0.0,0.0,0.0,0.0,0.0,0.0,0.0,0.0,0.0,0.0,0.0,0.0,0.0,0.0,0.0,0.0,0.0,0.0,0.0,0.0,0.0,0.0,0.0,0.0,0.0,0.0,0.0,0.0,0.0,0.0,0.0,0.0,0.0,0.0,0.0,0.0,0.0,0.0,0.0,0.0,0.0,0.0,0.0,0.0,0.0,0.0,0.0,8.6908,8.8259,8.8392,8.7422,8.6045,8.4694,0.0,0.0,0.0,0.0,0.0,0.0,0.0,0.0,0.0,0.0,0.0,0.0,0.0,0.0,0.0,0.0,0.0,0.0,0.0,0.0,0.0,0.0,0.0,0.0,0.0,0.0,0.0,0.0,0.0,0.0,0.0,0.0,0.0,0.0,0.0,0.0,0.0,0.0,0.0,0.0,0.0,0.0,0.0,0.0,0.0,0.0,0.0,0.0,0.0,0.0,0.0,0.0,0.0,0.0,0.0,0.0,0.0,0.0,0.0,0.0,0.0,0.0,0.0,0.0,0.0,0.0,0.0,0.0,0.0,0.0,0.0,0.0,0.0,0.0,0.0,0.0,0.0,0.0,0.0,0.0,0.0,0.0,0.0,0.0,0.0,0.0,0.0,0.0,0.0,0.0,0.0,0.0,0.0,0.0,0.0,0.0,0.0,0.0,0.0,0.0,0.0,0.0,0.0,0.0,0.0,0.0,0.0,0.0,0.0,8.4955,8.7335,8.7883,8.6571,8.6045,8.514,8.3614,0.0,0.0,0.0,0.0,0.0,0.0,0.0,0.0,0.0,0.0,0.0,0.0,0.0,0.0,0.0,0.0,0.0,0.0,0.0,0.0,0.0,0.0,0.0,0.0,0.0,0.0,0.0,0.0,0.0,0.0,0.0,0.0,0.0,0.0,0.0,0.0,0.0,0.0,0.0,0.0,0.0,0.0,0.0,0.0,0.0,0.0,0.0,0.0,0.0,0.0,0.0,0.0,0.0,0.0,0.0,0.0,0.0,0.0,0.0,0.0,0.0,0.0,0.0,0.0,0.0,0.0,0.0,0.0,0.0,0.0,0.0,0.0,0.0,0.0,0.0,0.0,0.0,0.0,0.0,0.0,0.0,0.0,0.0,0.0,0.0,0.0,0.0,0.0,0.0,0.0,0.0,0.0,0.0,0.0,0.0,0.0,0.0,0.0,0.0,0.0,0.0,0.0,0.0,0.0,0.0,0.0,0.0,0.0,8.3854,8.6297,8.6916,8.5471,8.5436,8.48,0.0,0.0,0.0,0.0,0.0,0.0,0.0,0.0,0.0,0.0,0.0,0.0,0.0,0.0,0.0,0.0,0.0,0.0,0.0,0.0,0.0,0.0,0.0,0.0,0.0,0.0,0.0,0.0,0.0,0.0,0.0,0.0,0.0,0.0,0.0,0.0,0.0,0.0,0.0,0.0,0.0,0.0,0.0,0.0,0.0,0.0,0.0,0.0,0.0,0.0,0.0,0.0,0.0,0.0,0.0,0.0,0.0,0.0,0.0,0.0,0.0,0.0,0.0,0.0,0.0,0.0,0.0,0.0,0.0,0.0,0.0,0.0,0.0,0.0,0.0,0.0,0.0,0.0,0.0,0.0,0.0,0.0,0.0,0.0,0.0,0.0,0.0,0.0,0.0,0.0,0.0,0.0,0.0,0.0,0.0,0.0,0.0,0.0,0.0,0.0,0.0,0.0,0.0,0.0,0.0,0.0,0.0,0.0,0.0,8.375,8.5333,8.5402,8.3854,8.4092,8.3535,0.0,0.0,0.0,0.0,0.0,0.0,0.0,0.0,0.0,0.0,0.0,0.0,0.0,0.0,0.0,0.0,0.0,0.0,0.0,0.0,0.0,0.0,0.0,0.0,0.0,0.0,0.0,0.0,0.0,0.0,0.0,0.0,0.0,0.0,0.0,0.0,0.0,0.0,0.0,0.0,0.0,0.0,0.0,0.0,0.0,0.0,0.0,0.0,0.0,0.0,0.0,0.0,0.0,0.0,0.0,0.0,0.0,0.0,0.0,0.0,0.0,0.0,0.0,0.0,0.0,0.0,0.0,0.0,0.0,0.0,0.0,0.0,0.0,0.0,0.0,0.0,0.0,0.0,0.0,0.0,0.0,0.0,0.0,0.0,0.0,0.0,0.0,0.0,0.0,0.0,0.0,0.0,0.0,0.0,0.0,0.0,0.0,0.0,0.0,0.0,0.0,0.0,0.0,0.0,0.0,0.0,0.0,0.0,0.0,8.3168,0.0,8.4441,0.0,8.3839,8.3666,0.0,0.0,0.0,0.0,0.0,0.0,0.0,0.0,0.0,0.0,0.0,0.0,0.0,0.0,0.0,0.0,0.0,0.0,0.0,0.0,0.0,0.0,0.0,0.0,0.0,0.0,0.0,0.0,0.0,0.0,0.0,0.0,0.0,0.0,0.0,0.0,0.0,0.0,0.0,0.0,0.0,0.0,0.0,0.0,0.0,0.0,0.0,0.0,0.0,0.0,0.0,0.0,0.0,0.0,0.0,0.0,0.0,0.0,0.0,0.0,0.0,0.0,0.0,0.0,0.0,0.0,0.0,0.0,0.0,0.0,0.0,0.0,0.0,0.0,0.0,0.0,0.0,0.0,0.0,0.0,0.0,0.0,0.0,0.0,0.0,0.0,0.0,0.0,0.0,0.0,0.0,0.0,0.0,0.0,0.0,0.0,0.0,0.0,0.0,0.0,0.0,0.0,0.0,0.0,0.0,0.0,0.0,0.0,0.0,8.3054,8.3691,8.3525,0.0,8.3411,8.3436,0.0,0.0,0.0,0.0,0.0,0.0,0.0,0.0,0.0,0.0,0.0,0.0,0.0,0.0,0.0,0.0,0.0,0.0,0.0,0.0,0.0,0.0,0.0,0.0,0.0,0.0,0.0,0.0,0.0,0.0,0.0,0.0,0.0,0.0,0.0,0.0,0.0,0.0,0.0,0.0,0.0,0.0,0.0,0.0,0.0,0.0,0.0,0.0,0.0,0.0,0.0,0.0,0.0,0.0,0.0,0.0,0.0,0.0,0.0,0.0,0.0,0.0,0.0,0.0,0.0,0.0,0.0,0.0,0.0,0.0,0.0,0.0,0.0,0.0,0.0,0.0,0.0,0.0,0.0,0.0,0.0,0.0,0.0,0.0,0.0,0.0,0.0,0.0,0.0,0.0,0.0,0.0,0.0,0.0,0.0,0.0,0.0,0.0,0.0,0.0,0.0,0.0,0.0,0.0,0.0,0.0,0.0,0.0,0.0,0.0,8.3054,8.2826,8.2826,8.2826,8.2784,0.0,0.0,0.0,0.0,0.0,0.0,0.0,0.0,0.0,0.0,0.0,0.0,0.0,0.0,0.0,0.0,0.0,0.0,0.0,0.0,0.0,0.0,0.0,0.0,0.0,0.0,0.0,0.0,0.0,0.0,0.0,0.0,0.0,0.0,0.0,0.0,0.0,0.0,0.0,0.0,0.0,0.0,0.0,0.0,0.0,0.0,0.0,0.0,0.0,0.0,0.0,0.0,0.0,0.0,0.0,0.0,0.0,0.0,0.0,0.0,0.0,0.0,0.0,0.0,0.0,0.0,0.0,0.0,0.0,0.0,0.0,0.0,0.0,0.0,0.0,0.0,0.0,0.0,0.0,0.0,0.0,0.0,0.0,0.0,0.0,0.0,0.0,0.0,0.0,0.0,0.0,0.0,0.0,0.0,0.0,0.0,0.0,0.0,0.0,0.0,0.0,0.0,0.0,0.0,0.0,0.0,0.0,0.0,0.0,0.0,8.3465,0.0,8.3244,8.2978,8.2861,8.2749,0.0,0.0,0.0,0.0,0.0,0.0,0.0,0.0,0.0,0.0,0.0,0.0,0.0,0.0,0.0,0.0,0.0,0.0,0.0,0.0,0.0,0.0,0.0,0.0,0.0,0.0,0.0,0.0,0.0,0.0,0.0,0.0,0.0,0.0,0.0,0.0,0.0,0.0,0.0,0.0,0.0,0.0,0.0,0.0,0.0,0.0,0.0,0.0,0.0,0.0,0.0,0.0,0.0,0.0,0.0,0.0,0.0,0.0,0.0,0.0,0.0,0.0,0.0,0.0,0.0,0.0,0.0,0.0,0.0,0.0,0.0,0.0,0.0,0.0,0.0,0.0,0.0,0.0,0.0,0.0,0.0,0.0,0.0,0.0,0.0,0.0,0.0,0.0,0.0,0.0,0.0,0.0,0.0,0.0,0.0,0.0,0.0,0.0,0.0,0.0,0.0,0.0,0.0,0.0,0.0,0.0,0.0,0.0,0.0,0.0,0.0,8.3575,8.3353,8.3164,0.0,0.0,0.0,0.0,0.0,0.0,0.0,0.0,0.0,0.0,0.0,0.0,0.0,0.0,0.0,0.0,0.0,0.0,0.0,0.0,0.0,0.0,0.0,0.0,0.0,0.0,0.0,0.0,0.0,0.0,0.0,0.0,0.0,0.0,0.0,0.0,0.0,0.0,0.0,0.0,0.0,0.0,0.0,0.0,0.0,0.0,0.0,0.0,0.0,0.0,0.0,0.0,0.0,0.0,0.0,0.0,0.0,0.0,0.0,0.0,0.0,0.0,0.0,0.0,0.0,0.0,0.0,0.0,0.0,0.0,0.0,0.0,0.0,0.0,0.0,0.0,0.0,0.0,0.0,0.0,0.0,0.0,0.0,0.0,0.0,0.0,0.0,0.0,0.0,0.0,0.0,0.0,0.0,0.0,0.0,0.0,0.0,0.0,0.0,0.0,0.0,0.0,0.0,0.0,0.0,0.0,0.0,0.0,0.0,0.0,0.0,8.4002,8.4002,8.3896,0.0,8.3099,0.0,0.0,0.0,0.0,0.0,0.0,0.0,0.0,0.0,0.0,0.0,0.0,0.0,0.0,0.0,0.0,0.0,0.0,0.0,0.0,0.0,0.0,0.0,0.0,0.0,0.0,0.0,0.0,0.0,0.0,0.0,0.0,0.0,0.0,0.0,0.0,0.0,0.0,0.0,0.0,0.0,0.0,0.0,0.0,0.0,0.0,0.0,0.0,0.0,0.0,0.0,0.0,0.0,0.0,0.0,0.0,0.0,0.0,0.0,0.0,0.0,0.0,0.0,0.0,0.0,0.0,0.0,0.0,0.0,0.0,0.0,0.0,0.0,0.0,0.0,0.0,0.0,0.0,0.0,0.0,0.0,0.0,0.0,0.0,0.0,0.0,0.0,0.0,0.0,0.0,0.0,0.0,0.0,0.0,0.0,0.0,0.0,0.0,0.0,0.0,0.0,0.0,0.0,0.0,0.0,0.0,0.0,0.0,0.0,0.0,0.0,0.0,8.4002,8.3825,8.3573,0.0,0.0,0.0,0.0,0.0,0.0,0.0,0.0,0.0,0.0,0.0,0.0,0.0,0.0,0.0,0.0,0.0,0.0,0.0,0.0,0.0,0.0,0.0,0.0,0.0,0.0,0.0,0.0,0.0,0.0,0.0,0.0,0.0,0.0,0.0,0.0,0.0,0.0,0.0,0.0,0.0,0.0,0.0,0.0,0.0,0.0,0.0,0.0,0.0,0.0,0.0,0.0,0.0,0.0,0.0,0.0,0.0,0.0,0.0,0.0,0.0,0.0,0.0,0.0,0.0,0.0,0.0,0.0,0.0,0.0,0.0,0.0,0.0,0.0,0.0,0.0,0.0,0.0,0.0,0.0,0.0,0.0,0.0,0.0,0.0,0.0,0.0,0.0,0.0,0.0,0.0,0.0,0.0,0.0,0.0,0.0,0.0,0.0,0.0,0.0,0.0,0.0,0.0,0.0,0.0,0.0,0.0,0.0,0.0,0.0,8.4453,8.4453,8.4247,8.4108,8.4038,0.0,0.0,0.0,0.0,0.0,0.0,0.0,0.0,0.0,0.0,0.0,0.0,0.0,0.0,0.0,0.0,0.0,0.0,0.0,0.0,0.0,0.0,0.0,0.0,0.0,0.0,0.0,0.0,0.0,0.0,0.0,0.0,0.0,0.0,0.0,0.0,0.0,0.0,0.0,0.0,0.0,0.0,0.0,0.0,0.0,0.0,0.0,0.0,0.0,0.0,0.0,0.0,0.0,0.0,0.0,0.0,0.0,0.0,0.0,0.0,0.0,0.0,0.0,0.0,0.0,0.0,0.0,0.0,0.0,0.0,0.0,0.0,0.0,0.0,0.0,0.0,0.0,0.0,0.0,0.0,0.0,0.0,0.0,0.0,0.0,0.0,0.0,0.0,0.0,0.0,0.0,0.0,0.0,0.0,0.0,0.0,0.0,0.0,0.0,0.0,0.0,0.0,0.0,0.0,0.0,0.0,0.0,0.0,0.0,0.0,0.0,0.0,0.0,0.0,8.3996,0.0,0.0,0.0,0.0,0.0,0.0,0.0,0.0,0.0,0.0,0.0,0.0,0.0,0.0,0.0,0.0,0.0,0.0,0.0,0.0,0.0,0.0,0.0,0.0,0.0,0.0,0.0,0.0,0.0,0.0,0.0,0.0,0.0,0.0,0.0,0.0,0.0,0.0,0.0,0.0,0.0,0.0,0.0,0.0,0.0,0.0,0.0,0.0,0.0,0.0,0.0,0.0,0.0,0.0,0.0,0.0,0.0,0.0,0.0,0.0,0.0,0.0,0.0,0.0,0.0,0.0,0.0,0.0,0.0,0.0,0.0,0.0,0.0,0.0,0.0,0.0,0.0,0.0,0.0,0.0,0.0,0.0,0.0,0.0,0.0,0.0,0.0,0.0,0.0,0.0,0.0,0.0,0.0,0.0,0.0,0.0,0.0,0.0,0.0,0.0,0.0,0.0,0.0,0.0,0.0,0.0,0.0,0.0,0.0,0.0,0.0,0.0,0.0,0.0,0.0,0.0,0.0,0.0,0.0,0.0,0.0,0.0,0.0,0.0,0.0,0.0,0.0,0.0,0.0,0.0,0.0,0.0,0.0,0.0,0.0,0.0,0.0,0.0,0.0,0.0,0.0,0.0,0.0,0.0,0.0,0.0,0.0,0.0,0.0,0.0,0.0,0.0,0.0,0.0,0.0,0.0,0.0,0.0,0.0,0.0,0.0,0.0,0.0,0.0,0.0,0.0,0.0,0.0,0.0,0.0,0.0,0.0,0.0,0.0,0.0,0.0,0.0,0.0,0.0,0.0,0.0,0.0,0.0,0.0,0.0,0.0,0.0,0.0,0.0,0.0,0.0,0.0,0.0,0.0,0.0,0.0,0.0,0.0,0.0,0.0,0.0,0.0,0.0,0.0,0.0,0.0,0.0,0.0,0.0,0.0,0.0,0.0,0.0,0.0,0.0,0.0,0.0,0.0,0.0,0.0,0.0,0.0,0.0,0.0,0.0,0.0,0.0,0.0,0.0,0.0,0.0,0.0,0.0,0.0,0.0,0.0,0.0,0.0,0.0,0.0,0.0,0.0,0.0,0.0,0.0,0.0,0.0,0.0,0.0,0.0,0.0,0.0,0.0,0.0,0.0,0.0,0.0,0.0,0.0,0.0,0.0,0.0,0.0,0.0,0.0,0.0,0.0,0.0,0.0,0.0,0.0,0.0,0.0,0.0,0.0,0.0,0.0,0.0,0.0,0.0,0.0,0.0,0.0,0.0,0.0,0.0,0.0,0.0,0.0,0.0,0.0,0.0,0.0,0.0,0.0,0.0,0.0,0.0,0.0,0.0,0.0,0.0,0.0,0.0,0.0,0.0,0.0,0.0,0.0,0.0,0.0,0.0,0.0,0.0,0.0,0.0,0.0,0.0,0.0,0.0,0.0,0.0,0.0,0.0,0.0,0.0,0.0,0.0,0.0,0.0,0.0,0.0,0.0,0.0,0.0,0.0,0.0,0.0,0.0,0.0,0.0,0.0,0.0,0.0,0.0,0.0,0.0,0.0,0.0,0.0,0.0,0.0,0.0,0.0,0.0,0.0,0.0,0.0,0.0,0.0,0.0,0.0,0.0,0.0,0.0,0.0,0.0,0.0,0.0,0.0,0.0,0.0,0.0,0.0,0.0,0.0,0.0,0.0,0.0,0.0,0.0,0.0,0.0,0.0,0.0,0.0,0.0,0.0,0.0,0.0,0.0,0.0,0.0,0.0,0.0,0.0,0.0,0.0,0.0,0.0,0.0,0.0,0.0,0.0,0.0,0.0,0.0,0.0,0.0,0.0,0.0,0.0,0.0,0.0,0.0,0.0,0.0,0.0,0.0,0.0,0.0,0.0,0.0,0.0,0.0,0.0,0.0,0.0,0.0,0.0,0.0,0.0,0.0,0.0,0.0,0.0,0.0,0.0,0.0,0.0,0.0,0.0,0.0,0.0,0.0,0.0,0.0,0.0,0.0,0.0,0.0,0.0,0.0,0.0,0.0,0.0,0.0,0.0,0.0,0.0,0.0,0.0,0.0,0.0,0.0,0.0,0.0,0.0,0.0,0.0,0.0,0.0,0.0,0.0,0.0,0.0,0.0,0.0,0.0,0.0,0.0,0.0,0.0,0.0,0.0,0.0,0.0,0.0,0.0,0.0,0.0,0.0,0.0,0.0,0.0,0.0,0.0,0.0,0.0,0.0,0.0,0.0,0.0,0.0,0.0,0.0,0.0,0.0,0.0,0.0,0.0,0.0,0.0,0.0,0.0,0.0,0.0,0.0,0.0,0.0,0.0,0.0,0.0,0.0,0.0,0.0,0.0,0.0,0.0,0.0,0.0,0.0,0.0,0.0,0.0,0.0,0.0,0.0,0.0,0.0,0.0,0.0,0.0,0.0,0.0,0.0,0.0,0.0,0.0,0.0,0.0,0.0,0.0,0.0,0.0,0.0,0.0,0.0,0.0,0.0,0.0,0.0,0.0,0.0,0.0,0.0,0.0,0.0,0.0,0.0,0.0,0.0,0.0,0.0,0.0,0.0,0.0,0.0,0.0,0.0,0.0,0.0,0.0,0.0,0.0,0.0,0.0,0.0,0.0,0.0,0.0,0.0,0.0,0.0,0.0,0.0,0.0,0.0,0.0,0.0,0.0,0.0,0.0,0.0,0.0,0.0,0.0,0.0,0.0,0.0,0.0,0.0,0.0,0.0,0.0,0.0,0.0,0.0,0.0,0.0,0.0,0.0,0.0,0.0,0.0,0.0,0.0,0.0,0.0,0.0,0.0,0.0,0.0,0.0,0.0,0.0,0.0,0.0,0.0,0.0,0.0,0.0,0.0,0.0,0.0,0.0,0.0,0.0,0.0,0.0,0.0,0.0,0.0,0.0,0.0,0.0,0.0,0.0,0.0,0.0,0.0,0.0,0.0,0.0,0.0,0.0,0.0,0.0,0.0,0.0,0.0,0.0,0.0,0.0,0.0,0.0,0.0,0.0,0.0,0.0,0.0,0.0,0.0,0.0,0.0,0.0,0.0,0.0,0.0,0.0,0.0,0.0,0.0,0.0,0.0,0.0,0.0,0.0,0.0,0.0,0.0,0.0,0.0,0.0,0.0,0.0,0.0,0.0,0.0,0.0,0.0,0.0,0.0,0.0,0.0,0.0,0.0,0.0,0.0,0.0,0.0,0.0,0.0,0.0,0.0,0.0,0.0,0.0,0.0,0.0,0.0,0.0,0.0,0.0,0.0,0.0,0.0,0.0,0.0,0.0,0.0,0.0,0.0,0.0,0.0,0.0,0.0,0.0,0.0,0.0,0.0,0.0,0.0,0.0,0.0,0.0,0.0,0.0,0.0,0.0,0.0,0.0,0.0,0.0,0.0,0.0,0.0,0.0,0.0,0.0,0.0,0.0,0.0,0.0,0.0,0.0,0.0,0.0,0.0,0.0,0.0,0.0,0.0,0.0,0.0,0.0,0.0,0.0,0.0,0.0,0.0,0.0,0.0,0.0,0.0,0.0,0.0,0.0,0.0,0.0,0.0,0.0,0.0,0.0,0.0,0.0,0.0,0.0,0.0,0.0,0.0,0.0,0.0,0.0,0.0,0.0,0.0,0.0,0.0,0.0,0.0,0.0,0.0,0.0,0.0,0.0,0.0,0.0,0.0,0.0,0.0,0.0,0.0,0.0,0.0,0.0,0.0,0.0,0.0,0.0,0.0,0.0,0.0,0.0,0.0,0.0,0.0,0.0,0.0,0.0,0.0,0.0,0.0,0.0,0.0,0.0,0.0,0.0,0.0,0.0,0.0,0.0,0.0,0.0,0.0,0.0,0.0,0.0,0.0,0.0,0.0,0.0,0.0,0.0,0.0,0.0,0.0,0.0,0.0,0.0,0.0,0.0,0.0,0.0,0.0,0.0,0.0,0.0,0.0,0.0,0.0,0.0,0.0,0.0,0.0,0.0,0.0,0.0,0.0,0.0,0.0,0.0,0.0,0.0,0.0,0.0,0.0,0.0,0.0,0.0,0.0,0.0,0.0,0.0,0.0,0.0,0.0,0.0,0.0,0.0,0.0,0.0,0.0,0.0,0.0,0.0,0.0,0.0,0.0,0.0,0.0,0.0,0.0,0.0,0.0,0.0,0.0,0.0,0.0,0.0,0.0,0.0,0.0,0.0,0.0,0.0,0.0,0.0,0.0,0.0,0.0,0.0,0.0,0.0,0.0,0.0,0.0,0.0,0.0,0.0,0.0,0.0,0.0,0.0,0.0,0.0,0.0,0.0,0.0,0.0,0.0,0.0,0.0,0.0,0.0,0.0,0.0,0.0,0.0,0.0,0.0,0.0,0.0,0.0,0.0,0.0,0.0,0.0]}],[{"header":{"parameterUnit":"kt","parameterCategory":2,"dx":1,"dy":1,"la1":29.587661999999998,"la2":31.0,"lo1":-88.76705300000003,"lo2":-86.6583820000003,"nx":115,"ny":88,"refTime":"2022-09-29T12:00:00:Z","depth":0,"parameterNumber":2,"parameterNumberName":"V-component_of_WINDS"},"data":[-7.1962,-7.2661,-7.3109,-7.3257,-7.3257,-7.3405,-7.3405,-7.3405,-7.3553,-7.3721,-7.4708,-7.6625,-7.8661,-8.1174,-8.2591,-8.2979,-8.2664,-8.2664,-8.2822,-8.2979,-8.2664,-8.2822,-8.3136,-8.3136,-8.3136,-8.3293,-8.3293,-8.3293,-8.3449,-8.3293,-8.3293,-8.3293,-8.3293,-8.3293,-8.3351,-8.3955,-8.466,-8.5899,-8.7023,-8.829,-8.9922,-9.0842,-9.1874,-9.1962,-9.1962,-9.1962,-9.1962,-9.1962,-9.1962,-9.1962,-9.1962,-9.1962,-9.1962,-9.1962,-9.1962,-9.1962,-9.1962,-9.1962,-9.1962,-9.1962,-9.1962,-9.2049,-9.3532,-9.4346,-9.5132,-9.6266,-9.7986,-9.9647,-9.9945,-9.9945,-10.0126,-10.0307,-10.0637,-10.0816,-10.0995,-10.1321,-10.2027,-10.2581,-10.2959,-10.3446,-10.3928,-10.4098,-10.4466,-10.4635,-10.497,-10.5137,-10.5469,-10.5799,-10.5964,-10.6291,-10.6485,-10.6648,-10.6809,-10.7292,-10.758,-10.7739,-10.7897,-10.84,-10.8712,-10.9022,-10.9451,-10.9876,-11.0027,-10.9876,-10.9908,-11.0209,-11.0209,-11.0209,-11.0209,-11.0209,-11.0209,-11.0209,-11.0209,-11.0209,-11.0209,-7.2661,-7.3109,-7.3525,-7.382,-7.4113,-7.4433,-7.4579,-7.4724,-7.5013,-7.5699,-7.6955,-7.9041,-8.0545,-8.1816,-8.2999,-8.3063,-8.3293,-8.3449,-8.3293,-8.3136,-8.3136,-8.3449,-8.3605,-8.3605,-8.3916,-8.3916,-8.4071,-8.4071,-8.41,-8.4071,-8.4071,-8.4071,-8.4071,-8.41,-8.4419,-8.5116,-8.6234,-8.748,-8.8524,-9.0109,-9.1009,-9.1874,-9.1932,-9.1962,-9.1962,-9.1962,-9.1962,-9.1962,-9.1962,-9.1962,-9.1962,-9.1962,-9.1962,-9.1962,-9.1962,-9.1962,-9.1962,-9.1962,-9.1962,-9.1962,-9.1962,-9.2514,-9.4405,-9.551,-9.6238,-9.7581,-9.9249,-10.0516,-10.0696,-10.0875,-10.0875,-10.1054,-10.1173,-10.1528,-10.1675,-10.2027,-10.2898,-10.3587,-10.4297,-10.4803,-10.5303,-10.5635,-10.583,-10.6026,-10.6221,-10.619,-10.6516,-10.6679,-10.6809,-10.6971,-10.7132,-10.7132,-10.7132,-10.7421,-10.758,-10.7897,-10.8086,-10.8588,-10.8744,-10.9022,-10.9177,-10.9451,-10.9756,-10.9756,-10.9876,-11.0027,-11.0177,-11.0177,-11.0209,-11.0209,-11.0209,-11.0209,-11.0209,-11.0209,-11.0209,-7.3673,-7.4405,-7.5099,-7.5386,-7.5529,-7.57,-7.5842,-7.5813,-7.5955,-7.7368,-7.9659,-8.0941,-8.2262,-8.3926,-8.4394,-8.4562,-8.4533,-8.4379,-8.4225,-8.4379,-8.4562,-8.4533,-8.4533,-8.4686,-8.4715,-8.4868,-8.4898,-8.4898,-8.5021,-8.4868,-8.4715,-8.4562,-8.465,-8.4787,-8.5418,-8.5912,-8.7076,-8.9024,-8.9442,-9.0653,-9.1729,-9.1932,-9.1962,-9.1962,-9.1962,-9.1962,-9.1962,-9.1962,-9.1962,-9.1962,-9.1962,-9.1962,-9.1962,-9.1962,-9.1962,-9.1962,-9.1962,-9.1962,-9.1962,-9.2101,-9.2268,-9.2845,-9.4278,-9.5971,-9.6674,-9.902,-10.0907,-10.1025,-10.1381,-10.1558,-10.1558,-10.1911,-10.2057,-10.2551,-10.2868,-10.3213,-10.3928,-10.4604,-10.5273,-10.5799,-10.6159,-10.6485,-10.6679,-10.6872,-10.6841,-10.6841,-10.7132,-10.7261,-10.7421,-10.7421,-10.758,-10.7548,-10.7548,-10.7548,-10.7707,-10.7897,-10.8244,-10.84,-10.8588,-10.8712,-10.8868,-10.9177,-10.933,-10.9604,-10.9724,-10.9876,-11.0177,-11.0177,-11.0209,-11.0209,-11.0209,-11.0209,-11.0209,-11.0209,-11.0209,-7.4667,-7.5671,-7.6407,-7.6856,-7.6827,-7.6827,-7.6827,-7.6856,-7.7537,-7.9567,-8.1917,-8.2886,-8.4023,-8.5571,-8.5867,-8.5777,-8.5777,-8.5626,-8.5777,-8.5626,-8.5476,-8.5324,-8.5476,-8.5354,-8.5354,-8.5535,-8.5535,-8.5354,-8.5354,-8.5354,-8.5354,-8.5079,-8.5637,-8.5835,-8.6098,-8.741,-8.8255,-8.9664,-9.0556,-9.1704,-9.2377,-9.2297,-9.2268,-9.2268,-9.2268,-9.2435,-9.2435,-9.2268,-9.2268,-9.2268,-9.2268,-9.2268,-9.2268,-9.2239,-9.2268,-9.2268,-9.2435,-9.2435,-9.2435,-9.2602,-9.2739,-9.3346,-9.4493,-9.5839,-9.7745,-10.0253,-10.1645,-10.1705,-10.1881,-10.2232,-10.2407,-10.2755,-10.3101,-10.3757,-10.4267,-10.4604,-10.5137,-10.5604,-10.626,-10.6616,-10.7002,-10.7002,-10.7163,-10.7163,-10.7292,-10.7421,-10.758,-10.7707,-10.7548,-10.7548,-10.7707,-10.7707,-10.7707,-10.7707,-10.7707,-10.7865,-10.7897,-10.8055,-10.8212,-10.84,-10.8712,-10.8712,-10.8681,-10.9145,-10.9451,-10.9756,-10.9876,-11.0059,-11.0209,-11.0209,-11.0209,-11.0209,-11.0209,-11.0177,-11.0177,-7.5813,-7.6518,-7.6966,-7.744,-7.7637,-7.7745,-7.7745,-7.7863,-8.0105,-8.22,-8.356,-8.497,-8.5956,-8.6725,-8.6965,-8.6788,-8.667,-8.6523,-8.6523,-8.6047,-8.6225,-8.6076,-8.5956,-8.5685,-8.5956,-8.5656,-8.5685,-8.5986,-8.5685,-8.5836,-8.6016,-8.5594,-8.6538,-8.7357,-8.7534,-8.8882,-8.9862,-9.0915,-9.1888,-9.2717,-9.3011,-9.307,-9.3235,-9.307,-9.307,-9.307,-9.307,-9.3235,-9.3235,-9.3235,-9.3235,-9.307,-9.307,-9.307,-9.307,-9.307,-9.2905,-9.2934,-9.31,-9.3265,-9.3235,-9.415,-9.5537,-9.7087,-9.8815,-10.115,-10.2658,-10.3071,-10.3071,-10.3243,-10.3587,-10.3928,-10.4436,-10.5106,-10.5573,-10.5902,-10.6423,-10.694,-10.7421,-10.7739,-10.777,-10.7643,-10.7643,-10.7452,-10.7421,-10.7548,-10.7707,-10.7707,-10.7707,-10.7707,-10.7707,-10.7707,-10.7707,-10.7707,-10.7707,-10.7707,-10.7707,-10.7707,-10.7865,-10.8023,-10.8212,-10.8212,-10.8023,-10.8525,-10.9022,-10.9298,-10.9604,-10.9756,-10.9908,-11.0059,-11.0177,-11.0209,-11.0177,-11.0177,-11.0177,-7.6966,-7.7794,-7.8096,-7.8503,-7.8966,-7.913,-7.913,-7.9474,-8.132,-8.2699,-8.3897,-8.5541,-8.6738,-8.7573,-8.7725,-8.7549,-8.7434,-8.7434,-8.7288,-8.7142,-8.7142,-8.6995,-8.6995,-8.6995,-8.6848,-8.6995,-8.6995,-8.673,-8.7025,-8.7055,-8.706,-8.7208,-8.7743,-8.856,-8.9459,-9.0361,-9.145,-9.2262,-9.2986,-9.3445,-9.3727,-9.3564,-9.3564,-9.34,-9.3235,-9.3235,-9.3235,-9.3235,-9.3235,-9.3235,-9.3235,-9.34,-9.34,-9.34,-9.34,-9.34,-9.34,-9.3564,-9.3564,-9.3891,-9.4559,-9.5647,-9.7381,-9.8895,-10.0722,-10.2206,-10.3272,-10.4297,-10.4267,-10.4436,-10.4939,-10.5273,-10.5933,-10.6454,-10.6747,-10.7198,-10.7548,-10.8055,-10.8369,-10.8681,-10.8557,-10.84,-10.8086,-10.7897,-10.7707,-10.7707,-10.7707,-10.7707,-10.7707,-10.7707,-10.7548,-10.7548,-10.7548,-10.7548,-10.7707,-10.7707,-10.7707,-10.7707,-10.7548,-10.7548,-10.7707,-10.7707,-10.7865,-10.8055,-10.84,-10.8868,-10.9177,-10.9298,-10.9604,-10.9724,-11.0027,-11.0027,-11.0059,-11.0027,-11.0177,-7.8096,-7.8906,-7.904,-7.9367,-7.9925,-8.0157,-8.0157,-8.04,-8.234,-8.3439,-8.4203,-8.6185,-8.7559,-8.8157,-8.8188,-8.8188,-8.8188,-8.8188,-8.8188,-8.8044,-8.7869,-8.79,-8.79,-8.7725,-8.7725,-8.7755,-8.7755,-8.761,-8.7755,-8.7755,-8.8038,-8.8555,-8.8616,-8.9629,-9.066,-9.1722,-9.2695,-9.3481,-9.418,-9.4419,-9.4509,-9.4509,-9.4509,-9.4347,-9.4347,-9.4347,-9.4347,-9.4186,-9.4186,-9.4186,-9.4024,-9.4024,-9.4053,-9.4024,-9.4024,-9.4024,-9.4053,-9.4053,-9.4216,-9.4509,-9.531,-9.6794,-9.9318,-10.1177,-10.2652,-10.3795,-10.4482,-10.497,-10.5334,-10.5769,-10.6229,-10.6585,-10.6908,-10.7421,-10.7897,-10.818,-10.8493,-10.8836,-10.8991,-10.9145,-10.9177,-10.8868,-10.8244,-10.7897,-10.7707,-10.7707,-10.7707,-10.7707,-10.7707,-10.7548,-10.7421,-10.7421,-10.7261,-10.7132,-10.7261,-10.7421,-10.7421,-10.758,-10.7421,-10.7421,-10.7548,-10.7707,-10.7707,-10.7865,-10.8055,-10.8369,-10.8868,-10.9022,-10.9177,-10.9451,-10.9724,-10.9756,-10.9756,-10.9876,-10.9876,-7.8906,-7.9306,-7.9763,-7.9925,-8.0057,-8.0486,-8.0744,-8.1087,-8.3667,-8.4896,-8.5172,-8.7644,-8.8717,-8.887,-8.8901,-8.8901,-8.8901,-8.8901,-8.8617,-8.8474,-8.8474,-8.8188,-8.8044,-8.8044,-8.8014,-8.8014,-8.8044,-8.8188,-8.79,-8.8044,-8.8044,-8.8324,-8.9147,-8.9909,-9.0901,-9.1923,-9.3231,-9.4017,-9.4682,-9.5165,-9.5437,-9.5625,-9.5467,-9.5309,-9.5309,-9.5309,-9.5309,-9.5309,-9.5467,-9.5467,-9.5595,-9.5625,-9.5625,-9.5783,-9.5783,-9.5625,-9.5625,-9.5467,-9.5497,-9.5739,-9.6594,-9.84,-10.1089,-10.3386,-10.4853,-10.5253,-10.5799,-10.5995,-10.6322,-10.694,-10.7389,-10.7707,-10.7897,-10.8369,-10.8836,-10.9145,-10.9451,-10.9451,-10.9451,-10.9483,-10.933,-10.8868,-10.8212,-10.7897,-10.7707,-10.7707,-10.7548,-10.7548,-10.7389,-10.7261,-10.7132,-10.7132,-10.6971,-10.671,-10.671,-10.6841,-10.7002,-10.7132,-10.7132,-10.7292,-10.7421,-10.758,-10.7548,-10.7707,-10.7707,-10.7865,-10.84,-10.8557,-10.8712,-10.9022,-10.9298,-10.9298,-10.933,-10.9451,-10.9876,-7.9733,-7.9965,-8.0096,-8.0226,-8.0486,-8.0744,-8.0841,-8.1364,-8.3729,-8.551,-8.6493,-8.8121,-8.9042,-8.9042,-8.9042,-8.9042,-8.9042,-8.9042,-8.8901,-8.8901,-8.879,-8.879,-8.8617,-8.8617,-8.8444,-8.8586,-8.8617,-8.8617,-8.8474,-8.8648,-8.8648,-8.878,-8.9611,-9.0079,-9.0534,-9.1354,-9.2567,-9.4029,-9.476,-9.5461,-9.6101,-9.6253,-9.6097,-9.594,-9.5783,-9.5783,-9.5783,-9.5783,-9.5783,-9.5783,-9.5783,-9.5783,-9.5783,-9.5783,-9.5783,-9.5783,-9.5783,-9.5783,-9.6274,-9.6736,-9.8582,-10.0155,-10.2227,-10.4378,-10.5818,-10.6291,-10.6648,-10.7132,-10.7292,-10.7739,-10.8337,-10.8525,-10.8836,-10.9113,-10.9451,-10.9572,-10.9724,-10.9604,-10.9604,-10.9298,-10.9177,-10.8525,-10.7897,-10.7865,-10.7707,-10.7548,-10.7421,-10.7421,-10.7261,-10.6971,-10.6679,-10.6679,-10.671,-10.6547,-10.6516,-10.6384,-10.6516,-10.6679,-10.6841,-10.6841,-10.7132,-10.7452,-10.758,-10.758,-10.7707,-10.7707,-10.8055,-10.8244,-10.84,-10.8712,-10.8868,-10.8868,-10.8899,-10.9177,-10.9604,-8.0127,-8.0326,-8.0425,-8.0713,-8.1224,-8.1255,-8.1533,-8.2212,-8.3847,-8.5668,-8.7334,-8.8677,-8.9293,-8.9293,-8.9293,-8.9214,-8.9183,-8.9183,-8.9042,-8.9042,-8.9042,-8.9042,-8.9042,-8.8901,-8.9042,-8.9042,-8.9042,-8.8901,-8.9042,-8.8932,-8.9073,-8.9165,-8.9494,-8.987,-8.9962,-9.0604,-9.1552,-9.36,-9.4547,-9.525,-9.6412,-9.6595,-9.6595,-9.6284,-9.6253,-9.6253,-9.6253,-9.6253,-9.6253,-9.6223,-9.6253,-9.6253,-9.6253,-9.6253,-9.6253,-9.6253,-9.6253,-9.6253,-9.6776,-9.8683,-10.0663,-10.2369,-10.4081,-10.5453,-10.6591,-10.6809,-10.7452,-10.7897,-10.8212,-10.8525,-10.9054,-10.924,-10.9611,-10.9884,-10.9884,-11.0036,-10.9876,-10.9756,-10.9451,-10.9177,-10.8868,-10.84,-10.7897,-10.7707,-10.7707,-10.7548,-10.758,-10.7421,-10.7261,-10.7002,-10.671,-10.6547,-10.6547,-10.6353,-10.619,-10.5861,-10.5861,-10.6159,-10.6322,-10.6516,-10.6841,-10.7163,-10.7292,-10.7452,-10.758,-10.7707,-10.7897,-10.7897,-10.8086,-10.8244,-10.8212,-10.8212,-10.8588,-10.8868,-10.9298,-8.0326,-8.0295,-8.0713,-8.1224,-8.1854,-8.1854,-8.2601,-8.3817,-8.4218,-8.5804,-8.8292,-8.9474,-9.0065,-8.9927,-8.9712,-8.9603,-8.9603,-8.9324,-8.9073,-8.9183,-8.9183,-8.9073,-8.9073,-8.9183,-8.9183,-8.9042,-8.9042,-8.9042,-8.9042,-8.9042,-8.9042,-8.9165,-8.9368,-8.946,-8.9227,-9.0302,-9.1653,-9.3097,-9.4356,-9.5585,-9.6537,-9.6874,-9.6874,-9.6874,-9.672,-9.672,-9.672,-9.672,-9.672,-9.672,-9.672,-9.672,-9.672,-9.6874,-9.6874,-9.6874,-9.7028,-9.7028,-9.7212,-10.0423,-10.241,-10.3935,-10.537,-10.6627,-10.7326,-10.7739,-10.8055,-10.8712,-10.9277,-10.9432,-10.9675,-10.986,-11.0293,-11.0509,-11.0509,-11.0445,-10.9852,-10.9451,-10.9177,-10.8744,-10.8588,-10.8244,-10.7897,-10.7707,-10.7707,-10.7707,-10.7707,-10.758,-10.7421,-10.7132,-10.6841,-10.6679,-10.6516,-10.6353,-10.619,-10.5665,-10.55,-10.5604,-10.5933,-10.6128,-10.6322,-10.6648,-10.6809,-10.7132,-10.7261,-10.7389,-10.758,-10.7739,-10.7897,-10.7897,-10.7865,-10.7897,-10.8244,-10.8588,-10.8868,-8.132,-8.1351,-8.1477,-8.1948,-8.2443,-8.2535,-8.3351,-8.4669,-8.5704,-8.7713,-9.0255,-9.06,-9.0716,-9.0444,-9.0339,-9.0202,-8.985,-8.9603,-8.9464,-8.9464,-8.9464,-8.9495,-8.9464,-8.9603,-8.9573,-8.9495,-8.9464,-8.9183,-8.9183,-8.9042,-8.9042,-8.9183,-8.9433,-8.9542,-8.9805,-9.016,-9.108,-9.2544,-9.3742,-9.4663,-9.6813,-9.7028,-9.7028,-9.7028,-9.7028,-9.7028,-9.7028,-9.7028,-9.7028,-9.7028,-9.7028,-9.7028,-9.7028,-9.7028,-9.7182,-9.7366,-9.7549,-9.7701,-9.8225,-10.0141,-10.21,-10.4628,-10.6349,-10.7454,-10.8055,-10.8525,-10.8963,-10.9458,-11.0443,-11.1141,-11.1481,-11.2181,-11.2406,-11.1538,-11.1473,-11.0622,-11.0027,-10.9208,-10.8744,-10.8432,-10.8244,-10.7897,-10.7707,-10.7707,-10.7707,-10.7897,-10.7739,-10.7421,-10.7421,-10.7261,-10.7002,-10.6809,-10.6485,-10.6322,-10.6322,-10.6026,-10.6026,-10.5964,-10.5933,-10.5964,-10.5933,-10.5933,-10.6097,-10.6648,-10.6971,-10.71,-10.7421,-10.758,-10.7707,-10.7707,-10.7707,-10.7707,-10.8055,-10.8244,-10.8557,-8.2228,-8.232,-8.2811,-8.3174,-8.3654,-8.4226,-8.5244,-8.6643,-8.8105,-8.9885,-9.1753,-9.1684,-9.1419,-9.1285,-9.112,-9.0851,-9.0475,-9.0096,-8.985,-8.9881,-8.9712,-8.9743,-8.9881,-8.985,-8.9989,-8.985,-8.9743,-8.9603,-8.9433,-8.9433,-8.9433,-8.9433,-8.9819,-8.9927,-8.9927,-9.0068,-9.1414,-9.2797,-9.3723,-9.4864,-9.6901,-9.7518,-9.7518,-9.7366,-9.7366,-9.7212,-9.7059,-9.7028,-9.7028,-9.7028,-9.7028,-9.7028,-9.7028,-9.7212,-9.7549,-9.7701,-9.7853,-9.8315,-9.9239,-10.0851,-10.2689,-10.5348,-10.7202,-10.84,-10.8836,-10.9145,-10.9643,-11.0654,-11.1545,-11.2284,-11.2946,-11.388,-11.4206,-11.3119,-11.2161,-11.1146,-11.0229,-10.9186,-10.8527,-10.8086,-10.7865,-10.7707,-10.7707,-10.7707,-10.7897,-10.7897,-10.758,-10.7261,-10.7421,-10.7261,-10.7261,-10.71,-10.6971,-10.6809,-10.6679,-10.6516,-10.6353,-10.6159,-10.5933,-10.5933,-10.5769,-10.5738,-10.5933,-10.6128,-10.6485,-10.6971,-10.7261,-10.7421,-10.7548,-10.7707,-10.7707,-10.7707,-10.7707,-10.7897,-10.8244,-8.3022,-8.3143,-8.4244,-8.4774,-8.5147,-8.6405,-8.7823,-8.9249,-9.0596,-9.17,-9.2762,-9.2632,-9.2535,-9.2405,-9.208,-9.1684,-9.1285,-9.0851,-9.058,-9.0339,-9.0096,-9.0233,-9.0339,-9.037,-9.0339,-9.0202,-9.037,-9.0233,-9.0096,-9.0233,-9.0202,-9.0202,-9.0339,-9.0202,-9.0202,-9.0264,-9.1433,-9.2739,-9.3901,-9.5423,-9.7069,-9.8062,-9.7974,-9.7853,-9.7701,-9.7549,-9.7028,-9.7028,-9.7028,-9.7028,-9.7028,-9.7028,-9.7182,-9.7518,-9.7822,-9.8005,-9.8306,-9.9266,-10.0879,-10.256,-10.4587,-10.6374,-10.7887,-10.8991,-10.9298,-10.9604,-11.0494,-11.1795,-11.2406,-11.3268,-11.4014,-11.4592,-11.4917,-11.3895,-11.2715,-11.157,-11.03,-10.9192,-10.8244,-10.7928,-10.7707,-10.7897,-10.7897,-10.8055,-10.8212,-10.84,-10.8055,-10.8055,-10.7897,-10.7897,-10.7897,-10.7739,-10.7421,-10.7292,-10.7163,-10.7002,-10.6841,-10.6648,-10.6454,-10.6097,-10.5933,-10.5933,-10.5964,-10.6322,-10.6648,-10.6809,-10.6971,-10.7261,-10.7421,-10.7548,-10.7707,-10.7897,-10.7897,-10.8055,-10.8244,-8.4594,-8.5004,-8.5347,-8.6077,-8.705,-8.7407,-8.903,-9.1237,-9.1789,-9.2698,-9.358,-9.3746,-9.3621,-9.3368,-9.3114,-9.2858,-9.2341,-9.1917,-9.1653,-9.1419,-9.1285,-9.1285,-9.1285,-9.1583,-9.1583,-9.1285,-9.1317,-9.1017,-9.1017,-9.1183,-9.1583,-9.1748,-9.1317,-9.1183,-9.1151,-9.0976,-9.0725,-9.2069,-9.3458,-9.5154,-9.672,-9.7808,-9.8213,-9.8155,-9.8005,-9.7671,-9.7518,-9.7212,-9.7028,-9.7028,-9.7028,-9.7366,-9.7518,-9.7853,-9.8005,-9.8487,-9.8824,-10.0092,-10.2462,-10.4276,-10.6252,-10.7637,-10.8804,-10.9145,-10.9604,-10.994,-11.0789,-11.2245,-11.3017,-11.4146,-11.5495,-11.649,-11.5942,-11.4918,-11.3512,-11.1951,-11.0522,-10.9128,-10.8212,-10.7865,-10.7897,-10.7928,-10.8212,-10.8557,-10.8712,-10.8868,-10.8868,-10.8712,-10.8712,-10.8712,-10.8712,-10.8525,-10.8244,-10.8086,-10.796,-10.777,-10.7292,-10.7132,-10.6971,-10.6809,-10.6485,-10.6322,-10.6159,-10.6485,-10.6841,-10.6971,-10.7292,-10.7292,-10.7261,-10.7739,-10.8055,-10.8055,-10.8086,-10.8244,-10.8432,-8.5798,-8.623,-8.6884,-8.7604,-8.8421,-8.9697,-9.1169,-9.2457,-9.3175,-9.3894,-9.4425,-9.4523,-9.4244,-9.3996,-9.3996,-9.3621,-9.3242,-9.2954,-9.273,-9.2471,-9.2373,-9.2373,-9.2503,-9.2664,-9.2664,-9.2373,-9.2242,-9.1917,-9.2179,-9.2503,-9.2664,-9.2405,-9.2143,-9.198,-9.1583,-9.1285,-9.0986,-9.1479,-9.2847,-9.4867,-9.6505,-9.8089,-9.8786,-9.8668,-9.8337,-9.8187,-9.8005,-9.7701,-9.7518,-9.7518,-9.7518,-9.7701,-9.8005,-9.8187,-9.8487,-9.8997,-9.9584,-10.1395,-10.4088,-10.5312,-10.6789,-10.7989,-10.8712,-10.9022,-10.9298,-10.97,-11.0341,-11.2514,-11.3508,-11.4759,-11.6326,-11.7217,-11.6893,-11.5958,-11.4618,-11.2991,-11.1306,-10.9694,-10.8401,-10.8149,-10.8086,-10.8557,-10.8991,-10.9022,-10.9022,-10.9177,-10.9145,-10.9145,-10.9177,-10.9177,-10.9177,-10.9177,-10.8868,-10.8744,-10.8557,-10.8432,-10.7928,-10.777,-10.7611,-10.7132,-10.6841,-10.6679,-10.6516,-10.6547,-10.7002,-10.7323,-10.7643,-10.777,-10.8086,-10.8086,-10.8212,-10.8369,-10.8557,-10.8712,-10.8868,-8.6779,-8.6844,-8.8215,-8.8971,-8.953,-9.1897,-9.318,-9.3423,-9.454,-9.5131,-9.4922,-9.4922,-9.4768,-9.4523,-9.4368,-9.4244,-9.3872,-9.3746,-9.3653,-9.3401,-9.3433,-9.3401,-9.3401,-9.3433,-9.3401,-9.3274,-9.3146,-9.3274,-9.3527,-9.3401,-9.3274,-9.3019,-9.2632,-9.2405,-9.2111,-9.1848,-9.1583,-9.1506,-9.2379,-9.4362,-9.6674,-9.8611,-9.9073,-9.9082,-9.8965,-9.8636,-9.8487,-9.8306,-9.8155,-9.8306,-9.8306,-9.8337,-9.8487,-9.8817,-9.8997,-9.9646,-10.083,-10.2892,-10.5095,-10.6163,-10.7108,-10.8179,-10.8588,-10.8744,-10.9022,-10.9304,-11.0165,-11.2684,-11.3098,-11.4181,-11.6059,-11.7142,-11.7063,-11.6293,-11.5009,-11.3516,-11.2026,-11.0293,-10.9128,-10.8844,-10.862,-10.9022,-10.9604,-10.9451,-10.933,-10.9451,-10.9572,-10.9451,-10.9483,-10.9451,-10.9451,-10.9451,-10.933,-10.9177,-10.9022,-10.8712,-10.8588,-10.8432,-10.796,-10.7452,-10.7292,-10.7163,-10.7033,-10.6841,-10.7163,-10.7483,-10.8118,-10.8432,-10.8744,-10.8712,-10.8712,-10.8868,-10.9177,-10.9145,-10.9298,-8.7037,-8.7061,-8.8326,-8.9497,-9.0714,-9.2423,-9.3706,-9.4725,-9.5087,-9.5185,-9.5164,-9.5131,-9.5164,-9.501,-9.501,-9.4889,-9.4678,-9.4523,-9.44,-9.4153,-9.412,-9.412,-9.412,-9.412,-9.412,-9.4029,-9.3996,-9.4277,-9.4433,-9.4153,-9.3996,-9.3746,-9.3274,-9.3051,-9.2794,-9.2405,-9.2012,-9.1779,-9.1994,-9.3313,-9.5684,-9.8076,-9.9524,-9.9346,-9.9114,-9.8934,-9.8786,-9.8636,-9.8487,-9.8487,-9.8487,-9.8487,-9.8786,-9.8965,-9.9584,-10.0917,-10.23,-10.3962,-10.5598,-10.6762,-10.7801,-10.8369,-10.8712,-10.8868,-10.9022,-10.9027,-10.9723,-11.1283,-11.2429,-11.386,-11.5151,-11.6229,-11.6632,-11.6136,-11.4989,-11.3634,-11.2404,-11.1243,-11.0205,-10.9538,-10.9368,-10.9604,-11.0027,-11.0059,-11.0059,-11.0177,-11.0027,-10.9908,-10.9908,-10.9908,-10.9756,-10.9756,-10.9756,-10.9604,-10.9451,-10.9177,-10.9022,-10.8899,-10.84,-10.8086,-10.7928,-10.777,-10.7611,-10.7611,-10.777,-10.8118,-10.8588,-10.9054,-10.9177,-10.9177,-10.9022,-10.9177,-10.9604,-10.9908,-11.0027,-8.7144,-8.7202,-8.8546,-8.9379,-9.0122,-9.147,-9.2522,-9.3245,-9.3936,-9.4232,-9.4429,-9.4955,-9.5284,-9.5284,-9.5284,-9.5164,-9.5043,-9.5043,-9.4889,-9.4735,-9.4735,-9.4735,-9.4735,-9.4768,-9.4768,-9.4768,-9.4768,-9.4889,-9.501,-9.4645,-9.4523,-9.44,-9.4029,-9.3686,-9.3306,-9.2922,-9.2503,-9.2143,-9.2007,-9.2974,-9.5586,-9.6471,-9.8359,-9.902,-9.9377,-9.923,-9.923,-9.8934,-9.8934,-9.8934,-9.8934,-9.9051,-9.9198,-9.9418,-10.0226,-10.2199,-10.3206,-10.4465,-10.648,-10.7393,-10.8055,-10.8086,-10.8244,-10.8369,-10.8369,-10.84,-10.8685,-10.9762,-11.106,-11.3086,-11.4116,-11.5935,-11.6632,-11.6431,-11.5957,-11.5049,-11.3751,-11.2488,-11.1507,-11.0611,-11.0187,-11.0132,-11.0606,-11.0722,-11.0658,-11.0625,-11.0625,-11.0509,-11.0359,-11.0209,-11.0059,-11.0059,-11.0059,-10.9908,-10.9908,-10.9604,-10.933,-10.933,-10.9022,-10.8712,-10.8588,-10.8557,-10.8369,-10.8369,-10.8525,-10.8868,-10.9177,-10.9483,-10.9636,-10.9756,-10.9908,-11.0059,-11.0359,-11.0658,-11.0774,-8.7463,-8.7383,-8.8732,-8.914,-8.9182,-9.0499,-9.119,-9.1207,-9.2686,-9.3147,-9.3443,-9.4593,-9.5284,-9.5284,-9.5284,-9.5284,-9.5284,-9.5284,-9.5251,-9.5131,-9.5131,-9.5131,-9.5131,-9.5131,-9.5131,-9.5284,-9.5251,-9.5131,-9.5164,-9.5043,-9.4922,-9.48,-9.4523,-9.412,-9.3811,-9.3433,-9.3019,-9.2535,-9.2306,-9.3377,-9.5199,-9.6199,-9.7101,-9.9418,-9.9492,-9.9492,-9.9492,-9.9492,-9.9492,-9.9492,-9.9492,-9.9492,-9.9492,-9.9492,-10.0688,-10.2419,-10.3332,-10.4591,-10.6606,-10.7455,-10.7676,-10.7707,-10.7707,-10.7707,-10.7707,-10.7739,-10.796,-10.8622,-11.0009,-11.1932,-11.3436,-11.5609,-11.6568,-11.6895,-11.6809,-11.6499,-11.5359,-11.4342,-11.3544,-11.2806,-11.1513,-11.0875,-11.0961,-11.1078,-11.0968,-11.0921,-11.0774,-11.0625,-11.0509,-11.0509,-11.0359,-11.0327,-11.0359,-11.0359,-11.0327,-11.0027,-10.9908,-10.9756,-10.9451,-10.933,-10.9177,-10.9177,-10.9177,-10.9298,-10.9451,-10.9636,-10.9756,-10.9876,-11.0177,-11.0509,-11.0774,-11.0921,-11.1069,-11.1069,-11.1362,-8.8093,-8.8157,-8.9131,-8.947,-8.9371,-9.056,-9.0974,-9.1075,-9.2522,-9.2982,-9.3443,-9.4626,-9.5284,-9.5284,-9.5284,-9.5284,-9.5284,-9.5284,-9.5284,-9.5284,-9.5284,-9.5284,-9.5284,-9.5284,-9.5284,-9.5284,-9.5284,-9.5284,-9.5251,-9.5251,-9.5164,-9.5164,-9.4922,-9.4678,-9.4433,-9.4029,-9.3527,-9.3179,-9.2794,-9.3712,-9.5768,-9.6372,-9.746,-9.9392,-9.9816,-9.9638,-9.9492,-9.9492,-9.9492,-9.9492,-9.9492,-9.9492,-9.9492,-9.9555,-10.0311,-10.1664,-10.308,-10.4465,-10.6039,-10.7109,-10.7707,-10.7707,-10.7707,-10.7707,-10.7707,-10.7707,-10.7707,-10.799,-10.8368,-10.9883,-11.2543,-11.5017,-11.6578,-11.723,-11.7396,-11.6728,-11.5809,-11.5816,-11.5687,-11.5139,-11.3525,-11.2326,-11.2026,-11.1595,-11.131,-11.1036,-11.0921,-11.0774,-11.0658,-11.0658,-11.0476,-11.0476,-11.0625,-11.0774,-11.0774,-11.0625,-11.0476,-11.0327,-11.0027,-10.9756,-10.9636,-10.9451,-10.9451,-10.9756,-11.0059,-11.0359,-11.0509,-11.0949,-11.113,-11.1069,-11.1394,-11.1557,-11.167,-11.1653,-11.1941,-8.8534,-8.8296,-8.8655,-8.8673,-8.8485,-8.8973,-8.9162,-8.9404,-9.1172,-9.2079,-9.2423,-9.4363,-9.5251,-9.5284,-9.5284,-9.5284,-9.5284,-9.5284,-9.5284,-9.5284,-9.5284,-9.5284,-9.5284,-9.5284,-9.5284,-9.5284,-9.5284,-9.5284,-9.5284,-9.5251,-9.5284,-9.5284,-9.5164,-9.5043,-9.48,-9.4556,-9.4061,-9.3527,-9.3211,-9.4269,-9.6239,-9.6614,-9.7644,-9.9791,-10.0106,-9.967,-9.9492,-9.9492,-9.9492,-9.9492,-9.9492,-9.9492,-9.9492,-9.9524,-10.0153,-10.1412,-10.2829,-10.4245,-10.563,-10.692,-10.7707,-10.7707,-10.7707,-10.7707,-10.7707,-10.7707,-10.7707,-10.7707,-10.7928,-10.9,-11.2231,-11.4707,-11.6371,-11.7409,-11.7925,-11.7865,-11.7195,-11.6359,-11.5997,-11.6288,-11.5061,-11.4124,-11.3317,-11.2662,-11.2198,-11.1712,-11.153,-11.0638,-11.0638,-11.0625,-11.0625,-11.0774,-11.0921,-11.1069,-11.1183,-11.1183,-11.0921,-11.0774,-11.0327,-11.0209,-10.9908,-10.9908,-10.9724,-11.0059,-11.0359,-11.0658,-11.1375,-11.2158,-11.2533,-11.2485,-11.2581,-11.2353,-11.2498,-11.2773,-11.2884,-8.8836,-8.8534,-8.8433,-8.8126,-8.7745,-8.7641,-8.7463,-8.7508,-9.0176,-9.1418,-9.175,-9.4002,-9.5185,-9.5284,-9.5284,-9.5284,-9.5284,-9.5284,-9.5284,-9.5284,-9.5284,-9.5284,-9.5284,-9.5284,-9.5284,-9.5284,-9.5284,-9.5284,-9.5284,-9.5284,-9.5284,-9.5284,-9.5284,-9.5164,-9.4922,-9.48,-9.4556,-9.3996,-9.3527,-9.4594,-9.6262,-9.6732,-9.7899,-9.9962,-10.0203,-10.0042,-9.9638,-9.9492,-9.9492,-9.9492,-9.9492,-9.9492,-9.9492,-9.9492,-9.9933,-10.1066,-10.2545,-10.4119,-10.5315,-10.6669,-10.7707,-10.7707,-10.7707,-10.7707,-10.7707,-10.7707,-10.7707,-10.7707,-10.7739,-10.8937,-11.1437,-11.3602,-11.5235,-11.6488,-11.7357,-11.7582,-11.7486,-11.6417,-11.6341,-11.6698,-11.6212,-11.5532,-11.5158,-11.4237,-11.3147,-11.2358,-11.1681,-11.066,-11.052,-11.0509,-11.0625,-11.0774,-11.0921,-11.1069,-11.1216,-11.1362,-11.1216,-11.1069,-11.0774,-11.0625,-11.0359,-11.0209,-11.0027,-11.0209,-11.0658,-11.1292,-11.201,-11.2794,-11.3921,-11.397,-11.3952,-11.4229,-11.4229,-11.3947,-11.4058,-8.9363,-8.9265,-8.9068,-8.8635,-8.8229,-8.8126,-8.792,-8.7961,-9.0365,-9.1366,-9.1913,-9.4087,-9.5185,-9.5284,-9.5284,-9.5284,-9.5284,-9.5284,-9.5284,-9.5284,-9.5284,-9.5284,-9.5284,-9.5284,-9.5284,-9.5284,-9.5284,-9.5284,-9.5284,-9.5284,-9.5284,-9.5284,-9.5284,-9.5284,-9.5131,-9.4922,-9.48,-9.4556,-9.4029,-9.4558,-9.5884,-9.7009,-9.7989,-9.9411,-10.0121,-10.0187,-9.9784,-9.9492,-9.9492,-9.9492,-9.9492,-9.9492,-9.9492,-9.9492,-9.9713,-10.0279,-10.2262,-10.3773,-10.4308,-10.6448,-10.7707,-10.7707,-10.7707,-10.7707,-10.7707,-10.7707,-10.7707,-10.7707,-10.7707,-10.8463,-11.0103,-11.2044,-11.3832,-11.4917,-11.5319,-11.5254,-11.5228,-11.625,-11.7021,-11.7118,-11.743,-11.7423,-11.7066,-11.5913,-11.4399,-11.3414,-11.239,-11.124,-11.0617,-11.0573,-11.0658,-11.0806,-11.0921,-11.1069,-11.1216,-11.1362,-11.1362,-11.1216,-11.1069,-11.0921,-11.0625,-11.0359,-11.0359,-11.0476,-11.0921,-11.1458,-11.2598,-11.3806,-11.5049,-11.5425,-11.5917,-11.6081,-11.6129,-11.5373,-11.5432,-8.9592,-8.9363,-8.9265,-8.9068,-8.8769,-8.8669,-8.8433,-8.8521,-9.0845,-9.1846,-9.2026,-9.4322,-9.5338,-9.5284,-9.5284,-9.5284,-9.5284,-9.5284,-9.5284,-9.5284,-9.5284,-9.5284,-9.5284,-9.5284,-9.5284,-9.5284,-9.5284,-9.5284,-9.5284,-9.5284,-9.5284,-9.5284,-9.5284,-9.5284,-9.5251,-9.5131,-9.5043,-9.48,-9.4433,-9.4678,-9.5818,-9.6947,-9.813,-9.9102,-10.0025,-10.0505,-9.9929,-9.9638,-9.9492,-9.9492,-9.9492,-9.9492,-9.9492,-9.9492,-9.987,-10.0688,-10.2482,-10.4056,-10.5,-10.6574,-10.7644,-10.7707,-10.7707,-10.7707,-10.7707,-10.7707,-10.7707,-10.7707,-10.7707,-10.8022,-10.8874,-11.0649,-11.2555,-11.3853,-11.3253,-11.2942,-11.3479,-11.4957,-11.618,-11.7151,-11.802,-11.8604,-11.8255,-11.7183,-11.5636,-11.4221,-11.3196,-11.1787,-11.0628,-11.067,-11.0658,-11.0774,-11.1069,-11.1069,-11.1216,-11.1216,-11.1216,-11.1362,-11.1216,-11.1036,-11.0774,-11.0476,-11.0476,-11.0625,-11.1069,-11.1899,-11.3496,-11.4902,-11.6048,-11.7116,-11.7708,-11.7773,-11.6951,-11.6195,-11.6731,-8.9689,-8.9558,-8.9592,-8.9397,-8.9201,-8.9167,-8.8869,-8.8802,-9.1447,-9.2321,-9.2444,-9.4522,-9.5576,-9.5371,-9.5251,-9.5284,-9.5284,-9.5284,-9.5284,-9.5284,-9.5284,-9.5284,-9.5284,-9.5284,-9.5284,-9.5284,-9.5284,-9.5284,-9.5284,-9.5284,-9.5284,-9.5164,-9.5164,-9.5131,-9.501,-9.501,-9.4922,-9.4678,-9.4244,-9.4548,-9.5397,-9.6657,-9.7969,-9.8685,-10.0007,-10.0474,-10.0106,-9.9816,-9.9492,-9.9492,-9.9492,-9.9492,-9.9492,-9.9492,-10.0059,-10.1318,-10.2829,-10.4245,-10.5598,-10.6983,-10.7644,-10.7707,-10.7707,-10.7739,-10.758,-10.7548,-10.7421,-10.7421,-10.7421,-10.7611,-10.7896,-10.935,-11.1058,-11.245,-11.1626,-11.109,-11.2026,-11.3622,-11.4852,-11.6018,-11.7761,-11.8506,-11.8478,-11.796,-11.7215,-11.548,-11.4035,-11.2527,-11.1368,-11.094,-11.0509,-11.0774,-11.0774,-11.1069,-11.1069,-11.1069,-11.1069,-11.1216,-11.1069,-11.0889,-11.0625,-11.0476,-11.0625,-11.0774,-11.1069,-11.255,-11.4264,-11.5573,-11.7132,-11.8398,-11.9023,-11.9483,-11.8464,-11.7987,-11.8593,-8.9751,-8.9785,-8.9785,-8.9655,-8.9363,-8.9363,-8.9167,-8.9342,-9.1658,-9.2754,-9.3031,-9.4786,-9.5694,-9.5576,-9.5371,-9.5284,-9.5284,-9.5284,-9.5284,-9.5284,-9.5284,-9.5284,-9.5284,-9.5284,-9.5284,-9.5284,-9.5284,-9.5251,-9.5284,-9.5131,-9.5164,-9.4922,-9.48,-9.4678,-9.449,-9.4368,-9.44,-9.4368,-9.3996,-9.3779,-9.4103,-9.627,-9.7583,-9.734,-9.9356,-10.0505,-10.0106,-9.967,-9.9492,-9.9492,-9.9492,-9.9346,-9.9492,-9.9524,-10.0122,-10.1451,-10.286,-10.4123,-10.5693,-10.692,-10.758,-10.7548,-10.7548,-10.7548,-10.7292,-10.7132,-10.7002,-10.6841,-10.7002,-10.7132,-10.7292,-10.8181,-10.903,-10.9341,-10.9739,-11.0004,-11.0467,-11.1994,-11.3147,-11.3881,-11.5872,-11.7748,-11.7593,-11.8474,-11.796,-11.68,-11.5228,-11.3654,-11.2366,-11.1175,-11.0585,-11.0327,-11.0327,-11.0476,-11.0476,-11.0476,-11.0476,-11.0625,-11.0625,-11.0476,-11.0327,-11.0476,-11.0625,-11.0774,-11.1263,-11.3137,-11.4672,-11.5754,-11.7165,-11.8957,-12.0108,-12.0864,-12.0917,-12.0574,-12.0807,-8.9785,-8.9785,-8.9785,-8.9751,-8.9655,-8.9689,-8.9558,-8.9706,-9.2248,-9.3148,-9.3216,-9.5244,-9.6047,-9.5694,-9.5371,-9.5251,-9.5284,-9.5284,-9.5284,-9.5284,-9.5284,-9.5284,-9.5284,-9.5284,-9.5284,-9.5284,-9.5284,-9.5131,-9.5043,-9.4922,-9.48,-9.4523,-9.449,-9.4368,-9.4244,-9.4244,-9.4244,-9.4244,-9.3872,-9.3621,-9.4203,-9.6238,-9.7321,-9.7133,-9.9324,-10.0267,-9.9816,-9.9377,-9.923,-9.9082,-9.8903,-9.8754,-9.8754,-9.8817,-9.9785,-10.1597,-10.2722,-10.3909,-10.5971,-10.669,-10.6971,-10.7002,-10.7002,-10.6841,-10.6841,-10.6679,-10.671,-10.6547,-10.6841,-10.7132,-10.7132,-10.7928,-10.8432,-10.8712,-10.8899,-10.9022,-10.9675,-11.0885,-11.1776,-11.2502,-11.4008,-11.5131,-11.5836,-11.674,-11.7062,-11.6062,-11.5679,-11.5168,-11.2946,-11.1916,-11.1046,-11.0435,-11.0284,-11.0068,-10.9972,-10.9908,-10.9908,-11.0059,-11.0027,-11.0027,-11.0027,-11.0327,-11.0476,-11.0476,-11.0774,-11.2516,-11.5013,-11.603,-11.7344,-11.9168,-12.081,-12.1226,-12.1411,-12.1596,-12.2015,-8.9785,-8.9785,-8.9785,-8.9785,-8.9785,-8.9785,-9.0058,-9.0544,-9.279,-9.3804,-9.4044,-9.5894,-9.6361,-9.5812,-9.5457,-9.5371,-9.5284,-9.5284,-9.5284,-9.5284,-9.5284,-9.5284,-9.5284,-9.5284,-9.5284,-9.5284,-9.5284,-9.5164,-9.4922,-9.48,-9.4523,-9.4153,-9.412,-9.3996,-9.3872,-9.4029,-9.4029,-9.3904,-9.3621,-9.3785,-9.4399,-9.6365,-9.7276,-9.7305,-9.9234,-10.0074,-9.9346,-9.9082,-9.8786,-9.8786,-9.8487,-9.8337,-9.8337,-9.8337,-9.9612,-10.2007,-10.2442,-10.3655,-10.605,-10.6547,-10.6547,-10.6547,-10.6547,-10.6547,-10.6322,-10.6322,-10.6159,-10.619,-10.6679,-10.6971,-10.7002,-10.7802,-10.8244,-10.8244,-10.8432,-10.8712,-10.9118,-11.0038,-11.058,-11.1114,-11.2201,-11.3126,-11.3604,-11.4788,-11.5111,-11.4341,-11.4758,-11.479,-11.3059,-11.2578,-11.1937,-11.0839,-11.0308,-11.0155,-10.9707,-10.9451,-10.933,-10.933,-10.9451,-10.9604,-10.9756,-10.9876,-11.0027,-11.0177,-11.0625,-11.1991,-11.4649,-11.6416,-11.7797,-11.9389,-12.0624,-12.1105,-12.1291,-12.1596,-12.2015,-8.9887,-8.9887,-8.9785,-8.9785,-8.9785,-8.9921,-9.0802,-9.2001,-9.3435,-9.4726,-9.5524,-9.6597,-9.6739,-9.6163,-9.5812,-9.5457,-9.5251,-9.5284,-9.5284,-9.5317,-9.5383,-9.5415,-9.5284,-9.5415,-9.5481,-9.5284,-9.5284,-9.5164,-9.48,-9.4678,-9.4433,-9.3872,-9.3779,-9.3621,-9.3306,-9.3433,-9.3433,-9.3433,-9.3433,-9.395,-9.5399,-9.6486,-9.7461,-9.8388,-9.9457,-9.967,-9.8934,-9.8965,-9.8668,-9.8337,-9.8306,-9.8337,-9.8187,-9.8187,-9.9519,-10.1602,-10.2411,-10.3748,-10.605,-10.6291,-10.6384,-10.6384,-10.6384,-10.619,-10.5799,-10.5769,-10.5604,-10.55,-10.6026,-10.6516,-10.6679,-10.7292,-10.7739,-10.7739,-10.7928,-10.8432,-10.8712,-10.9054,-10.9086,-10.9217,-11.0139,-11.1124,-11.1442,-11.2556,-11.329,-11.3194,-11.3417,-11.329,-11.278,-11.2652,-11.2302,-11.1283,-11.0614,-11.0201,-10.9596,-10.8991,-10.8744,-10.8744,-10.8868,-10.9177,-10.9298,-10.9451,-10.9604,-10.9756,-11.0059,-11.0778,-11.3396,-11.5376,-11.6982,-11.9465,-12.023,-12.1105,-12.1411,-12.1714,-12.2164,-9.2303,-9.1314,-9.0324,-8.9785,-8.9887,-9.0939,-9.1689,-9.2372,-9.4659,-9.5816,-9.6215,-9.6995,-9.7079,-9.651,-9.593,-9.5457,-9.5251,-9.5284,-9.5284,-9.535,-9.6237,-9.6172,-9.5547,-9.6237,-9.6172,-9.5383,-9.5284,-9.4977,-9.4523,-9.4277,-9.3904,-9.3433,-9.3401,-9.3433,-9.3306,-9.3306,-9.3306,-9.3306,-9.3306,-9.3982,-9.5431,-9.6449,-9.7557,-9.8515,-9.909,-9.9082,-9.8636,-9.8337,-9.8036,-9.7853,-9.7701,-9.7366,-9.7396,-9.7396,-9.8321,-10.0049,-10.1067,-10.2425,-10.4122,-10.5203,-10.5635,-10.5665,-10.5665,-10.55,-10.5469,-10.5303,-10.5303,-10.5303,-10.5635,-10.5964,-10.6128,-10.6485,-10.6841,-10.7002,-10.7002,-10.7163,-10.7323,-10.7292,-10.7292,-10.7546,-10.8114,-10.859,-10.8907,-11.0332,-11.1125,-11.1283,-11.2524,-11.2716,-11.2015,-11.1793,-11.1506,-11.1124,-11.0713,-11.0269,-10.992,-10.8813,-10.8212,-10.8338,-10.8557,-10.8868,-10.9022,-10.9177,-10.933,-10.933,-10.9643,-11.0301,-11.1722,-11.3881,-11.6359,-11.9393,-12.0577,-12.0919,-12.1378,-12.1714,-12.1865,-9.3771,-9.2884,-9.1894,-9.1485,-9.1621,-9.2508,-9.3225,-9.3873,-9.5784,-9.6773,-9.7106,-9.745,-9.7303,-9.6591,-9.6047,-9.5609,-9.5251,-9.5284,-9.5284,-9.5383,-9.6172,-9.6139,-9.5383,-9.6172,-9.6073,-9.535,-9.5251,-9.4856,-9.4244,-9.3872,-9.3495,-9.3306,-9.3306,-9.3306,-9.3306,-9.3306,-9.3306,-9.3306,-9.3306,-9.4143,-9.5876,-9.6572,-9.7283,-9.8094,-9.8623,-9.8636,-9.8187,-9.7853,-9.7671,-9.7549,-9.7212,-9.7028,-9.7028,-9.7028,-9.7642,-9.8963,-9.9885,-10.099,-10.2311,-10.3263,-10.3908,-10.4369,-10.4461,-10.4584,-10.5045,-10.5168,-10.5168,-10.5334,-10.5604,-10.5604,-10.5604,-10.5964,-10.6159,-10.6353,-10.6353,-10.6547,-10.6547,-10.6547,-10.6547,-10.6547,-10.6679,-10.6971,-10.7543,-10.8334,-10.9061,-10.9218,-11.0419,-11.0959,-11.0583,-11.0965,-11.1123,-11.0617,-11.0427,-11.0138,-10.9785,-10.8582,-10.7762,-10.7863,-10.7928,-10.8086,-10.84,-10.84,-10.8712,-10.8868,-10.9022,-10.9618,-11.0405,-11.2502,-11.5895,-11.8631,-12.0201,-12.0699,-12.0886,-12.1563,-12.1714,-9.4521,-9.4556,-9.4453,-9.4214,-9.4283,-9.4248,-9.4999,-9.5784,-9.6467,-9.7216,-9.7989,-9.8006,-9.7414,-9.6625,-9.6312,-9.5845,-9.5371,-9.5284,-9.5284,-9.5284,-9.5448,-9.5383,-9.5284,-9.5317,-9.535,-9.5284,-9.5284,-9.4889,-9.4244,-9.3904,-9.3527,-9.3306,-9.3306,-9.3306,-9.3306,-9.3306,-9.3306,-9.3306,-9.3306,-9.4465,-9.6444,-9.6422,-9.6604,-9.7352,-9.8268,-9.8362,-9.7853,-9.7701,-9.7518,-9.7028,-9.7028,-9.7028,-9.7028,-9.7028,-9.7612,-9.8748,-9.9055,-9.97,-10.0837,-10.1236,-10.1789,-10.2895,-10.314,-10.3663,-10.4738,-10.4891,-10.4983,-10.5168,-10.5315,-10.5449,-10.5273,-10.5438,-10.5769,-10.5769,-10.6159,-10.6384,-10.6384,-10.6384,-10.6384,-10.6384,-10.6384,-10.6353,-10.6353,-10.6384,-10.6672,-10.692,-10.7636,-10.8681,-10.9009,-10.9979,-11.0269,-10.9906,-10.9623,-10.946,-10.8547,-10.7956,-10.7551,-10.7309,-10.7163,-10.7132,-10.7452,-10.7611,-10.8086,-10.8432,-10.8557,-10.8871,-10.9564,-11.1626,-11.4692,-11.6643,-11.8301,-11.9507,-11.9269,-12.07,-12.072,-9.7047,-9.6091,-9.5955,-9.4726,-9.2918,-9.3873,-9.3941,-9.3634,-9.5648,-9.6705,-9.6902,-9.7633,-9.7525,-9.6625,-9.6047,-9.5576,-9.5251,-9.5284,-9.5284,-9.5383,-9.6336,-9.627,-9.5448,-9.627,-9.627,-9.5383,-9.5251,-9.4856,-9.4244,-9.3653,-9.3401,-9.3306,-9.3306,-9.3306,-9.3306,-9.3306,-9.3306,-9.3306,-9.3306,-9.4015,-9.5063,-9.4543,-9.4851,-9.6297,-9.6479,-9.6832,-9.7151,-9.7212,-9.7212,-9.7028,-9.7028,-9.7028,-9.7028,-9.7028,-9.7182,-9.7642,-9.8502,-9.927,-9.9577,-10.056,-10.1267,-10.1605,-10.1697,-10.228,-10.3417,-10.3785,-10.4185,-10.483,-10.4442,-10.435,-10.4953,-10.5303,-10.5303,-10.5303,-10.5469,-10.55,-10.55,-10.55,-10.5531,-10.55,-10.5665,-10.55,-10.55,-10.5799,-10.5964,-10.5964,-10.6664,-10.7076,-10.7364,-10.7613,-10.8143,-10.8775,-10.8806,-10.8267,-10.7263,-10.7036,-10.7045,-10.6578,-10.6547,-10.6679,-10.6679,-10.6841,-10.7033,-10.7802,-10.7643,-10.7896,-10.8685,-10.9919,-11.2238,-11.3604,-11.5158,-11.6522,-11.7154,-11.7199,-11.7503,-9.6535,-9.5682,-9.5648,-9.4624,-9.3225,-9.3941,-9.3805,-9.3157,-9.483,-9.5818,-9.6151,-9.593,-9.5748,-9.5529,-9.5035,-9.493,-9.5251,-9.5284,-9.5284,-9.535,-9.6106,-9.6073,-9.5383,-9.6172,-9.6106,-9.5317,-9.5131,-9.4768,-9.4244,-9.3746,-9.3433,-9.3274,-9.3146,-9.3019,-9.3019,-9.2922,-9.2922,-9.2954,-9.2922,-9.3048,-9.3452,-9.3417,-9.3661,-9.445,-9.4696,-9.5296,-9.6045,-9.6199,-9.6475,-9.6997,-9.6874,-9.6905,-9.7028,-9.6874,-9.6905,-9.709,-9.7827,-9.8257,-9.8257,-9.8994,-9.967,-10.0223,-10.0253,-10.0868,-10.2219,-10.2373,-10.2649,-10.3263,-10.2833,-10.2925,-10.4123,-10.44,-10.4584,-10.5075,-10.5168,-10.5168,-10.5168,-10.5168,-10.5168,-10.5168,-10.5168,-10.5168,-10.5168,-10.5303,-10.5438,-10.5635,-10.5665,-10.6088,-10.619,-10.6159,-10.6695,-10.7316,-10.7337,-10.68,-10.6273,-10.6026,-10.6026,-10.6026,-10.6159,-10.6159,-10.6322,-10.6353,-10.671,-10.7163,-10.7132,-10.7452,-10.8086,-10.935,-11.0713,-11.1601,-11.3027,-11.4491,-11.5047,-11.5473,-11.4639,-9.4419,-9.4317,-9.4385,-9.4317,-9.4248,-9.4112,-9.3907,-9.3671,-9.3742,-9.4523,-9.5232,-9.3378,-9.3031,-9.3739,-9.343,-9.3875,-9.4955,-9.5054,-9.512,-9.5251,-9.5284,-9.5284,-9.5284,-9.5284,-9.5251,-9.5131,-9.5043,-9.4678,-9.4244,-9.3872,-9.3527,-9.3274,-9.289,-9.273,-9.2632,-9.2535,-9.2274,-9.2306,-9.2143,-9.2012,-9.1647,-9.2473,-9.2614,-9.1976,-9.2962,-9.3761,-9.4636,-9.4728,-9.5249,-9.6383,-9.6137,-9.6167,-9.6291,-9.6198,-9.6198,-9.6445,-9.6629,-9.669,-9.6721,-9.6813,-9.7642,-9.8717,-9.8902,-9.9485,-10.0745,-10.0775,-10.0585,-10.0799,-10.0769,-10.1382,-10.2639,-10.2885,-10.3283,-10.4142,-10.4541,-10.4983,-10.4922,-10.5106,-10.5168,-10.5168,-10.5168,-10.5168,-10.5168,-10.5168,-10.5168,-10.5168,-10.5334,-10.55,-10.5604,-10.5769,-10.5892,-10.6088,-10.5727,-10.5365,-10.5365,-10.5168,-10.5334,-10.5303,-10.5438,-10.5604,-10.5769,-10.5995,-10.6516,-10.6648,-10.6778,-10.71,-10.7863,-10.9002,-11.0077,-11.0364,-11.138,-11.3002,-11.3729,-11.4246,-11.3221,-9.4351,-9.4317,-9.4317,-9.4317,-9.4214,-9.3088,-9.183,-9.0616,-9.1737,-9.2079,-9.1662,-9.0719,-9.0917,-9.1908,-9.1667,-9.2375,-9.3476,-9.3607,-9.4232,-9.5185,-9.5284,-9.5284,-9.5284,-9.5284,-9.5131,-9.4922,-9.4922,-9.4556,-9.3872,-9.3746,-9.3368,-9.289,-9.2503,-9.2405,-9.2405,-9.2437,-9.2274,-9.2274,-9.1151,-9.0507,-9.037,-9.0407,-9.0702,-9.1172,-9.1109,-9.1674,-9.2508,-9.2629,-9.2781,-9.3055,-9.2934,-9.3086,-9.3086,-9.2934,-9.2934,-9.3177,-9.4059,-9.4637,-9.4667,-9.5829,-9.6873,-9.7489,-9.752,-9.8072,-9.924,-9.8124,-9.7405,-9.8348,-9.8561,-9.9109,-10.0356,-10.066,-10.0946,-10.1517,-10.2434,-10.3241,-10.3755,-10.4553,-10.5168,-10.5168,-10.5168,-10.5137,-10.5168,-10.5168,-10.5168,-10.5168,-10.5168,-10.5168,-10.5303,-10.5303,-10.5303,-10.5334,-10.5334,-10.5168,-10.5168,-10.5168,-10.5168,-10.5168,-10.5303,-10.5303,-10.5303,-10.5334,-10.5665,-10.5964,-10.6097,-10.6423,-10.7132,-10.7797,-10.8274,-10.8907,-10.9382,-10.9855,-11.0544,-11.0821,-10.9969,-9.2269,-9.2269,-9.2269,-9.2303,-9.2235,-9.1416,-9.0404,-8.9499,-8.9914,-8.9847,-8.9161,-8.8699,-8.9129,-9.0374,-9.0103,-9.0779,-9.2193,-9.2851,-9.3574,-9.433,-9.4835,-9.5043,-9.501,-9.4889,-9.4768,-9.4523,-9.4309,-9.3936,-9.3527,-9.3179,-9.2762,-9.2341,-9.2143,-9.1848,-9.1552,-9.1317,-9.1285,-9.1183,-9.0065,-8.9511,-8.9511,-8.9262,-8.9349,-8.9739,-8.9481,-8.9714,-9.0571,-9.0632,-9.0904,-9.1326,-9.1081,-9.1081,-9.1356,-9.1081,-9.1081,-9.1386,-9.205,-9.2442,-9.278,-9.357,-9.4546,-9.5524,-9.6074,-9.6589,-9.7003,-9.589,-9.5421,-9.6144,-9.6234,-9.6776,-9.8265,-9.858,-9.8985,-9.9888,-10.0782,-10.1433,-10.175,-10.2299,-10.291,-10.349,-10.3581,-10.3825,-10.4405,-10.4635,-10.4864,-10.4864,-10.5001,-10.5168,-10.5168,-10.5168,-10.5168,-10.5168,-10.5168,-10.5168,-10.5168,-10.5168,-10.5168,-10.5168,-10.5168,-10.5168,-10.5168,-10.5168,-10.5303,-10.5604,-10.5738,-10.6097,-10.694,-10.7132,-10.7452,-10.7928,-10.8086,-10.8244,-10.8712,-10.8712,-10.84,-8.9819,-8.9785,-8.9785,-8.9751,-8.9785,-8.9751,-8.9558,-8.9265,-8.8534,-8.8023,-8.7712,-8.7251,-8.7764,-8.881,-8.8622,-8.9333,-9.0714,-9.1847,-9.2537,0.0,-9.3939,-9.4506,-9.4384,-9.427,-9.412,-9.3996,-9.3401,-9.3179,-9.3051,-9.2535,-9.2012,-9.1583,-9.1552,-9.1151,-9.0444,-9.0065,-8.9788,-8.965,-8.9091,-8.8809,-8.8667,-8.8383,-8.824,-8.8097,-8.7755,-8.7977,-8.8736,-8.8646,-8.9126,-8.9872,-8.9559,-8.9559,-8.9808,-8.9499,-8.9559,-8.9808,-8.9957,-9.0414,-9.078,-9.0961,-9.1899,-9.3231,-9.4626,-9.4848,-9.3917,-9.3888,-9.3977,-9.4156,-9.4083,-9.4663,-9.5841,-9.6214,-9.6931,-9.8117,-9.8899,-9.9409,-9.9573,-9.9846,-10.0422,-10.1453,-10.1574,-10.2059,-10.329,-10.3793,-10.4192,-10.4497,-10.4864,-10.5001,-10.5001,-10.5001,-10.5168,-10.5168,-10.5168,-10.5168,-10.5168,-10.5168,-10.5168,-10.5168,-10.5168,-10.5168,-10.5168,-10.5168,-10.5334,-10.5604,-10.5604,-10.5933,-10.6616,-10.6971,-10.7132,-10.7421,-10.7421,-10.7611,-10.7928,-10.8118,-10.7802,-8.9785,-8.9785,-8.9785,-8.9689,-8.9461,-8.9461,-8.9363,-8.9034,0.0,0.0,0.0,-8.7144,-8.7094,-8.7141,-8.7141,-8.782,-8.9201,-8.9172,-8.9747,-9.0959,-9.2109,-9.2398,-9.2154,-9.3321,-9.3495,-9.2986,-9.2569,-9.2179,-9.198,-9.1552,-9.112,-9.0851,-9.0413,-9.014,-8.9788,-8.9402,-8.8667,-8.7809,-8.7664,-8.7374,-8.7082,-8.7082,-8.6788,-8.6523,-8.6523,-8.6344,-8.6102,-8.6132,-8.6221,-8.6458,-8.6336,-8.6336,-8.6458,-8.6336,-8.6336,-8.6517,-8.7464,-8.8057,-8.824,-8.9529,-9.0369,-9.0608,-9.2145,-9.2387,-9.0932,-9.1096,-9.1536,-9.2348,-9.2435,-9.2661,-9.3228,-9.3258,-9.3678,-9.4678,-9.5855,-9.6842,-9.7559,-9.8567,-9.9291,-10.0149,-10.021,-10.0725,-10.1999,-10.2181,-10.2713,-10.3685,-10.4236,-10.4726,-10.4726,-10.4665,-10.4574,-10.4878,-10.5137,-10.5168,-10.5168,-10.5168,-10.5168,-10.5168,-10.5168,-10.5168,-10.5168,-10.5168,-10.5168,-10.5334,-10.5334,-10.5469,-10.5933,-10.6097,-10.6128,-10.6679,-10.671,-10.6679,-10.6841,-10.6841,-10.6809,-8.9397,0.0,-8.9363,-8.9363,0.0,-8.9034,-8.8735,-8.816,-8.785,-8.743,-8.7037,-8.6929,-8.6713,-8.6385,-8.6418,-8.6668,-8.7019,-8.7622,-8.8191,-8.8673,-8.9589,-8.9867,-8.9776,-9.0232,-9.0205,-8.9821,-8.9304,-8.9043,-8.8842,-8.8935,-8.8871,-8.8522,-8.9001,-8.9091,-8.8698,-8.8586,-8.7839,-8.6374,-8.6374,-8.6225,-8.6076,-8.6076,-8.6076,-8.5806,0.0,0.0,0.0,0.0,0.0,0.0,0.0,0.0,0.0,0.0,0.0,-8.2694,-8.3068,-8.3418,-8.3599,-8.5044,-8.6224,-8.7025,-8.8514,-8.8325,-8.5978,-8.7262,-8.8499,-8.9455,-8.9569,-9.0026,-9.097,-9.1397,-9.1764,-9.2435,-9.3297,-9.4013,-9.4736,-9.5406,-9.6256,-9.7321,-9.7501,-9.8009,-9.9296,-9.9753,-10.0631,-10.2006,-10.2817,-10.3428,-10.3976,-10.3472,-10.3047,-10.349,-10.4176,-10.4864,-10.4864,-10.5031,-10.5168,-10.5168,-10.5168,-10.5168,-10.5168,-10.5168,-10.5168,-10.5168,-10.5168,-10.5303,-10.5604,-10.5738,-10.5933,-10.6353,-10.6547,-10.6043,-10.4038,-10.4378,-10.4872,-8.8869,-8.8869,-8.8869,-8.8869,-8.8769,-8.8331,-8.7816,-8.7218,-8.7218,-8.7004,-8.6821,-8.6527,-8.6275,-8.5877,-8.5765,-8.554,-8.5004,-8.6231,-8.6512,-8.6276,-8.7016,-8.7313,-8.7313,-8.6967,-8.6677,-8.6579,-8.609,-8.5727,-8.5758,-8.6032,-8.6002,-8.5846,-8.6849,-8.7081,-8.6824,0.0,0.0,0.0,-8.5357,-8.5354,-8.5354,-8.5324,-8.5354,-8.5324,-8.5324,0.0,-8.4745,-8.4745,-8.4321,-8.3569,-8.3569,0.0,0.0,0.0,0.0,0.0,0.0,0.0,0.0,0.0,0.0,0.0,-8.3779,-8.3251,-8.135,-8.3072,-8.4983,-8.6388,-8.6557,-8.735,-8.8656,-8.9142,-8.9771,-9.0284,-9.0852,-9.1334,-9.2042,-9.2268,-9.2786,-9.4514,-9.4799,-9.5301,-9.6681,-9.7397,-9.8409,-9.9634,-10.0583,-10.1373,-10.2278,-10.1184,-10.0812,-10.1179,-10.2241,-10.3597,-10.3962,-10.4482,-10.4741,-10.4633,-10.4602,-10.4449,-10.4338,-10.4308,-10.4338,-10.4277,-10.4369,-10.4473,-10.477,-10.4832,-10.4841,-10.5415,-10.5384,-10.4602,-10.1765,-10.2065,-10.2833,-8.8331,-8.8331,-8.8331,-8.8229,-8.792,-8.6863,-8.6352,-8.6242,-8.6021,-8.5942,-8.5863,-8.546,-8.5314,-8.5201,-8.4709,-8.4413,-8.4297,-8.3996,-8.3884,-8.3859,-8.451,-8.4762,-8.4474,-8.5337,-8.5502,-8.5164,-8.4761,-8.449,-8.4248,-8.3988,-8.3663,-8.3273,-8.314,-8.2945,-8.2975,-8.2545,-8.2818,-8.3794,-8.4643,-8.4745,-8.4409,-8.4379,-8.4379,-8.4409,-8.4409,-8.4225,-8.3732,-8.3703,-8.3086,-8.1586,-8.15,-8.0926,-7.972,-7.9304,-7.9067,0.0,-7.8498,0.0,0.0,0.0,0.0,0.0,0.0,0.0,0.0,-7.9368,-8.1076,-8.3733,-8.4298,-8.4696,-8.5347,-8.5517,-8.6137,-8.7522,-8.7834,-8.8631,-9.06,-9.0915,-9.1314,-9.264,-9.2837,-9.3473,-9.5212,-9.5587,-9.6229,-9.7413,-9.7991,-9.7961,-9.7656,-9.7939,-9.819,-9.819,-9.9213,-10.0635,-10.1878,-10.3138,-10.3611,-10.294,-10.2696,-10.2464,-10.1781,-10.1758,-10.1697,-10.1697,-10.182,-10.1758,-10.1635,-10.1858,-10.1827,-10.195,-10.1889,-10.1612,-10.1052,-10.1144,-10.139,-8.6031,-8.6201,-8.6926,-8.584,-8.3505,-8.2993,-8.3337,-8.4227,-8.4003,-8.4343,-8.4792,-8.3905,-8.279,-8.1627,-8.1861,-8.1822,-8.1557,-8.1944,-8.2072,-8.2041,-8.2065,-8.2088,-8.1892,-8.2054,-8.1963,-8.1727,-8.1159,-8.0857,-8.0811,-8.1147,-8.1225,-8.1114,-8.1685,-8.073,-7.8607,-7.9135,-7.9921,-8.0505,-8.249,-8.368,-8.3887,-8.3887,-8.3732,-8.3605,-8.3478,-8.3449,-8.3264,-8.2603,-8.1816,-8.1117,-8.0276,-7.9181,-7.7954,-7.6468,-7.5316,0.0,0.0,0.0,0.0,0.0,0.0,0.0,0.0,0.0,0.0,0.0,-7.6677,0.0,-8.0551,-8.1958,-8.3079,-8.3334,-8.3727,-8.4626,-8.4854,-8.5421,-8.6869,-8.7068,-8.7863,-8.9736,-8.9991,-9.065,-9.2403,-9.2887,-9.3383,-9.4808,-9.4198,-9.3732,-9.359,-9.4545,-9.5297,-9.5868,-9.691,-9.8131,-9.9345,-10.0481,-10.0998,-10.0786,-10.086,-10.0873,-10.0458,-10.0499,-10.0468,-10.06,-10.0761,-10.0792,-10.1113,-10.1113,-10.1113,-10.0898,-9.9915,-9.8963,-9.884,-9.9424,-9.9977,-8.3351,-8.3449,-8.4091,-8.2327,-7.9361,-7.9361,-8.0224,-8.1327,-8.1473,-8.1819,-8.2509,-8.1492,-7.9981,-7.8041,-7.8624,-7.8632,-7.826,-7.939,-7.9905,-7.9838,-7.9622,-7.9642,-7.9774,-7.9143,-7.8906,-7.8772,-7.8203,-7.7764,-7.7657,-7.8411,-7.8799,-7.8658,-7.8987,-7.76,-7.4757,-7.6217,-7.7311,-7.7598,-7.9972,-8.1736,-8.2931,-8.3277,-8.3264,-8.2979,-8.3008,-8.2707,-8.2207,-8.1166,-8.0214,-7.9463,-7.8374,-7.6855,-7.5183,-7.3313,0.0,0.0,0.0,0.0,0.0,0.0,0.0,0.0,0.0,-6.8101,-6.9502,0.0,-7.252,0.0,-7.6701,-7.8712,-8.004,-8.0322,0.0,0.0,-8.1737,-8.2194,-8.3161,-8.3361,-8.441,-8.6701,-8.7013,-8.7835,-8.98,-9.0284,-9.08,-9.1317,-9.0371,-8.9857,-9.0486,-9.1548,-9.244,-9.3186,-9.4228,-9.536,-9.651,-9.7446,-9.8146,-9.8282,-9.8674,-9.8943,-9.861,-9.858,-9.8743,-9.92,-9.92,-9.9331,-9.972,-9.9941,-9.9781,-9.953,-9.8189,-9.672,-9.675,-9.7702,-9.8438,-8.0795,-8.0225,-7.8728,-7.7661,-7.7116,-7.7387,-7.7718,-7.7811,-7.8111,-7.8204,-7.7879,-7.7785,-7.7151,-7.5991,-7.53,0.0,-7.4785,-7.5796,-7.639,-7.6816,-7.7503,-7.7901,-7.8308,-7.799,-7.7745,-7.7411,-7.7273,-7.6856,-7.6154,-7.6241,-7.6128,-7.5672,-7.3328,-7.2133,-7.2337,-7.3779,-7.5258,-7.6864,-7.7416,-7.8974,-8.1203,-8.2406,-8.2979,-8.2979,-8.2692,-8.1677,-8.0257,-7.9745,-7.8051,-7.5133,-7.4912,-7.3447,-7.0393,0.0,0.0,0.0,0.0,0.0,0.0,0.0,0.0,0.0,0.0,0.0,0.0,0.0,0.0,0.0,-7.3403,0.0,-7.5237,-7.5707,0.0,0.0,0.0,-7.9203,-8.0773,-8.1412,-8.2144,-8.3617,0.0,0.0,-8.7977,0.0,-8.7806,-8.6683,-8.6829,-8.7339,-8.8461,-8.8981,-8.9591,-9.014,-9.0629,-9.1634,-9.3219,-9.4253,-9.5073,-9.5804,-9.6137,-9.5915,-9.5227,-9.4958,-9.525,-9.5692,-9.5761,-9.5921,-9.6117,-9.6493,-9.6589,-9.586,-9.5777,-9.588,-9.588,-9.6219,-9.6684,-7.6177,-7.373,-7.2137,-7.1325,-7.1115,-7.0604,-7.0961,-7.1835,-7.1954,-7.2408,-7.268,-7.1746,-7.0781,-7.0044,-6.8661,0.0,0.0,0.0,-7.2818,-7.4462,-7.4789,-7.5594,-7.6489,-7.6154,-7.5871,-7.5729,-7.5586,-7.5272,-7.4984,-7.4072,-7.2449,-7.0225,0.0,0.0,-7.0143,-7.1547,-7.2876,-7.4549,-7.5903,-7.742,-7.9122,-8.0243,-8.0607,-8.0477,-7.9943,-7.9065,-7.7681,-7.6276,-7.4623,-7.2727,-7.1326,-6.9557,0.0,0.0,0.0,0.0,0.0,0.0,0.0,0.0,0.0,0.0,0.0,-6.1189,0.0,0.0,0.0,0.0,-6.8653,-6.9726,-7.1916,-7.224,0.0,0.0,0.0,0.0,0.0,0.0,0.0,-7.8953,-8.0225,-8.204,-8.4576,-8.3961,-8.3623,-8.4342,-8.4798,-8.5338,-8.5839,0.0,-8.7305,-8.7854,-8.8676,-8.9675,-9.045,-9.1231,-9.192,-9.263,-9.3166,-9.3297,-9.2993,-9.2905,-9.3206,-9.3668,-9.3994,-9.4186,-9.48,-9.3163,-9.1801,-9.1543,-9.2267,-9.3252,-9.3441,-9.426,-9.515,-7.0275,0.0,0.0,0.0,0.0,-6.4869,-6.5347,-6.6402,-6.6494,-6.6868,-6.7437,-6.6263,0.0,0.0,0.0,0.0,0.0,0.0,-6.8711,-7.0761,-7.1606,-7.268,-7.3731,-7.3502,-7.3215,-7.3043,-7.2754,-7.2436,-7.2179,-6.9625,-6.6912,-6.4377,0.0,0.0,0.0,0.0,-7.0636,-7.2015,-7.3897,-7.5548,-7.678,-7.7364,-7.7718,-7.776,-7.7252,-7.6328,-7.5152,-7.301,-7.1356,-7.0022,-6.7805,0.0,0.0,0.0,0.0,0.0,0.0,0.0,0.0,0.0,0.0,0.0,0.0,0.0,0.0,0.0,0.0,0.0,0.0,0.0,-6.7687,-6.8393,-6.9024,0.0,0.0,0.0,0.0,0.0,0.0,0.0,0.0,0.0,-7.9397,-7.898,-7.9378,0.0,0.0,-8.3203,-8.3706,-8.4307,-8.5033,-8.5611,0.0,0.0,0.0,-8.7883,-8.8401,-8.863,-8.9285,-8.9933,-8.9933,-8.9933,-9.024,-9.1207,-9.1372,-9.1342,-9.1418,-8.9333,-8.7932,-8.7874,-8.8999,-8.9936,-9.0508,-9.1347,-9.2379,0.0,0.0,0.0,0.0,0.0,0.0,0.0,0.0,-6.2198,-6.2226,0.0,-6.1931,0.0,0.0,0.0,0.0,0.0,-6.2253,0.0,0.0,-6.7465,-6.9018,-6.9668,-6.9696,-6.9385,-6.8645,-6.87,-6.8213,-6.7245,-6.2274,0.0,0.0,0.0,0.0,0.0,0.0,-6.8309,-6.9171,-7.1087,-7.2688,-7.3865,-7.3819,-7.4522,-7.5644,-7.4873,-7.3825,-7.2641,-7.0363,-6.8157,-6.6206,-6.461,0.0,0.0,0.0,0.0,0.0,0.0,0.0,0.0,0.0,0.0,0.0,0.0,0.0,0.0,0.0,0.0,0.0,0.0,0.0,0.0,-6.3876,0.0,0.0,0.0,0.0,0.0,0.0,0.0,0.0,0.0,0.0,-7.2369,-7.3577,-7.5559,-7.9049,0.0,0.0,0.0,0.0,-8.2373,-8.2804,-8.3033,-8.3061,-8.3554,-8.4358,-8.4897,-8.4414,0.0,0.0,-8.4927,-8.4899,-8.5488,-8.6847,-8.7127,-8.6489,-8.4899,-8.459,-8.487,-8.5232,-8.573,-8.6289,-8.6926,-8.7579,-8.8181,0.0,0.0,0.0,0.0,0.0,0.0,0.0,0.0,0.0,-5.6442,0.0,-5.5351,0.0,0.0,0.0,0.0,0.0,0.0,0.0,0.0,-6.2222,-6.3697,-6.5474,-6.5474,-6.5754,0.0,-6.5409,-6.3009,0.0,0.0,0.0,0.0,0.0,0.0,0.0,0.0,-6.509,-6.7315,-6.9272,-7.0754,-7.2033,-7.2086,-7.2674,-7.3824,-7.278,-7.1158,-6.8601,-6.6744,-6.4395,0.0,0.0,0.0,0.0,0.0,0.0,0.0,0.0,0.0,0.0,0.0,0.0,0.0,0.0,0.0,0.0,0.0,0.0,0.0,0.0,0.0,0.0,0.0,-6.2227,0.0,0.0,0.0,0.0,0.0,0.0,0.0,0.0,0.0,-6.8568,-7.0928,-7.3509,-7.5691,-7.717,-7.8497,-7.9441,0.0,0.0,0.0,0.0,0.0,0.0,0.0,-8.2815,-8.2494,-8.276,-8.2906,-8.2613,-8.276,-8.3251,-8.4136,0.0,0.0,-7.8269,-7.7697,-7.797,-7.8161,-7.8984,-7.9947,-8.1273,-8.2522,-8.3971,0.0,0.0,0.0,0.0,0.0,0.0,0.0,0.0,0.0,-5.1763,-5.1364,0.0,0.0,0.0,0.0,0.0,0.0,0.0,0.0,0.0,0.0,0.0,-6.0541,-6.0567,0.0,0.0,0.0,0.0,0.0,0.0,0.0,0.0,0.0,0.0,0.0,0.0,-6.2722,-6.5355,-6.7504,-6.915,-7.0068,-7.0121,-7.0488,-7.1247,-7.0326,-6.8516,-6.5659,0.0,0.0,0.0,0.0,0.0,0.0,0.0,0.0,0.0,0.0,0.0,0.0,0.0,0.0,0.0,0.0,0.0,0.0,0.0,0.0,0.0,0.0,0.0,0.0,0.0,-5.8735,0.0,0.0,0.0,0.0,0.0,0.0,0.0,0.0,0.0,0.0,0.0,-7.068,-7.2603,-7.4495,-7.5888,-7.6621,-7.7635,-7.8208,0.0,0.0,0.0,0.0,0.0,0.0,0.0,0.0,0.0,0.0,0.0,0.0,0.0,0.0,-7.7235,-7.3152,-7.2573,-7.2737,-7.3065,0.0,0.0,0.0,0.0,0.0,0.0,0.0,0.0,0.0,0.0,0.0,0.0,0.0,0.0,0.0,0.0,0.0,0.0,-4.6758,0.0,0.0,0.0,0.0,0.0,0.0,0.0,0.0,0.0,0.0,0.0,0.0,0.0,0.0,0.0,0.0,0.0,0.0,0.0,0.0,0.0,0.0,0.0,-6.2867,-6.5854,-6.7669,-6.8227,-6.8201,-6.7907,-6.756,-6.7322,-6.6304,-6.3938,0.0,0.0,0.0,0.0,0.0,0.0,0.0,0.0,0.0,0.0,0.0,0.0,0.0,0.0,0.0,0.0,0.0,0.0,0.0,0.0,0.0,0.0,0.0,0.0,0.0,0.0,-5.5797,-5.7062,-5.7872,0.0,0.0,0.0,0.0,0.0,0.0,0.0,0.0,0.0,0.0,-7.1989,-7.3566,-7.4441,-7.5045,-7.5805,-7.6257,-7.6429,-7.6628,-7.7078,-7.7091,-7.6615,0.0,0.0,0.0,0.0,0.0,0.0,0.0,0.0,0.0,0.0,0.0,0.0,0.0,0.0,0.0,0.0,0.0,0.0,0.0,0.0,0.0,0.0,0.0,0.0,0.0,0.0,0.0,0.0,0.0,0.0,0.0,0.0,0.0,0.0,0.0,0.0,0.0,0.0,0.0,0.0,0.0,0.0,0.0,0.0,0.0,0.0,0.0,0.0,0.0,0.0,0.0,0.0,0.0,0.0,-5.9204,-6.1617,-6.4573,-6.6213,-6.6351,-6.6351,-6.6213,-6.6024,-6.5885,-6.4707,0.0,0.0,0.0,0.0,0.0,0.0,0.0,0.0,0.0,0.0,0.0,0.0,0.0,0.0,0.0,0.0,0.0,0.0,0.0,0.0,0.0,0.0,0.0,0.0,0.0,0.0,0.0,0.0,-5.4768,-5.6203,-5.7263,0.0,0.0,0.0,0.0,0.0,0.0,0.0,0.0,0.0,0.0,-7.0807,-7.2088,-7.2818,-7.3505,-7.468,-7.4985,-7.5011,-7.5561,-7.4684,-7.3768,-7.31,0.0,0.0,0.0,0.0,0.0,0.0,0.0,0.0,0.0,0.0,0.0,0.0,0.0,0.0,0.0,0.0,0.0,0.0,0.0,0.0,0.0,0.0,0.0,0.0,0.0,0.0,0.0,0.0,0.0,0.0,0.0,0.0,0.0,0.0,0.0,0.0,0.0,0.0,0.0,0.0,0.0,0.0,0.0,0.0,0.0,0.0,0.0,0.0,0.0,0.0,0.0,0.0,0.0,-5.7784,-6.0532,-6.3485,-6.5227,-6.5532,-6.5392,-6.5252,-6.5087,-6.4006,-6.2615,0.0,0.0,0.0,0.0,0.0,0.0,0.0,0.0,0.0,0.0,0.0,0.0,0.0,0.0,0.0,0.0,0.0,0.0,0.0,0.0,0.0,0.0,0.0,0.0,0.0,0.0,0.0,0.0,-5.2171,-5.3602,-5.5075,0.0,0.0,0.0,0.0,0.0,0.0,0.0,0.0,0.0,0.0,-6.7757,-6.9094,-6.9916,0.0,0.0,-7.2554,-7.2602,-7.3737,-7.2517,-7.1258,-7.0565,-6.9293,0.0,0.0,0.0,0.0,0.0,0.0,0.0,0.0,0.0,0.0,0.0,0.0,0.0,0.0,0.0,0.0,0.0,0.0,0.0,0.0,0.0,0.0,0.0,0.0,0.0,0.0,0.0,0.0,0.0,0.0,0.0,0.0,0.0,0.0,0.0,0.0,0.0,0.0,0.0,0.0,0.0,0.0,0.0,0.0,0.0,0.0,0.0,0.0,0.0,0.0,0.0,0.0,0.0,-5.9731,-6.2687,-6.4613,-6.5227,-6.4921,-6.4613,-6.4112,-6.2477,-6.0243,0.0,0.0,0.0,0.0,0.0,0.0,0.0,0.0,0.0,0.0,0.0,0.0,0.0,0.0,0.0,0.0,0.0,0.0,0.0,0.0,0.0,0.0,0.0,0.0,0.0,0.0,0.0,0.0,0.0,0.0,0.0,0.0,0.0,0.0,0.0,0.0,0.0,0.0,0.0,0.0,0.0,-6.4641,-6.5622,-6.672,-6.8097,0.0,0.0,-6.9565,-7.1415,-7.031,-6.9065,-6.8201,0.0,0.0,0.0,0.0,0.0,0.0,0.0,0.0,0.0,0.0,0.0,0.0,0.0,0.0,0.0,0.0,0.0,0.0,0.0,0.0,0.0,0.0,0.0,0.0,0.0,0.0,0.0,0.0,0.0,0.0,0.0,0.0,0.0,0.0,0.0,0.0,0.0,0.0,0.0,0.0,0.0,0.0,0.0,0.0,0.0,0.0,0.0,0.0,0.0,0.0,0.0,0.0,0.0,0.0,-5.8808,-6.1882,-6.3464,-6.3609,-6.344,-6.3271,-6.2716,-6.1605,0.0,0.0,0.0,0.0,0.0,0.0,0.0,0.0,0.0,0.0,0.0,0.0,0.0,0.0,0.0,0.0,0.0,0.0,0.0,0.0,0.0,0.0,0.0,0.0,0.0,0.0,0.0,-4.5152,0.0,0.0,0.0,0.0,0.0,0.0,0.0,0.0,0.0,0.0,0.0,0.0,0.0,0.0,-6.1846,-6.3552,-6.4725,-6.5801,0.0,0.0,-6.7725,-6.8521,-6.746,-6.6232,0.0,0.0,0.0,0.0,0.0,0.0,0.0,0.0,0.0,0.0,0.0,0.0,0.0,0.0,0.0,0.0,0.0,0.0,0.0,0.0,0.0,0.0,0.0,0.0,0.0,0.0,0.0,0.0,0.0,0.0,0.0,0.0,0.0,0.0,0.0,0.0,0.0,0.0,0.0,0.0,0.0,0.0,0.0,0.0,0.0,0.0,0.0,0.0,0.0,0.0,0.0,0.0,0.0,0.0,-5.5953,-5.7991,-6.0853,-6.2423,-6.2569,-6.2423,-6.2058,-6.1669,-6.0071,-5.7889,0.0,0.0,0.0,0.0,0.0,0.0,0.0,0.0,0.0,0.0,0.0,0.0,0.0,0.0,0.0,0.0,0.0,0.0,0.0,0.0,0.0,0.0,0.0,0.0,0.0,0.0,0.0,0.0,0.0,0.0,0.0,0.0,0.0,0.0,0.0,0.0,0.0,0.0,0.0,0.0,0.0,0.0,-6.1699,-6.2281,0.0,0.0,0.0,-6.5043,-6.6198,0.0,0.0,0.0,0.0,0.0,0.0,0.0,0.0,0.0,0.0,0.0,0.0,0.0,0.0,0.0,0.0,0.0,0.0,0.0,0.0,0.0,0.0,0.0,0.0,0.0,0.0,0.0,0.0,0.0,0.0,0.0,0.0,0.0,0.0,0.0,0.0,0.0,0.0,0.0,0.0,0.0,0.0,0.0,0.0,0.0,0.0,0.0,0.0,0.0,0.0,0.0,0.0,0.0,0.0,0.0,0.0,0.0,-5.7144,-5.9961,-6.152,-6.2034,-6.1715,-6.1199,-6.0658,-5.8452,-5.6263,0.0,0.0,0.0,0.0,0.0,0.0,0.0,0.0,0.0,0.0,0.0,0.0,0.0,0.0,0.0,0.0,0.0,0.0,0.0,0.0,0.0,0.0,0.0,0.0,0.0,0.0,0.0,0.0,0.0,0.0,0.0,0.0,0.0,0.0,0.0,0.0,0.0,0.0,0.0,0.0,0.0,-5.7852,-5.9871,-6.0205,-6.0875,0.0,0.0,-6.2067,-6.3679,-6.3235,0.0,0.0,0.0,0.0,0.0,0.0,0.0,0.0,0.0,0.0,0.0,0.0,0.0,0.0,0.0,0.0,0.0,0.0,0.0,0.0,0.0,0.0,0.0,0.0,0.0,0.0,0.0,0.0,0.0,0.0,0.0,0.0,0.0,0.0,0.0,0.0,0.0,0.0,0.0,0.0,0.0,0.0,0.0,0.0,0.0,0.0,0.0,0.0,0.0,0.0,0.0,0.0,0.0,0.0,0.0,0.0,-5.5666,-5.8422,-6.016,-6.053,-6.0553,-6.0008,-5.9087,-5.8027,-5.5678,0.0,0.0,0.0,0.0,0.0,0.0,0.0,0.0,0.0,0.0,0.0,0.0,0.0,0.0,0.0,0.0,0.0,0.0,0.0,0.0,0.0,0.0,0.0,0.0,0.0,0.0,0.0,0.0,0.0,0.0,0.0,0.0,0.0,0.0,0.0,0.0,0.0,0.0,0.0,0.0,0.0,-5.6941,-5.8862,-5.9658,0.0,0.0,0.0,0.0,-6.1026,-6.0888,0.0,0.0,0.0,0.0,0.0,0.0,0.0,0.0,0.0,0.0,0.0,0.0,0.0,0.0,0.0,0.0,0.0,0.0,0.0,0.0,0.0,0.0,0.0,0.0,0.0,0.0,0.0,0.0,0.0,0.0,0.0,0.0,0.0,0.0,0.0,0.0,0.0,0.0,0.0,0.0,0.0,0.0,0.0,0.0,0.0,0.0,0.0,0.0,0.0,0.0,0.0,0.0,0.0,0.0,0.0,0.0,-5.4528,-5.7405,-5.8956,-5.9177,-5.9177,-5.8779,-5.7672,-5.6957,-5.4986,0.0,0.0,0.0,0.0,0.0,0.0,0.0,0.0,0.0,0.0,0.0,0.0,0.0,0.0,0.0,0.0,0.0,0.0,0.0,0.0,0.0,0.0,0.0,0.0,0.0,0.0,0.0,0.0,0.0,0.0,0.0,0.0,0.0,0.0,0.0,0.0,0.0,0.0,0.0,0.0,-5.3781,-5.5375,-5.7409,0.0,0.0,0.0,0.0,0.0,0.0,-5.9833,-5.9833,0.0,0.0,0.0,0.0,0.0,0.0,0.0,0.0,0.0,0.0,0.0,0.0,0.0,0.0,0.0,0.0,0.0,0.0,0.0,0.0,0.0,0.0,0.0,0.0,0.0,0.0,0.0,0.0,0.0,0.0,0.0,0.0,0.0,0.0,0.0,0.0,0.0,0.0,0.0,0.0,0.0,0.0,0.0,0.0,0.0,0.0,0.0,0.0,0.0,0.0,0.0,0.0,0.0,0.0,0.0,-5.3418,-5.6203,-5.7737,-5.7737,-5.7737,-5.718,-5.6239,-5.5718,-5.3735,-4.9888,0.0,0.0,0.0,0.0,0.0,0.0,0.0,0.0,0.0,0.0,0.0,0.0,0.0,0.0,0.0,0.0,0.0,0.0,0.0,0.0,0.0,0.0,0.0,0.0,0.0,0.0,0.0,0.0,0.0,0.0,0.0,0.0,0.0,0.0,0.0,0.0,0.0,0.0,0.0,-5.2047,-5.3644,0.0,0.0,0.0,0.0,0.0,0.0,0.0,0.0,-5.8712,0.0,0.0,0.0,0.0,0.0,0.0,0.0,0.0,0.0,0.0,0.0,0.0,0.0,0.0,0.0,0.0,0.0,0.0,0.0,0.0,0.0,0.0,0.0,0.0,0.0,0.0,0.0,0.0,0.0,0.0,0.0,0.0,0.0,0.0,0.0,0.0,0.0,0.0,0.0,0.0,0.0,0.0,0.0,0.0,0.0,0.0,0.0,0.0,0.0,0.0,0.0,0.0,0.0,0.0,0.0,0.0,-5.4252,-5.5718,-5.6037,-5.5899,-5.5355,-5.4788,-5.3853,-5.1561,0.0,0.0,0.0,0.0,0.0,0.0,0.0,0.0,0.0,0.0,0.0,0.0,0.0,0.0,0.0,0.0,0.0,0.0,0.0,0.0,0.0,0.0,0.0,0.0,0.0,0.0,0.0,0.0,0.0,0.0,0.0,0.0,0.0,0.0,0.0,0.0,0.0,0.0,0.0,-4.6844,-4.9564,0.0,0.0,0.0,0.0,0.0,0.0,0.0,0.0,-5.6979,0.0,0.0,0.0,0.0,0.0,0.0,0.0,0.0,0.0,0.0,0.0,0.0,0.0,0.0,0.0,0.0,0.0,0.0,0.0,0.0,0.0,0.0,0.0,0.0,0.0,0.0,0.0,0.0,0.0,0.0,0.0,0.0,0.0,0.0,0.0,0.0,0.0,0.0,0.0,0.0,0.0,0.0,0.0,0.0,0.0,0.0,0.0,0.0,0.0,0.0,0.0,0.0,0.0,0.0,0.0,0.0,0.0,0.0,-5.4057,-5.4199,-5.3853,-5.3322,-5.2767,-5.083,-4.8729,0.0,0.0,0.0,0.0,0.0,0.0,0.0,0.0,0.0,0.0,0.0,0.0,0.0,0.0,0.0,0.0,0.0,0.0,0.0,0.0,0.0,0.0,0.0,0.0,0.0,0.0,0.0,0.0,0.0,0.0,0.0,0.0,0.0,0.0,0.0,0.0,0.0,0.0,0.0,0.0,0.0,0.0,0.0,0.0,0.0,0.0,0.0,0.0,0.0,0.0,0.0,0.0,0.0,0.0,0.0,0.0,0.0,0.0,0.0,0.0,0.0,0.0,0.0,0.0,0.0,0.0,0.0,0.0,0.0,0.0,0.0,0.0,0.0,0.0,0.0,0.0,0.0,0.0,0.0,0.0,0.0,0.0,0.0,0.0,0.0,0.0,0.0,0.0,0.0,0.0,0.0,0.0,0.0,0.0,0.0,0.0,0.0,0.0,0.0,0.0,0.0,0.0,0.0,0.0,0.0,0.0,0.0,0.0,-5.2013,-5.2171,-5.1839,-5.1465,-5.0942,-4.8271,-4.6159,0.0,0.0,0.0,0.0,0.0,0.0,0.0,0.0,0.0,0.0,0.0,0.0,0.0,0.0,0.0,0.0,0.0,0.0,0.0,0.0,0.0,0.0,0.0,0.0,0.0,0.0,0.0,0.0,0.0,0.0,0.0,0.0,0.0,0.0,0.0,0.0,0.0,0.0,0.0,0.0,0.0,0.0,0.0,0.0,0.0,0.0,0.0,0.0,-5.2714,0.0,0.0,0.0,0.0,0.0,0.0,0.0,0.0,0.0,0.0,0.0,0.0,0.0,0.0,0.0,0.0,0.0,0.0,0.0,0.0,0.0,0.0,0.0,0.0,0.0,0.0,0.0,0.0,0.0,0.0,0.0,0.0,0.0,0.0,0.0,0.0,0.0,0.0,0.0,0.0,0.0,0.0,0.0,0.0,0.0,0.0,0.0,0.0,0.0,0.0,0.0,0.0,0.0,0.0,0.0,0.0,0.0,0.0,0.0,-4.9575,-5.0283,-4.9793,-4.9452,-4.9414,-4.6767,-4.4668,0.0,0.0,0.0,0.0,0.0,0.0,0.0,0.0,0.0,0.0,0.0,0.0,0.0,0.0,0.0,0.0,0.0,0.0,0.0,0.0,0.0,0.0,0.0,0.0,0.0,0.0,0.0,0.0,0.0,0.0,0.0,0.0,0.0,0.0,0.0,0.0,0.0,0.0,0.0,0.0,0.0,0.0,0.0,0.0,0.0,0.0,0.0,0.0,0.0,0.0,0.0,0.0,0.0,0.0,0.0,0.0,0.0,0.0,0.0,0.0,0.0,0.0,0.0,0.0,0.0,0.0,0.0,0.0,0.0,0.0,0.0,0.0,0.0,0.0,0.0,0.0,0.0,0.0,0.0,0.0,0.0,0.0,0.0,0.0,0.0,0.0,0.0,0.0,0.0,0.0,0.0,0.0,0.0,0.0,0.0,0.0,0.0,0.0,0.0,0.0,0.0,0.0,0.0,0.0,0.0,0.0,0.0,0.0,-4.8196,-4.8997,-4.8463,-4.789,-4.7122,-4.4983,-4.3638,0.0,0.0,0.0,0.0,0.0,0.0,0.0,0.0,0.0,0.0,0.0,0.0,0.0,0.0,0.0,0.0,0.0,0.0,0.0,0.0,0.0,0.0,0.0,0.0,0.0,0.0,0.0,0.0,0.0,0.0,0.0,0.0,0.0,0.0,0.0,0.0,0.0,0.0,0.0,0.0,0.0,0.0,0.0,0.0,0.0,0.0,0.0,0.0,0.0,0.0,0.0,0.0,0.0,0.0,0.0,0.0,0.0,0.0,0.0,0.0,0.0,0.0,0.0,0.0,0.0,0.0,0.0,0.0,0.0,0.0,0.0,0.0,0.0,0.0,0.0,0.0,0.0,0.0,0.0,0.0,0.0,0.0,0.0,0.0,0.0,0.0,0.0,0.0,0.0,0.0,0.0,0.0,0.0,0.0,0.0,0.0,0.0,0.0,0.0,0.0,0.0,0.0,0.0,0.0,0.0,0.0,0.0,0.0,0.0,-4.7354,-4.7207,-4.6438,-4.5072,-4.3626,-4.2652,0.0,0.0,0.0,0.0,0.0,0.0,0.0,0.0,0.0,0.0,0.0,0.0,0.0,0.0,0.0,0.0,0.0,0.0,0.0,0.0,0.0,0.0,0.0,0.0,0.0,0.0,0.0,0.0,0.0,0.0,0.0,0.0,0.0,0.0,0.0,0.0,0.0,0.0,0.0,0.0,0.0,0.0,0.0,0.0,0.0,0.0,0.0,0.0,0.0,0.0,0.0,0.0,0.0,0.0,0.0,0.0,0.0,0.0,0.0,0.0,0.0,0.0,0.0,0.0,0.0,0.0,0.0,0.0,0.0,0.0,0.0,0.0,0.0,0.0,0.0,0.0,0.0,0.0,0.0,0.0,0.0,0.0,0.0,0.0,0.0,0.0,0.0,0.0,0.0,0.0,0.0,0.0,0.0,0.0,0.0,0.0,0.0,0.0,0.0,0.0,0.0,0.0,0.0,0.0,0.0,0.0,0.0,0.0,0.0,-4.4521,-4.5213,-4.5038,-4.3587,-4.2433,-4.1308,0.0,0.0,0.0,0.0,0.0,0.0,0.0,0.0,0.0,0.0,0.0,0.0,0.0,0.0,0.0,0.0,0.0,0.0,0.0,0.0,0.0,0.0,0.0,0.0,0.0,0.0,0.0,0.0,0.0,0.0,0.0,0.0,0.0,0.0,0.0,0.0,0.0,0.0,0.0,0.0,0.0,0.0,0.0,0.0,0.0,0.0,0.0,0.0,0.0,0.0,0.0,0.0,0.0,0.0,0.0,0.0,0.0,0.0,0.0,0.0,0.0,0.0,0.0,0.0,0.0,0.0,0.0,0.0,0.0,0.0,0.0,0.0,0.0,0.0,0.0,0.0,0.0,0.0,0.0,0.0,0.0,0.0,0.0,0.0,0.0,0.0,0.0,0.0,0.0,0.0,0.0,0.0,0.0,0.0,0.0,0.0,0.0,0.0,0.0,0.0,0.0,0.0,0.0,0.0,0.0,0.0,0.0,0.0,0.0,-4.1206,-4.2126,-4.239,-4.1525,-4.1041,-4.0382,-3.9435,0.0,0.0,0.0,0.0,0.0,0.0,0.0,0.0,0.0,0.0,0.0,0.0,0.0,0.0,0.0,0.0,0.0,0.0,0.0,0.0,0.0,0.0,0.0,0.0,0.0,0.0,0.0,0.0,0.0,0.0,0.0,0.0,0.0,0.0,0.0,0.0,0.0,0.0,0.0,0.0,0.0,0.0,0.0,0.0,0.0,0.0,0.0,0.0,0.0,0.0,0.0,0.0,0.0,0.0,0.0,0.0,0.0,0.0,0.0,0.0,0.0,0.0,0.0,0.0,0.0,0.0,0.0,0.0,0.0,0.0,0.0,0.0,0.0,0.0,0.0,0.0,0.0,0.0,0.0,0.0,0.0,0.0,0.0,0.0,0.0,0.0,0.0,0.0,0.0,0.0,0.0,0.0,0.0,0.0,0.0,0.0,0.0,0.0,0.0,0.0,0.0,0.0,0.0,0.0,0.0,0.0,0.0,0.0,-3.9102,-4.0241,-4.053,-3.9856,-3.984,-3.9318,0.0,0.0,0.0,0.0,0.0,0.0,0.0,0.0,0.0,0.0,0.0,0.0,0.0,0.0,0.0,0.0,0.0,0.0,0.0,0.0,0.0,0.0,0.0,0.0,0.0,0.0,0.0,0.0,0.0,0.0,0.0,0.0,0.0,0.0,0.0,0.0,0.0,0.0,0.0,0.0,0.0,0.0,0.0,0.0,0.0,0.0,0.0,0.0,0.0,0.0,0.0,0.0,0.0,0.0,0.0,0.0,0.0,0.0,0.0,0.0,0.0,0.0,0.0,0.0,0.0,0.0,0.0,0.0,0.0,0.0,0.0,0.0,0.0,0.0,0.0,0.0,0.0,0.0,0.0,0.0,0.0,0.0,0.0,0.0,0.0,0.0,0.0,0.0,0.0,0.0,0.0,0.0,0.0,0.0,0.0,0.0,0.0,0.0,0.0,0.0,0.0,0.0,0.0,0.0,0.0,0.0,0.0,0.0,0.0,-3.9053,-3.9792,-3.9824,-3.9102,-3.8767,-3.8069,0.0,0.0,0.0,0.0,0.0,0.0,0.0,0.0,0.0,0.0,0.0,0.0,0.0,0.0,0.0,0.0,0.0,0.0,0.0,0.0,0.0,0.0,0.0,0.0,0.0,0.0,0.0,0.0,0.0,0.0,0.0,0.0,0.0,0.0,0.0,0.0,0.0,0.0,0.0,0.0,0.0,0.0,0.0,0.0,0.0,0.0,0.0,0.0,0.0,0.0,0.0,0.0,0.0,0.0,0.0,0.0,0.0,0.0,0.0,0.0,0.0,0.0,0.0,0.0,0.0,0.0,0.0,0.0,0.0,0.0,0.0,0.0,0.0,0.0,0.0,0.0,0.0,0.0,0.0,0.0,0.0,0.0,0.0,0.0,0.0,0.0,0.0,0.0,0.0,0.0,0.0,0.0,0.0,0.0,0.0,0.0,0.0,0.0,0.0,0.0,0.0,0.0,0.0,0.0,0.0,0.0,0.0,0.0,0.0,-3.6378,0.0,-3.7816,0.0,-3.7767,-3.7689,0.0,0.0,0.0,0.0,0.0,0.0,0.0,0.0,0.0,0.0,0.0,0.0,0.0,0.0,0.0,0.0,0.0,0.0,0.0,0.0,0.0,0.0,0.0,0.0,0.0,0.0,0.0,0.0,0.0,0.0,0.0,0.0,0.0,0.0,0.0,0.0,0.0,0.0,0.0,0.0,0.0,0.0,0.0,0.0,0.0,0.0,0.0,0.0,0.0,0.0,0.0,0.0,0.0,0.0,0.0,0.0,0.0,0.0,0.0,0.0,0.0,0.0,0.0,0.0,0.0,0.0,0.0,0.0,0.0,0.0,0.0,0.0,0.0,0.0,0.0,0.0,0.0,0.0,0.0,0.0,0.0,0.0,0.0,0.0,0.0,0.0,0.0,0.0,0.0,0.0,0.0,0.0,0.0,0.0,0.0,0.0,0.0,0.0,0.0,0.0,0.0,0.0,0.0,0.0,0.0,0.0,0.0,0.0,0.0,-3.4615,-3.5741,-3.6318,0.0,-3.6485,-3.6713,0.0,0.0,0.0,0.0,0.0,0.0,0.0,0.0,0.0,0.0,0.0,0.0,0.0,0.0,0.0,0.0,0.0,0.0,0.0,0.0,0.0,0.0,0.0,0.0,0.0,0.0,0.0,0.0,0.0,0.0,0.0,0.0,0.0,0.0,0.0,0.0,0.0,0.0,0.0,0.0,0.0,0.0,0.0,0.0,0.0,0.0,0.0,0.0,0.0,0.0,0.0,0.0,0.0,0.0,0.0,0.0,0.0,0.0,0.0,0.0,0.0,0.0,0.0,0.0,0.0,0.0,0.0,0.0,0.0,0.0,0.0,0.0,0.0,0.0,0.0,0.0,0.0,0.0,0.0,0.0,0.0,0.0,0.0,0.0,0.0,0.0,0.0,0.0,0.0,0.0,0.0,0.0,0.0,0.0,0.0,0.0,0.0,0.0,0.0,0.0,0.0,0.0,0.0,0.0,0.0,0.0,0.0,0.0,0.0,0.0,-3.4615,-3.5157,-3.5157,-3.5157,-3.5353,0.0,0.0,0.0,0.0,0.0,0.0,0.0,0.0,0.0,0.0,0.0,0.0,0.0,0.0,0.0,0.0,0.0,0.0,0.0,0.0,0.0,0.0,0.0,0.0,0.0,0.0,0.0,0.0,0.0,0.0,0.0,0.0,0.0,0.0,0.0,0.0,0.0,0.0,0.0,0.0,0.0,0.0,0.0,0.0,0.0,0.0,0.0,0.0,0.0,0.0,0.0,0.0,0.0,0.0,0.0,0.0,0.0,0.0,0.0,0.0,0.0,0.0,0.0,0.0,0.0,0.0,0.0,0.0,0.0,0.0,0.0,0.0,0.0,0.0,0.0,0.0,0.0,0.0,0.0,0.0,0.0,0.0,0.0,0.0,0.0,0.0,0.0,0.0,0.0,0.0,0.0,0.0,0.0,0.0,0.0,0.0,0.0,0.0,0.0,0.0,0.0,0.0,0.0,0.0,0.0,0.0,0.0,0.0,0.0,0.0,-3.351,0.0,-3.4056,-3.4796,-3.5172,-3.5338,0.0,0.0,0.0,0.0,0.0,0.0,0.0,0.0,0.0,0.0,0.0,0.0,0.0,0.0,0.0,0.0,0.0,0.0,0.0,0.0,0.0,0.0,0.0,0.0,0.0,0.0,0.0,0.0,0.0,0.0,0.0,0.0,0.0,0.0,0.0,0.0,0.0,0.0,0.0,0.0,0.0,0.0,0.0,0.0,0.0,0.0,0.0,0.0,0.0,0.0,0.0,0.0,0.0,0.0,0.0,0.0,0.0,0.0,0.0,0.0,0.0,0.0,0.0,0.0,0.0,0.0,0.0,0.0,0.0,0.0,0.0,0.0,0.0,0.0,0.0,0.0,0.0,0.0,0.0,0.0,0.0,0.0,0.0,0.0,0.0,0.0,0.0,0.0,0.0,0.0,0.0,0.0,0.0,0.0,0.0,0.0,0.0,0.0,0.0,0.0,0.0,0.0,0.0,0.0,0.0,0.0,0.0,0.0,0.0,0.0,0.0,-3.3132,-3.3888,-3.4448,0.0,0.0,0.0,0.0,0.0,0.0,0.0,0.0,0.0,0.0,0.0,0.0,0.0,0.0,0.0,0.0,0.0,0.0,0.0,0.0,0.0,0.0,0.0,0.0,0.0,0.0,0.0,0.0,0.0,0.0,0.0,0.0,0.0,0.0,0.0,0.0,0.0,0.0,0.0,0.0,0.0,0.0,0.0,0.0,0.0,0.0,0.0,0.0,0.0,0.0,0.0,0.0,0.0,0.0,0.0,0.0,0.0,0.0,0.0,0.0,0.0,0.0,0.0,0.0,0.0,0.0,0.0,0.0,0.0,0.0,0.0,0.0,0.0,0.0,0.0,0.0,0.0,0.0,0.0,0.0,0.0,0.0,0.0,0.0,0.0,0.0,0.0,0.0,0.0,0.0,0.0,0.0,0.0,0.0,0.0,0.0,0.0,0.0,0.0,0.0,0.0,0.0,0.0,0.0,0.0,0.0,0.0,0.0,0.0,0.0,0.0,-3.2245,-3.2245,-3.2625,0.0,-3.4208,0.0,0.0,0.0,0.0,0.0,0.0,0.0,0.0,0.0,0.0,0.0,0.0,0.0,0.0,0.0,0.0,0.0,0.0,0.0,0.0,0.0,0.0,0.0,0.0,0.0,0.0,0.0,0.0,0.0,0.0,0.0,0.0,0.0,0.0,0.0,0.0,0.0,0.0,0.0,0.0,0.0,0.0,0.0,0.0,0.0,0.0,0.0,0.0,0.0,0.0,0.0,0.0,0.0,0.0,0.0,0.0,0.0,0.0,0.0,0.0,0.0,0.0,0.0,0.0,0.0,0.0,0.0,0.0,0.0,0.0,0.0,0.0,0.0,0.0,0.0,0.0,0.0,0.0,0.0,0.0,0.0,0.0,0.0,0.0,0.0,0.0,0.0,0.0,0.0,0.0,0.0,0.0,0.0,0.0,0.0,0.0,0.0,0.0,0.0,0.0,0.0,0.0,0.0,0.0,0.0,0.0,0.0,0.0,0.0,0.0,0.0,0.0,-3.2245,-3.2808,-3.3342,0.0,0.0,0.0,0.0,0.0,0.0,0.0,0.0,0.0,0.0,0.0,0.0,0.0,0.0,0.0,0.0,0.0,0.0,0.0,0.0,0.0,0.0,0.0,0.0,0.0,0.0,0.0,0.0,0.0,0.0,0.0,0.0,0.0,0.0,0.0,0.0,0.0,0.0,0.0,0.0,0.0,0.0,0.0,0.0,0.0,0.0,0.0,0.0,0.0,0.0,0.0,0.0,0.0,0.0,0.0,0.0,0.0,0.0,0.0,0.0,0.0,0.0,0.0,0.0,0.0,0.0,0.0,0.0,0.0,0.0,0.0,0.0,0.0,0.0,0.0,0.0,0.0,0.0,0.0,0.0,0.0,0.0,0.0,0.0,0.0,0.0,0.0,0.0,0.0,0.0,0.0,0.0,0.0,0.0,0.0,0.0,0.0,0.0,0.0,0.0,0.0,0.0,0.0,0.0,0.0,0.0,0.0,0.0,0.0,0.0,-3.1156,-3.1156,-3.1708,-3.2076,-3.2259,0.0,0.0,0.0,0.0,0.0,0.0,0.0,0.0,0.0,0.0,0.0,0.0,0.0,0.0,0.0,0.0,0.0,0.0,0.0,0.0,0.0,0.0,0.0,0.0,0.0,0.0,0.0,0.0,0.0,0.0,0.0,0.0,0.0,0.0,0.0,0.0,0.0,0.0,0.0,0.0,0.0,0.0,0.0,0.0,0.0,0.0,0.0,0.0,0.0,0.0,0.0,0.0,0.0,0.0,0.0,0.0,0.0,0.0,0.0,0.0,0.0,0.0,0.0,0.0,0.0,0.0,0.0,0.0,0.0,0.0,0.0,0.0,0.0,0.0,0.0,0.0,0.0,0.0,0.0,0.0,0.0,0.0,0.0,0.0,0.0,0.0,0.0,0.0,0.0,0.0,0.0,0.0,0.0,0.0,0.0,0.0,0.0,0.0,0.0,0.0,0.0,0.0,0.0,0.0,0.0,0.0,0.0,0.0,0.0,0.0,0.0,0.0,0.0,0.0,-3.1405,0.0,0.0,0.0,0.0,0.0,0.0,0.0,0.0,0.0,0.0,0.0,0.0,0.0,0.0,0.0,0.0,0.0,0.0,0.0,0.0,0.0,0.0,0.0,0.0,0.0,0.0,0.0,0.0,0.0,0.0,0.0,0.0,0.0,0.0,0.0,0.0,0.0,0.0,0.0,0.0,0.0,0.0,0.0,0.0,0.0,0.0,0.0,0.0,0.0,0.0,0.0,0.0,0.0,0.0,0.0,0.0,0.0,0.0,0.0,0.0,0.0,0.0,0.0,0.0,0.0,0.0,0.0,0.0,0.0,0.0,0.0,0.0,0.0,0.0,0.0,0.0,0.0,0.0,0.0,0.0,0.0,0.0,0.0,0.0,0.0,0.0,0.0,0.0,0.0,0.0,0.0,0.0,0.0,0.0,0.0,0.0,0.0,0.0,0.0,0.0,0.0,0.0,0.0,0.0,0.0,0.0,0.0,0.0,0.0,0.0,0.0,0.0,0.0,0.0,0.0,0.0,0.0,0.0,0.0,0.0,0.0,0.0,0.0,0.0,0.0,0.0,0.0,0.0,0.0,0.0,0.0,0.0,0.0,0.0,0.0,0.0,0.0,0.0,0.0,0.0,0.0,0.0,0.0,0.0,0.0,0.0,0.0,0.0,0.0,0.0,0.0,0.0,0.0,0.0,0.0,0.0,0.0,0.0,0.0,0.0,0.0,0.0,0.0,0.0,0.0,0.0,0.0,0.0,0.0,0.0,0.0,0.0,0.0,0.0,0.0,0.0,0.0,0.0,0.0,0.0,0.0,0.0,0.0,0.0,0.0,0.0,0.0,0.0,0.0,0.0,0.0,0.0,0.0,0.0,0.0,0.0,0.0,0.0,0.0,0.0,0.0,0.0,0.0,0.0,0.0,0.0,0.0,0.0,0.0,0.0,0.0,0.0,0.0,0.0,0.0,0.0,0.0,0.0,0.0,0.0,0.0,0.0,0.0,0.0,0.0,0.0,0.0,0.0,0.0,0.0,0.0,0.0,0.0,0.0,0.0,0.0,0.0,0.0,0.0,0.0,0.0,0.0,0.0,0.0,0.0,0.0,0.0,0.0,0.0,0.0,0.0,0.0,0.0,0.0,0.0,0.0,0.0,0.0,0.0,0.0,0.0,0.0,0.0,0.0,0.0,0.0,0.0,0.0,0.0,0.0,0.0,0.0,0.0,0.0,0.0,0.0,0.0,0.0,0.0,0.0,0.0,0.0,0.0,0.0,0.0,0.0,0.0,0.0,0.0,0.0,0.0,0.0,0.0,0.0,0.0,0.0,0.0,0.0,0.0,0.0,0.0,0.0,0.0,0.0,0.0,0.0,0.0,0.0,0.0,0.0,0.0,0.0,0.0,0.0,0.0,0.0,0.0,0.0,0.0,0.0,0.0,0.0,0.0,0.0,0.0,0.0,0.0,0.0,0.0,0.0,0.0,0.0,0.0,0.0,0.0,0.0,0.0,0.0,0.0,0.0,0.0,0.0,0.0,0.0,0.0,0.0,0.0,0.0,0.0,0.0,0.0,0.0,0.0,0.0,0.0,0.0,0.0,0.0,0.0,0.0,0.0,0.0,0.0,0.0,0.0,0.0,0.0,0.0,0.0,0.0,0.0,0.0,0.0,0.0,0.0,0.0,0.0,0.0,0.0,0.0,0.0,0.0,0.0,0.0,0.0,0.0,0.0,0.0,0.0,0.0,0.0,0.0,0.0,0.0,0.0,0.0,0.0,0.0,0.0,0.0,0.0,0.0,0.0,0.0,0.0,0.0,0.0,0.0,0.0,0.0,0.0,0.0,0.0,0.0,0.0,0.0,0.0,0.0,0.0,0.0,0.0,0.0,0.0,0.0,0.0,0.0,0.0,0.0,0.0,0.0,0.0,0.0,0.0,0.0,0.0,0.0,0.0,0.0,0.0,0.0,0.0,0.0,0.0,0.0,0.0,0.0,0.0,0.0,0.0,0.0,0.0,0.0,0.0,0.0,0.0,0.0,0.0,0.0,0.0,0.0,0.0,0.0,0.0,0.0,0.0,0.0,0.0,0.0,0.0,0.0,0.0,0.0,0.0,0.0,0.0,0.0,0.0,0.0,0.0,0.0,0.0,0.0,0.0,0.0,0.0,0.0,0.0,0.0,0.0,0.0,0.0,0.0,0.0,0.0,0.0,0.0,0.0,0.0,0.0,0.0,0.0,0.0,0.0,0.0,0.0,0.0,0.0,0.0,0.0,0.0,0.0,0.0,0.0,0.0,0.0,0.0,0.0,0.0,0.0,0.0,0.0,0.0,0.0,0.0,0.0,0.0,0.0,0.0,0.0,0.0,0.0,0.0,0.0,0.0,0.0,0.0,0.0,0.0,0.0,0.0,0.0,0.0,0.0,0.0,0.0,0.0,0.0,0.0,0.0,0.0,0.0,0.0,0.0,0.0,0.0,0.0,0.0,0.0,0.0,0.0,0.0,0.0,0.0,0.0,0.0,0.0,0.0,0.0,0.0,0.0,0.0,0.0,0.0,0.0,0.0,0.0,0.0,0.0,0.0,0.0,0.0,0.0,0.0,0.0,0.0,0.0,0.0,0.0,0.0,0.0,0.0,0.0,0.0,0.0,0.0,0.0,0.0,0.0,0.0,0.0,0.0,0.0,0.0,0.0,0.0,0.0,0.0,0.0,0.0,0.0,0.0,0.0,0.0,0.0,0.0,0.0,0.0,0.0,0.0,0.0,0.0,0.0,0.0,0.0,0.0,0.0,0.0,0.0,0.0,0.0,0.0,0.0,0.0,0.0,0.0,0.0,0.0,0.0,0.0,0.0,0.0,0.0,0.0,0.0,0.0,0.0,0.0,0.0,0.0,0.0,0.0,0.0,0.0,0.0,0.0,0.0,0.0,0.0,0.0,0.0,0.0,0.0,0.0,0.0,0.0,0.0,0.0,0.0,0.0,0.0,0.0,0.0,0.0,0.0,0.0,0.0,0.0,0.0,0.0,0.0,0.0,0.0,0.0,0.0,0.0,0.0,0.0,0.0,0.0,0.0,0.0,0.0,0.0,0.0,0.0,0.0,0.0,0.0,0.0,0.0,0.0,0.0,0.0,0.0,0.0,0.0,0.0,0.0,0.0,0.0,0.0,0.0,0.0,0.0,0.0,0.0,0.0,0.0,0.0,0.0,0.0,0.0,0.0,0.0,0.0,0.0,0.0,0.0,0.0,0.0,0.0,0.0,0.0,0.0,0.0,0.0,0.0,0.0,0.0,0.0,0.0,0.0,0.0,0.0,0.0,0.0,0.0,0.0,0.0,0.0,0.0,0.0,0.0,0.0,0.0,0.0,0.0,0.0,0.0,0.0,0.0,0.0,0.0,0.0,0.0,0.0,0.0,0.0,0.0,0.0,0.0,0.0,0.0,0.0,0.0,0.0,0.0,0.0,0.0,0.0,0.0,0.0,0.0,0.0,0.0,0.0,0.0,0.0,0.0,0.0,0.0,0.0,0.0,0.0,0.0,0.0,0.0,0.0,0.0,0.0,0.0,0.0,0.0,0.0,0.0,0.0,0.0,0.0,0.0,0.0,0.0,0.0,0.0,0.0,0.0,0.0,0.0,0.0,0.0,0.0,0.0,0.0,0.0,0.0,0.0,0.0,0.0,0.0,0.0,0.0,0.0,0.0,0.0,0.0,0.0,0.0,0.0,0.0,0.0,0.0,0.0,0.0,0.0,0.0,0.0,0.0,0.0,0.0,0.0,0.0,0.0,0.0,0.0,0.0,0.0,0.0,0.0,0.0,0.0,0.0,0.0,0.0,0.0,0.0,0.0,0.0,0.0,0.0,0.0,0.0,0.0,0.0,0.0,0.0,0.0,0.0,0.0,0.0,0.0,0.0,0.0,0.0,0.0,0.0,0.0,0.0,0.0,0.0,0.0,0.0,0.0,0.0,0.0,0.0,0.0,0.0,0.0,0.0,0.0,0.0,0.0,0.0,0.0,0.0,0.0,0.0,0.0,0.0,0.0,0.0,0.0,0.0,0.0,0.0,0.0,0.0,0.0,0.0,0.0,0.0,0.0,0.0,0.0,0.0,0.0,0.0,0.0,0.0,0.0,0.0,0.0,0.0,0.0,0.0,0.0,0.0,0.0,0.0,0.0,0.0,0.0,0.0,0.0,0.0,0.0,0.0,0.0,0.0,0.0,0.0,0.0,0.0,0.0,0.0,0.0,0.0,0.0,0.0,0.0,0.0,0.0,0.0,0.0,0.0,0.0,0.0,0.0,0.0,0.0,0.0,0.0,0.0,0.0,0.0,0.0,0.0,0.0,0.0,0.0,0.0,0.0,0.0,0.0,0.0,0.0,0.0,0.0,0.0]}]]]